<?xml version="1.0" encoding="UTF-8" standalone="no" ?>
<gpx xmlns="http://www.topografix.com/GPX/1/1" xmlns:xsi="http://www.w3.org/2001/XMLSchema-instance" xsi:schemaLocation="http://www.topografix.com/GPX/1/1 http://www.topografix.com/GPX/1/1/gpx.xsd" version="1.1" creator="VisuGPX - https://www.visugpx.com">
  <metadata>
    <name>10636087-GR46</name>
  </metadata>
  <trk>
    <name><![CDATA[10636087-GR46]]></name>
    <trkseg>
      <trkpt lat="44.80328" lon="1.62214">
        <ele>208</ele>
        <time>2020-09-18T17:22:05Z</time>
      </trkpt>
      <trkpt lat="44.80369" lon="1.62281">
        <ele>216</ele>
        <time>2020-09-18T17:23:29Z</time>
      </trkpt>
      <trkpt lat="44.80393" lon="1.6233">
        <ele>221</ele>
        <time>2020-09-18T17:24:25Z</time>
      </trkpt>
      <trkpt lat="44.80404" lon="1.62381">
        <ele>226</ele>
        <time>2020-09-18T17:25:16Z</time>
      </trkpt>
      <trkpt lat="44.80412" lon="1.6245">
        <ele>233</ele>
        <time>2020-09-18T17:26:22Z</time>
      </trkpt>
      <trkpt lat="44.8041" lon="1.62611">
        <ele>249</ele>
        <time>2020-09-18T17:28:54Z</time>
      </trkpt>
      <trkpt lat="44.80439" lon="1.62626">
        <ele>254</ele>
        <time>2020-09-18T17:29:36Z</time>
      </trkpt>
      <trkpt lat="44.80444" lon="1.62609">
        <ele>254</ele>
        <time>2020-09-18T17:29:53Z</time>
      </trkpt>
      <trkpt lat="44.80465" lon="1.62615">
        <ele>256</ele>
        <time>2020-09-18T17:30:22Z</time>
      </trkpt>
      <trkpt lat="44.80471" lon="1.62594">
        <ele>255</ele>
        <time>2020-09-18T17:30:43Z</time>
      </trkpt>
      <trkpt lat="44.80498" lon="1.62611">
        <ele>258</ele>
        <time>2020-09-18T17:31:22Z</time>
      </trkpt>
      <trkpt lat="44.80539" lon="1.62628">
        <ele>259</ele>
        <time>2020-09-18T17:32:19Z</time>
      </trkpt>
      <trkpt lat="44.80549" lon="1.6265">
        <ele>258</ele>
        <time>2020-09-18T17:32:44Z</time>
      </trkpt>
      <trkpt lat="44.80667" lon="1.62579">
        <ele>263</ele>
        <time>2020-09-18T17:35:35Z</time>
      </trkpt>
      <trkpt lat="44.80701" lon="1.6257">
        <ele>261</ele>
        <time>2020-09-18T17:36:22Z</time>
      </trkpt>
      <trkpt lat="44.80769" lon="1.62538">
        <ele>259</ele>
        <time>2020-09-18T17:37:57Z</time>
      </trkpt>
      <trkpt lat="44.80902" lon="1.62459">
        <ele>251</ele>
        <time>2020-09-18T17:41:10Z</time>
      </trkpt>
      <trkpt lat="44.80923" lon="1.6245">
        <ele>250</ele>
        <time>2020-09-18T17:41:39Z</time>
      </trkpt>
      <trkpt lat="44.81017" lon="1.62433">
        <ele>248</ele>
        <time>2020-09-18T17:43:46Z</time>
      </trkpt>
      <trkpt lat="44.81039" lon="1.62431">
        <ele>247</ele>
        <time>2020-09-18T17:44:15Z</time>
      </trkpt>
      <trkpt lat="44.81084" lon="1.62446">
        <ele>244</ele>
        <time>2020-09-18T17:45:17Z</time>
      </trkpt>
      <trkpt lat="44.8131" lon="1.62598">
        <ele>241</ele>
        <time>2020-09-18T17:50:51Z</time>
      </trkpt>
      <trkpt lat="44.81346" lon="1.62609">
        <ele>243</ele>
        <time>2020-09-18T17:51:40Z</time>
      </trkpt>
      <trkpt lat="44.81349" lon="1.62688">
        <ele>243</ele>
        <time>2020-09-18T17:52:55Z</time>
      </trkpt>
      <trkpt lat="44.8139" lon="1.62791">
        <ele>243</ele>
        <time>2020-09-18T17:54:47Z</time>
      </trkpt>
      <trkpt lat="44.814" lon="1.6283">
        <ele>243</ele>
        <time>2020-09-18T17:55:26Z</time>
      </trkpt>
      <trkpt lat="44.81415" lon="1.62836">
        <ele>244</ele>
        <time>2020-09-18T17:55:47Z</time>
      </trkpt>
      <trkpt lat="44.8145" lon="1.62817">
        <ele>246</ele>
        <time>2020-09-18T17:56:37Z</time>
      </trkpt>
      <trkpt lat="44.81467" lon="1.62826">
        <ele>246</ele>
        <time>2020-09-18T17:57:01Z</time>
      </trkpt>
      <trkpt lat="44.81494" lon="1.62819">
        <ele>247</ele>
        <time>2020-09-18T17:57:38Z</time>
      </trkpt>
      <trkpt lat="44.81515" lon="1.62789">
        <ele>248</ele>
        <time>2020-09-18T17:58:18Z</time>
      </trkpt>
      <trkpt lat="44.81547" lon="1.62817">
        <ele>245</ele>
        <time>2020-09-18T17:59:08Z</time>
      </trkpt>
      <trkpt lat="44.81581" lon="1.62834">
        <ele>243</ele>
        <time>2020-09-18T17:59:56Z</time>
      </trkpt>
      <trkpt lat="44.81657" lon="1.6289">
        <ele>237</ele>
        <time>2020-09-18T18:01:51Z</time>
      </trkpt>
      <trkpt lat="44.81737" lon="1.6292">
        <ele>238</ele>
        <time>2020-09-18T18:03:41Z</time>
      </trkpt>
      <trkpt lat="44.819" lon="1.63034">
        <ele>243</ele>
        <time>2020-09-18T18:07:44Z</time>
      </trkpt>
      <trkpt lat="44.81976" lon="1.63077">
        <ele>245</ele>
        <time>2020-09-18T18:09:33Z</time>
      </trkpt>
      <trkpt lat="44.82042" lon="1.63111">
        <ele>249</ele>
        <time>2020-09-18T18:11:07Z</time>
      </trkpt>
      <trkpt lat="44.82077" lon="1.63145">
        <ele>252</ele>
        <time>2020-09-18T18:12:04Z</time>
      </trkpt>
      <trkpt lat="44.82109" lon="1.63163">
        <ele>253</ele>
        <time>2020-09-18T18:12:50Z</time>
      </trkpt>
      <trkpt lat="44.82223" lon="1.63201">
        <ele>259</ele>
        <time>2020-09-18T18:15:26Z</time>
      </trkpt>
      <trkpt lat="44.82287" lon="1.63212">
        <ele>262</ele>
        <time>2020-09-18T18:16:52Z</time>
      </trkpt>
      <trkpt lat="44.8241" lon="1.63259">
        <ele>265</ele>
        <time>2020-09-18T18:19:42Z</time>
      </trkpt>
      <trkpt lat="44.82427" lon="1.63233">
        <ele>265</ele>
        <time>2020-09-18T18:20:15Z</time>
      </trkpt>
      <trkpt lat="44.82524" lon="1.63124">
        <ele>265</ele>
        <time>2020-09-18T18:23:01Z</time>
      </trkpt>
      <trkpt lat="44.82635" lon="1.6304">
        <ele>265</ele>
        <time>2020-09-18T18:25:49Z</time>
      </trkpt>
      <trkpt lat="44.8267" lon="1.62997">
        <ele>266</ele>
        <time>2020-09-18T18:26:51Z</time>
      </trkpt>
      <trkpt lat="44.82689" lon="1.62954">
        <ele>265</ele>
        <time>2020-09-18T18:27:39Z</time>
      </trkpt>
      <trkpt lat="44.82695" lon="1.6289">
        <ele>264</ele>
        <time>2020-09-18T18:28:40Z</time>
      </trkpt>
      <trkpt lat="44.82709" lon="1.62834">
        <ele>262</ele>
        <time>2020-09-18T18:29:36Z</time>
      </trkpt>
      <trkpt lat="44.82908" lon="1.62467">
        <ele>265</ele>
        <time>2020-09-18T18:36:53Z</time>
      </trkpt>
      <trkpt lat="44.82941" lon="1.62401">
        <ele>266</ele>
        <time>2020-09-18T18:38:10Z</time>
      </trkpt>
      <trkpt lat="44.82961" lon="1.62394">
        <ele>267</ele>
        <time>2020-09-18T18:38:37Z</time>
      </trkpt>
      <trkpt lat="44.82992" lon="1.62399">
        <ele>268</ele>
        <time>2020-09-18T18:39:19Z</time>
      </trkpt>
      <trkpt lat="44.83011" lon="1.6242">
        <ele>268</ele>
        <time>2020-09-18T18:39:51Z</time>
      </trkpt>
      <trkpt lat="44.8311" lon="1.62439">
        <ele>264</ele>
        <time>2020-09-18T18:42:05Z</time>
      </trkpt>
      <trkpt lat="44.83197" lon="1.62429">
        <ele>257</ele>
        <time>2020-09-18T18:44:01Z</time>
      </trkpt>
      <trkpt lat="44.83227" lon="1.62433">
        <ele>254</ele>
        <time>2020-09-18T18:44:41Z</time>
      </trkpt>
      <trkpt lat="44.8324" lon="1.62429">
        <ele>252</ele>
        <time>2020-09-18T18:44:59Z</time>
      </trkpt>
      <trkpt lat="44.83253" lon="1.62416">
        <ele>251</ele>
        <time>2020-09-18T18:45:20Z</time>
      </trkpt>
      <trkpt lat="44.83294" lon="1.6233">
        <ele>246</ele>
        <time>2020-09-18T18:46:58Z</time>
      </trkpt>
      <trkpt lat="44.83314" lon="1.62304">
        <ele>243</ele>
        <time>2020-09-18T18:47:35Z</time>
      </trkpt>
      <trkpt lat="44.83337" lon="1.62289">
        <ele>239</ele>
        <time>2020-09-18T18:48:09Z</time>
      </trkpt>
      <trkpt lat="44.83401" lon="1.62188">
        <ele>228</ele>
        <time>2020-09-18T18:50:17Z</time>
      </trkpt>
      <trkpt lat="44.83427" lon="1.62169">
        <ele>224</ele>
        <time>2020-09-18T18:50:56Z</time>
      </trkpt>
      <trkpt lat="44.83466" lon="1.62171">
        <ele>221</ele>
        <time>2020-09-18T18:51:48Z</time>
      </trkpt>
      <trkpt lat="44.83514" lon="1.62188">
        <ele>221</ele>
        <time>2020-09-18T18:52:54Z</time>
      </trkpt>
      <trkpt lat="44.83544" lon="1.62206">
        <ele>222</ele>
        <time>2020-09-18T18:53:37Z</time>
      </trkpt>
      <trkpt lat="44.83576" lon="1.62233">
        <ele>221</ele>
        <time>2020-09-18T18:54:27Z</time>
      </trkpt>
      <trkpt lat="44.83705" lon="1.62253">
        <ele>214</ele>
        <time>2020-09-18T18:57:20Z</time>
      </trkpt>
      <trkpt lat="44.83889" lon="1.62321">
        <ele>207</ele>
        <time>2020-09-18T19:01:34Z</time>
      </trkpt>
      <trkpt lat="44.83915" lon="1.62341">
        <ele>206</ele>
        <time>2020-09-18T19:02:14Z</time>
      </trkpt>
      <trkpt lat="44.83935" lon="1.62371">
        <ele>208</ele>
        <time>2020-09-18T19:02:53Z</time>
      </trkpt>
      <trkpt lat="44.83956" lon="1.62444">
        <ele>202</ele>
        <time>2020-09-18T19:04:07Z</time>
      </trkpt>
      <trkpt lat="44.8399" lon="1.62504">
        <ele>192</ele>
        <time>2020-09-18T19:05:20Z</time>
      </trkpt>
      <trkpt lat="44.84038" lon="1.6253">
        <ele>192</ele>
        <time>2020-09-18T19:06:28Z</time>
      </trkpt>
      <trkpt lat="44.84058" lon="1.62547">
        <ele>194</ele>
        <time>2020-09-18T19:07:00Z</time>
      </trkpt>
      <trkpt lat="44.8409" lon="1.62553">
        <ele>195</ele>
        <time>2020-09-18T19:07:43Z</time>
      </trkpt>
      <trkpt lat="44.84142" lon="1.62538">
        <ele>193</ele>
        <time>2020-09-18T19:08:54Z</time>
      </trkpt>
      <trkpt lat="44.84189" lon="1.62536">
        <ele>192</ele>
        <time>2020-09-18T19:09:56Z</time>
      </trkpt>
      <trkpt lat="44.84321" lon="1.62566">
        <ele>188</ele>
        <time>2020-09-18T19:12:55Z</time>
      </trkpt>
      <trkpt lat="44.84367" lon="1.62583">
        <ele>184</ele>
        <time>2020-09-18T19:13:58Z</time>
      </trkpt>
      <trkpt lat="44.84422" lon="1.6262">
        <ele>185</ele>
        <time>2020-09-18T19:15:20Z</time>
      </trkpt>
      <trkpt lat="44.84442" lon="1.62628">
        <ele>188</ele>
        <time>2020-09-18T19:15:47Z</time>
      </trkpt>
      <trkpt lat="44.84463" lon="1.62624">
        <ele>190</ele>
        <time>2020-09-18T19:16:16Z</time>
      </trkpt>
      <trkpt lat="44.84513" lon="1.62568">
        <ele>189</ele>
        <time>2020-09-18T19:17:41Z</time>
      </trkpt>
      <trkpt lat="44.84539" lon="1.62555">
        <ele>192</ele>
        <time>2020-09-18T19:18:18Z</time>
      </trkpt>
      <trkpt lat="44.84565" lon="1.62549">
        <ele>194</ele>
        <time>2020-09-18T19:18:53Z</time>
      </trkpt>
      <trkpt lat="44.84647" lon="1.62553">
        <ele>201</ele>
        <time>2020-09-18T19:20:42Z</time>
      </trkpt>
      <trkpt lat="44.84709" lon="1.6259">
        <ele>207</ele>
        <time>2020-09-18T19:22:12Z</time>
      </trkpt>
      <trkpt lat="44.84772" lon="1.626">
        <ele>207</ele>
        <time>2020-09-18T19:23:37Z</time>
      </trkpt>
      <trkpt lat="44.84833" lon="1.626">
        <ele>210</ele>
        <time>2020-09-18T19:24:58Z</time>
      </trkpt>
      <trkpt lat="44.84865" lon="1.62598">
        <ele>214</ele>
        <time>2020-09-18T19:25:41Z</time>
      </trkpt>
      <trkpt lat="44.84977" lon="1.62568">
        <ele>222</ele>
        <time>2020-09-18T19:28:13Z</time>
      </trkpt>
      <trkpt lat="44.85114" lon="1.62557">
        <ele>226</ele>
        <time>2020-09-18T19:31:16Z</time>
      </trkpt>
      <trkpt lat="44.85163" lon="1.62547">
        <ele>226</ele>
        <time>2020-09-18T19:32:22Z</time>
      </trkpt>
      <trkpt lat="44.85207" lon="1.62547">
        <ele>227</ele>
        <time>2020-09-18T19:33:21Z</time>
      </trkpt>
      <trkpt lat="44.85249" lon="1.62534">
        <ele>228</ele>
        <time>2020-09-18T19:34:18Z</time>
      </trkpt>
      <trkpt lat="44.85284" lon="1.62536">
        <ele>229</ele>
        <time>2020-09-18T19:35:05Z</time>
      </trkpt>
      <trkpt lat="44.853" lon="1.6254">
        <ele>229</ele>
        <time>2020-09-18T19:35:27Z</time>
      </trkpt>
      <trkpt lat="44.85321" lon="1.62557">
        <ele>230</ele>
        <time>2020-09-18T19:35:59Z</time>
      </trkpt>
      <trkpt lat="44.85364" lon="1.62577">
        <ele>232</ele>
        <time>2020-09-18T19:36:59Z</time>
      </trkpt>
      <trkpt lat="44.85461" lon="1.62598">
        <ele>234</ele>
        <time>2020-09-18T19:39:10Z</time>
      </trkpt>
      <trkpt lat="44.85532" lon="1.62607">
        <ele>235</ele>
        <time>2020-09-18T19:40:45Z</time>
      </trkpt>
      <trkpt lat="44.85554" lon="1.62598">
        <ele>236</ele>
        <time>2020-09-18T19:41:16Z</time>
      </trkpt>
      <trkpt lat="44.85584" lon="1.62592">
        <ele>236</ele>
        <time>2020-09-18T19:41:56Z</time>
      </trkpt>
      <trkpt lat="44.85646" lon="1.62594">
        <ele>235</ele>
        <time>2020-09-18T19:43:19Z</time>
      </trkpt>
      <trkpt lat="44.85692" lon="1.62587">
        <ele>236</ele>
        <time>2020-09-18T19:44:21Z</time>
      </trkpt>
      <trkpt lat="44.85758" lon="1.62598">
        <ele>238</ele>
        <time>2020-09-18T19:45:50Z</time>
      </trkpt>
      <trkpt lat="44.8585" lon="1.62605">
        <ele>246</ele>
        <time>2020-09-18T19:47:53Z</time>
      </trkpt>
      <trkpt lat="44.85905" lon="1.6262">
        <ele>246</ele>
        <time>2020-09-18T19:49:07Z</time>
      </trkpt>
      <trkpt lat="44.85975" lon="1.62615">
        <ele>243</ele>
        <time>2020-09-18T19:50:41Z</time>
      </trkpt>
      <trkpt lat="44.8601" lon="1.62602">
        <ele>242</ele>
        <time>2020-09-18T19:51:29Z</time>
      </trkpt>
      <trkpt lat="44.86112" lon="1.62542">
        <ele>236</ele>
        <time>2020-09-18T19:53:57Z</time>
      </trkpt>
      <trkpt lat="44.86209" lon="1.62517">
        <ele>231</ele>
        <time>2020-09-18T19:56:08Z</time>
      </trkpt>
      <trkpt lat="44.86262" lon="1.62493">
        <ele>229</ele>
        <time>2020-09-18T19:57:23Z</time>
      </trkpt>
      <trkpt lat="44.8636" lon="1.62495">
        <ele>232</ele>
        <time>2020-09-18T19:59:33Z</time>
      </trkpt>
      <trkpt lat="44.86357" lon="1.62504">
        <ele>232</ele>
        <time>2020-09-18T19:59:43Z</time>
      </trkpt>
      <trkpt lat="44.86436" lon="1.62491">
        <ele>235</ele>
        <time>2020-09-18T20:01:29Z</time>
      </trkpt>
      <trkpt lat="44.86556" lon="1.62457">
        <ele>237</ele>
        <time>2020-09-18T20:04:12Z</time>
      </trkpt>
      <trkpt lat="44.86681" lon="1.62401">
        <ele>236</ele>
        <time>2020-09-18T20:07:07Z</time>
      </trkpt>
      <trkpt lat="44.86767" lon="1.62386">
        <ele>239</ele>
        <time>2020-09-18T20:09:03Z</time>
      </trkpt>
      <trkpt lat="44.86926" lon="1.62341">
        <ele>241</ele>
        <time>2020-09-18T20:12:39Z</time>
      </trkpt>
      <trkpt lat="44.87005" lon="1.62336">
        <ele>241</ele>
        <time>2020-09-18T20:14:25Z</time>
      </trkpt>
      <trkpt lat="44.87126" lon="1.62321">
        <ele>237</ele>
        <time>2020-09-18T20:17:07Z</time>
      </trkpt>
      <trkpt lat="44.8719" lon="1.62321">
        <ele>233</ele>
        <time>2020-09-18T20:18:32Z</time>
      </trkpt>
      <trkpt lat="44.87287" lon="1.62336">
        <ele>225</ele>
        <time>2020-09-18T20:20:42Z</time>
      </trkpt>
      <trkpt lat="44.87339" lon="1.62336">
        <ele>222</ele>
        <time>2020-09-18T20:21:52Z</time>
      </trkpt>
      <trkpt lat="44.87374" lon="1.62379">
        <ele>220</ele>
        <time>2020-09-18T20:22:54Z</time>
      </trkpt>
      <trkpt lat="44.87461" lon="1.62332">
        <ele>218</ele>
        <time>2020-09-18T20:24:58Z</time>
      </trkpt>
      <trkpt lat="44.87487" lon="1.62343">
        <ele>218</ele>
        <time>2020-09-18T20:25:34Z</time>
      </trkpt>
      <trkpt lat="44.87558" lon="1.62287">
        <ele>215</ele>
        <time>2020-09-18T20:27:23Z</time>
      </trkpt>
      <trkpt lat="44.87614" lon="1.62218">
        <ele>211</ele>
        <time>2020-09-18T20:29:02Z</time>
      </trkpt>
      <trkpt lat="44.87701" lon="1.62158">
        <ele>211</ele>
        <time>2020-09-18T20:31:11Z</time>
      </trkpt>
      <trkpt lat="44.8777" lon="1.62105">
        <ele>209</ele>
        <time>2020-09-18T20:32:56Z</time>
      </trkpt>
      <trkpt lat="44.87818" lon="1.62057">
        <ele>206</ele>
        <time>2020-09-18T20:34:15Z</time>
      </trkpt>
      <trkpt lat="44.87865" lon="1.62027">
        <ele>207</ele>
        <time>2020-09-18T20:35:23Z</time>
      </trkpt>
      <trkpt lat="44.87919" lon="1.61987">
        <ele>207</ele>
        <time>2020-09-18T20:36:45Z</time>
      </trkpt>
      <trkpt lat="44.87964" lon="1.61967">
        <ele>202</ele>
        <time>2020-09-18T20:37:48Z</time>
      </trkpt>
      <trkpt lat="44.87988" lon="1.61963">
        <ele>201</ele>
        <time>2020-09-18T20:38:20Z</time>
      </trkpt>
      <trkpt lat="44.88007" lon="1.61978">
        <ele>202</ele>
        <time>2020-09-18T20:38:49Z</time>
      </trkpt>
      <trkpt lat="44.88061" lon="1.62064">
        <ele>207</ele>
        <time>2020-09-18T20:40:38Z</time>
      </trkpt>
      <trkpt lat="44.88071" lon="1.62066">
        <ele>206</ele>
        <time>2020-09-18T20:40:51Z</time>
      </trkpt>
      <trkpt lat="44.88092" lon="1.6203">
        <ele>201</ele>
        <time>2020-09-18T20:41:35Z</time>
      </trkpt>
      <trkpt lat="44.88103" lon="1.61997">
        <ele>199</ele>
        <time>2020-09-18T20:42:10Z</time>
      </trkpt>
      <trkpt lat="44.88128" lon="1.61819">
        <ele>179</ele>
        <time>2020-09-18T20:45:01Z</time>
      </trkpt>
      <trkpt lat="44.88113" lon="1.61806">
        <ele>176</ele>
        <time>2020-09-18T20:45:25Z</time>
      </trkpt>
      <trkpt lat="44.88124" lon="1.61763">
        <ele>169</ele>
        <time>2020-09-18T20:46:08Z</time>
      </trkpt>
      <trkpt lat="44.88144" lon="1.6177">
        <ele>170</ele>
        <time>2020-09-18T20:46:36Z</time>
      </trkpt>
      <trkpt lat="44.88186" lon="1.618">
        <ele>173</ele>
        <time>2020-09-18T20:47:38Z</time>
      </trkpt>
      <trkpt lat="44.88201" lon="1.618">
        <ele>169</ele>
        <time>2020-09-18T20:47:58Z</time>
      </trkpt>
      <trkpt lat="44.88261" lon="1.61824">
        <ele>163</ele>
        <time>2020-09-18T20:49:22Z</time>
      </trkpt>
      <trkpt lat="44.88324" lon="1.61858">
        <ele>154</ele>
        <time>2020-09-18T20:50:52Z</time>
      </trkpt>
      <trkpt lat="44.88359" lon="1.61897">
        <ele>161</ele>
        <time>2020-09-18T20:51:51Z</time>
      </trkpt>
      <trkpt lat="44.88515" lon="1.61935">
        <ele>144</ele>
        <time>2020-09-18T20:55:22Z</time>
      </trkpt>
      <trkpt lat="44.8858" lon="1.61937">
        <ele>141</ele>
        <time>2020-09-18T20:56:49Z</time>
      </trkpt>
      <trkpt lat="44.88659" lon="1.61927">
        <ele>136</ele>
        <time>2020-09-18T20:58:35Z</time>
      </trkpt>
      <trkpt lat="44.88743" lon="1.61909">
        <ele>131</ele>
        <time>2020-09-18T21:00:28Z</time>
      </trkpt>
      <trkpt lat="44.88837" lon="1.61869">
        <ele>123</ele>
        <time>2020-09-18T21:02:39Z</time>
      </trkpt>
      <trkpt lat="44.88852" lon="1.61873">
        <ele>124</ele>
        <time>2020-09-18T21:03:00Z</time>
      </trkpt>
      <trkpt lat="44.88878" lon="1.6186">
        <ele>120</ele>
        <time>2020-09-18T21:03:37Z</time>
      </trkpt>
      <trkpt lat="44.88928" lon="1.6186">
        <ele>121</ele>
        <time>2020-09-18T21:04:43Z</time>
      </trkpt>
      <trkpt lat="44.88954" lon="1.61843">
        <ele>117</ele>
        <time>2020-09-18T21:05:22Z</time>
      </trkpt>
      <trkpt lat="44.88951" lon="1.61819">
        <ele>113</ele>
        <time>2020-09-18T21:05:45Z</time>
      </trkpt>
      <trkpt lat="44.88951" lon="1.61783">
        <ele>111</ele>
        <time>2020-09-18T21:06:19Z</time>
      </trkpt>
      <trkpt lat="44.89009" lon="1.61766">
        <ele>110</ele>
        <time>2020-09-18T21:07:38Z</time>
      </trkpt>
      <trkpt lat="44.89136" lon="1.61695">
        <ele>109</ele>
        <time>2020-09-18T21:10:40Z</time>
      </trkpt>
      <trkpt lat="44.89203" lon="1.61637">
        <ele>108</ele>
        <time>2020-09-18T21:12:25Z</time>
      </trkpt>
      <trkpt lat="44.89343" lon="1.61607">
        <ele>108</ele>
        <time>2020-09-18T21:15:34Z</time>
      </trkpt>
      <trkpt lat="44.89404" lon="1.61605">
        <ele>109</ele>
        <time>2020-09-18T21:16:55Z</time>
      </trkpt>
      <trkpt lat="44.89487" lon="1.61609">
        <ele>108</ele>
        <time>2020-09-18T21:18:46Z</time>
      </trkpt>
      <trkpt lat="44.8962" lon="1.61603">
        <ele>110</ele>
        <time>2020-09-18T21:21:44Z</time>
      </trkpt>
      <trkpt lat="44.8963" lon="1.61615">
        <ele>110</ele>
        <time>2020-09-18T21:22:01Z</time>
      </trkpt>
      <trkpt lat="44.89636" lon="1.61813">
        <ele>114</ele>
        <time>2020-09-18T21:25:09Z</time>
      </trkpt>
      <trkpt lat="44.89583" lon="1.62075">
        <ele>128</ele>
        <time>2020-09-18T21:29:26Z</time>
      </trkpt>
      <trkpt lat="44.89671" lon="1.62137">
        <ele>122</ele>
        <time>2020-09-18T21:31:37Z</time>
      </trkpt>
      <trkpt lat="44.89719" lon="1.6216">
        <ele>122</ele>
        <time>2020-09-18T21:32:45Z</time>
      </trkpt>
      <trkpt lat="44.89784" lon="1.62152">
        <ele>121</ele>
        <time>2020-09-18T21:34:12Z</time>
      </trkpt>
      <trkpt lat="44.89828" lon="1.62156">
        <ele>123</ele>
        <time>2020-09-18T21:35:11Z</time>
      </trkpt>
      <trkpt lat="44.89867" lon="1.62167">
        <ele>123</ele>
        <time>2020-09-18T21:36:04Z</time>
      </trkpt>
      <trkpt lat="44.89881" lon="1.62122">
        <ele>124</ele>
        <time>2020-09-18T21:36:50Z</time>
      </trkpt>
      <trkpt lat="44.90009" lon="1.62163">
        <ele>128</ele>
        <time>2020-09-18T21:39:46Z</time>
      </trkpt>
      <trkpt lat="44.90038" lon="1.62184">
        <ele>130</ele>
        <time>2020-09-18T21:40:29Z</time>
      </trkpt>
      <trkpt lat="44.90077" lon="1.62092">
        <ele>135</ele>
        <time>2020-09-18T21:42:10Z</time>
      </trkpt>
      <trkpt lat="44.90094" lon="1.62057">
        <ele>135</ele>
        <time>2020-09-18T21:42:51Z</time>
      </trkpt>
      <trkpt lat="44.90103" lon="1.62047">
        <ele>134</ele>
        <time>2020-09-18T21:43:06Z</time>
      </trkpt>
      <trkpt lat="44.9014" lon="1.62087">
        <ele>135</ele>
        <time>2020-09-18T21:44:08Z</time>
      </trkpt>
      <trkpt lat="44.90156" lon="1.62118">
        <ele>134</ele>
        <time>2020-09-18T21:44:44Z</time>
      </trkpt>
      <trkpt lat="44.90176" lon="1.62135">
        <ele>134</ele>
        <time>2020-09-18T21:45:15Z</time>
      </trkpt>
      <trkpt lat="44.90197" lon="1.62137">
        <ele>133</ele>
        <time>2020-09-18T21:45:44Z</time>
      </trkpt>
      <trkpt lat="44.90261" lon="1.62184">
        <ele>131</ele>
        <time>2020-09-18T21:47:20Z</time>
      </trkpt>
      <trkpt lat="44.90336" lon="1.62193">
        <ele>129</ele>
        <time>2020-09-18T21:49:00Z</time>
      </trkpt>
      <trkpt lat="44.90412" lon="1.62216">
        <ele>130</ele>
        <time>2020-09-18T21:50:44Z</time>
      </trkpt>
      <trkpt lat="44.90433" lon="1.62251">
        <ele>129</ele>
        <time>2020-09-18T21:51:27Z</time>
      </trkpt>
      <trkpt lat="44.90488" lon="1.62212">
        <ele>121</ele>
        <time>2020-09-18T21:52:49Z</time>
      </trkpt>
      <trkpt lat="44.9051" lon="1.6218">
        <ele>115</ele>
        <time>2020-09-18T21:53:32Z</time>
      </trkpt>
      <trkpt lat="44.90614" lon="1.62263">
        <ele>114</ele>
        <time>2020-09-18T21:56:11Z</time>
      </trkpt>
      <trkpt lat="44.90621" lon="1.62319">
        <ele>114</ele>
        <time>2020-09-18T21:57:05Z</time>
      </trkpt>
      <trkpt lat="44.90629" lon="1.62358">
        <ele>114</ele>
        <time>2020-09-18T21:57:43Z</time>
      </trkpt>
      <trkpt lat="44.9067" lon="1.62384">
        <ele>114</ele>
        <time>2020-09-18T21:58:43Z</time>
      </trkpt>
      <trkpt lat="44.90699" lon="1.62409">
        <ele>114</ele>
        <time>2020-09-18T21:59:28Z</time>
      </trkpt>
      <trkpt lat="44.90711" lon="1.62448">
        <ele>113</ele>
        <time>2020-09-18T22:00:09Z</time>
      </trkpt>
      <trkpt lat="44.90711" lon="1.62489">
        <ele>113</ele>
        <time>2020-09-18T22:00:47Z</time>
      </trkpt>
      <trkpt lat="44.90703" lon="1.62527">
        <ele>114</ele>
        <time>2020-09-18T22:01:25Z</time>
      </trkpt>
      <trkpt lat="44.90671" lon="1.62598">
        <ele>119</ele>
        <time>2020-09-18T22:02:44Z</time>
      </trkpt>
      <trkpt lat="44.90767" lon="1.62755">
        <ele>107</ele>
        <time>2020-09-18T22:06:00Z</time>
      </trkpt>
      <trkpt lat="44.9083" lon="1.62869">
        <ele>109</ele>
        <time>2020-09-18T22:08:17Z</time>
      </trkpt>
      <trkpt lat="44.90869" lon="1.62778">
        <ele>107</ele>
        <time>2020-09-18T22:09:58Z</time>
      </trkpt>
      <trkpt lat="44.90921" lon="1.62714">
        <ele>109</ele>
        <time>2020-09-18T22:11:30Z</time>
      </trkpt>
      <trkpt lat="44.90956" lon="1.62684">
        <ele>111</ele>
        <time>2020-09-18T22:12:24Z</time>
      </trkpt>
      <trkpt lat="44.90988" lon="1.62663">
        <ele>112</ele>
        <time>2020-09-18T22:13:11Z</time>
      </trkpt>
      <trkpt lat="44.9107" lon="1.6265">
        <ele>123</ele>
        <time>2020-09-18T22:15:02Z</time>
      </trkpt>
      <trkpt lat="44.91099" lon="1.62598">
        <ele>135</ele>
        <time>2020-09-18T22:16:04Z</time>
      </trkpt>
      <trkpt lat="44.91061" lon="1.62474">
        <ele>131</ele>
        <time>2020-09-18T22:18:12Z</time>
      </trkpt>
      <trkpt lat="44.9105" lon="1.62366">
        <ele>149</ele>
        <time>2020-09-18T22:19:55Z</time>
      </trkpt>
      <trkpt lat="44.9103" lon="1.62328">
        <ele>152</ele>
        <time>2020-09-18T22:20:40Z</time>
      </trkpt>
      <trkpt lat="44.91006" lon="1.62261">
        <ele>151</ele>
        <time>2020-09-18T22:21:51Z</time>
      </trkpt>
      <trkpt lat="44.9098" lon="1.62221">
        <ele>142</ele>
        <time>2020-09-18T22:22:42Z</time>
      </trkpt>
      <trkpt lat="44.9095" lon="1.62075">
        <ele>139</ele>
        <time>2020-09-18T22:25:06Z</time>
      </trkpt>
      <trkpt lat="44.90898" lon="1.61948">
        <ele>133</ele>
        <time>2020-09-18T22:27:24Z</time>
      </trkpt>
      <trkpt lat="44.90852" lon="1.61873">
        <ele>124</ele>
        <time>2020-09-18T22:28:58Z</time>
      </trkpt>
      <trkpt lat="44.90833" lon="1.61828">
        <ele>121</ele>
        <time>2020-09-18T22:29:48Z</time>
      </trkpt>
      <trkpt lat="44.90676" lon="1.6159">
        <ele>137</ele>
        <time>2020-09-18T22:34:55Z</time>
      </trkpt>
      <trkpt lat="44.90614" lon="1.61487">
        <ele>132</ele>
        <time>2020-09-18T22:37:03Z</time>
      </trkpt>
      <trkpt lat="44.90576" lon="1.61442">
        <ele>129</ele>
        <time>2020-09-18T22:38:09Z</time>
      </trkpt>
      <trkpt lat="44.905" lon="1.61339">
        <ele>131</ele>
        <time>2020-09-18T22:40:29Z</time>
      </trkpt>
      <trkpt lat="44.90451" lon="1.61261">
        <ele>134</ele>
        <time>2020-09-18T22:42:08Z</time>
      </trkpt>
      <trkpt lat="44.90442" lon="1.61229">
        <ele>140</ele>
        <time>2020-09-18T22:42:41Z</time>
      </trkpt>
      <trkpt lat="44.90425" lon="1.61221">
        <ele>138</ele>
        <time>2020-09-18T22:43:04Z</time>
      </trkpt>
      <trkpt lat="44.90389" lon="1.61193">
        <ele>143</ele>
        <time>2020-09-18T22:43:59Z</time>
      </trkpt>
      <trkpt lat="44.90361" lon="1.61199">
        <ele>134</ele>
        <time>2020-09-18T22:44:37Z</time>
      </trkpt>
      <trkpt lat="44.90345" lon="1.6118">
        <ele>138</ele>
        <time>2020-09-18T22:45:05Z</time>
      </trkpt>
      <trkpt lat="44.90316" lon="1.61165">
        <ele>136</ele>
        <time>2020-09-18T22:45:46Z</time>
      </trkpt>
      <trkpt lat="44.90281" lon="1.61128">
        <ele>139</ele>
        <time>2020-09-18T22:46:45Z</time>
      </trkpt>
      <trkpt lat="44.90149" lon="1.61025">
        <ele>142</ele>
        <time>2020-09-18T22:50:06Z</time>
      </trkpt>
      <trkpt lat="44.90211" lon="1.61012">
        <ele>155</ele>
        <time>2020-09-18T22:51:29Z</time>
      </trkpt>
      <trkpt lat="44.90249" lon="1.61012">
        <ele>161</ele>
        <time>2020-09-18T22:52:20Z</time>
      </trkpt>
      <trkpt lat="44.90295" lon="1.6104">
        <ele>165</ele>
        <time>2020-09-18T22:53:27Z</time>
      </trkpt>
      <trkpt lat="44.90351" lon="1.61062">
        <ele>174</ele>
        <time>2020-09-18T22:54:45Z</time>
      </trkpt>
      <trkpt lat="44.90399" lon="1.61055">
        <ele>184</ele>
        <time>2020-09-18T22:55:49Z</time>
      </trkpt>
      <trkpt lat="44.90456" lon="1.61062">
        <ele>190</ele>
        <time>2020-09-18T22:57:05Z</time>
      </trkpt>
      <trkpt lat="44.90483" lon="1.61058">
        <ele>193</ele>
        <time>2020-09-18T22:57:42Z</time>
      </trkpt>
      <trkpt lat="44.90547" lon="1.6107">
        <ele>196</ele>
        <time>2020-09-18T22:59:08Z</time>
      </trkpt>
      <trkpt lat="44.9062" lon="1.6107">
        <ele>202</ele>
        <time>2020-09-18T23:00:45Z</time>
      </trkpt>
      <trkpt lat="44.90664" lon="1.61077">
        <ele>204</ele>
        <time>2020-09-18T23:01:44Z</time>
      </trkpt>
      <trkpt lat="44.90782" lon="1.61148">
        <ele>210</ele>
        <time>2020-09-18T23:04:35Z</time>
      </trkpt>
      <trkpt lat="44.90831" lon="1.61201">
        <ele>215</ele>
        <time>2020-09-18T23:05:58Z</time>
      </trkpt>
      <trkpt lat="44.90922" lon="1.61253">
        <ele>211</ele>
        <time>2020-09-18T23:08:09Z</time>
      </trkpt>
      <trkpt lat="44.90959" lon="1.61264">
        <ele>209</ele>
        <time>2020-09-18T23:08:59Z</time>
      </trkpt>
      <trkpt lat="44.91004" lon="1.61268">
        <ele>208</ele>
        <time>2020-09-18T23:09:59Z</time>
      </trkpt>
      <trkpt lat="44.91089" lon="1.6127">
        <ele>214</ele>
        <time>2020-09-18T23:11:53Z</time>
      </trkpt>
      <trkpt lat="44.91123" lon="1.61259">
        <ele>215</ele>
        <time>2020-09-18T23:12:39Z</time>
      </trkpt>
      <trkpt lat="44.91252" lon="1.61264">
        <ele>215</ele>
        <time>2020-09-18T23:15:32Z</time>
      </trkpt>
      <trkpt lat="44.91302" lon="1.61261">
        <ele>217</ele>
        <time>2020-09-18T23:16:38Z</time>
      </trkpt>
      <trkpt lat="44.91481" lon="1.6121">
        <ele>228</ele>
        <time>2020-09-18T23:20:42Z</time>
      </trkpt>
      <trkpt lat="44.91571" lon="1.61195">
        <ele>234</ele>
        <time>2020-09-18T23:22:43Z</time>
      </trkpt>
      <trkpt lat="44.91778" lon="1.61178">
        <ele>245</ele>
        <time>2020-09-18T23:27:20Z</time>
      </trkpt>
      <trkpt lat="44.91908" lon="1.6113">
        <ele>250</ele>
        <time>2020-09-18T23:30:19Z</time>
      </trkpt>
      <trkpt lat="44.91946" lon="1.61098">
        <ele>251</ele>
        <time>2020-09-18T23:31:18Z</time>
      </trkpt>
      <trkpt lat="44.91997" lon="1.61079">
        <ele>252</ele>
        <time>2020-09-18T23:32:28Z</time>
      </trkpt>
      <trkpt lat="44.92155" lon="1.61047">
        <ele>247</ele>
        <time>2020-09-18T23:36:01Z</time>
      </trkpt>
      <trkpt lat="44.92272" lon="1.6095">
        <ele>248</ele>
        <time>2020-09-18T23:39:02Z</time>
      </trkpt>
      <trkpt lat="44.92305" lon="1.60888">
        <ele>248</ele>
        <time>2020-09-18T23:40:16Z</time>
      </trkpt>
      <trkpt lat="44.92325" lon="1.60858">
        <ele>247</ele>
        <time>2020-09-18T23:40:55Z</time>
      </trkpt>
      <trkpt lat="44.92349" lon="1.60847">
        <ele>247</ele>
        <time>2020-09-18T23:41:28Z</time>
      </trkpt>
      <trkpt lat="44.92439" lon="1.60832">
        <ele>249</ele>
        <time>2020-09-18T23:43:29Z</time>
      </trkpt>
      <trkpt lat="44.92484" lon="1.60789">
        <ele>248</ele>
        <time>2020-09-18T23:44:42Z</time>
      </trkpt>
      <trkpt lat="44.92642" lon="1.60624">
        <ele>253</ele>
        <time>2020-09-18T23:49:04Z</time>
      </trkpt>
      <trkpt lat="44.92679" lon="1.60594">
        <ele>253</ele>
        <time>2020-09-18T23:50:01Z</time>
      </trkpt>
      <trkpt lat="44.92797" lon="1.60553">
        <ele>258</ele>
        <time>2020-09-18T23:52:43Z</time>
      </trkpt>
      <trkpt lat="44.92843" lon="1.6054">
        <ele>258</ele>
        <time>2020-09-18T23:53:46Z</time>
      </trkpt>
      <trkpt lat="44.92875" lon="1.60521">
        <ele>258</ele>
        <time>2020-09-18T23:54:32Z</time>
      </trkpt>
      <trkpt lat="44.92911" lon="1.60489">
        <ele>259</ele>
        <time>2020-09-18T23:55:29Z</time>
      </trkpt>
      <trkpt lat="44.92925" lon="1.60472">
        <ele>258</ele>
        <time>2020-09-18T23:55:53Z</time>
      </trkpt>
      <trkpt lat="44.92946" lon="1.60459">
        <ele>256</ele>
        <time>2020-09-18T23:56:24Z</time>
      </trkpt>
      <trkpt lat="44.9297" lon="1.6047">
        <ele>254</ele>
        <time>2020-09-18T23:56:58Z</time>
      </trkpt>
      <trkpt lat="44.93008" lon="1.60478">
        <ele>249</ele>
        <time>2020-09-18T23:57:49Z</time>
      </trkpt>
      <trkpt lat="44.93107" lon="1.60478">
        <ele>240</ele>
        <time>2020-09-19T00:00:01Z</time>
      </trkpt>
      <trkpt lat="44.93128" lon="1.60497">
        <ele>238</ele>
        <time>2020-09-19T00:00:34Z</time>
      </trkpt>
      <trkpt lat="44.93137" lon="1.60523">
        <ele>238</ele>
        <time>2020-09-19T00:01:02Z</time>
      </trkpt>
      <trkpt lat="44.93169" lon="1.60564">
        <ele>238</ele>
        <time>2020-09-19T00:01:59Z</time>
      </trkpt>
      <trkpt lat="44.93189" lon="1.60581">
        <ele>237</ele>
        <time>2020-09-19T00:02:31Z</time>
      </trkpt>
      <trkpt lat="44.93248" lon="1.60676">
        <ele>233</ele>
        <time>2020-09-19T00:04:30Z</time>
      </trkpt>
      <trkpt lat="44.93235" lon="1.60691">
        <ele>234</ele>
        <time>2020-09-19T00:04:52Z</time>
      </trkpt>
      <trkpt lat="44.93265" lon="1.60721">
        <ele>230</ele>
        <time>2020-09-19T00:05:41Z</time>
      </trkpt>
      <trkpt lat="44.93321" lon="1.60744">
        <ele>226</ele>
        <time>2020-09-19T00:06:59Z</time>
      </trkpt>
      <trkpt lat="44.9332" lon="1.60721">
        <ele>226</ele>
        <time>2020-09-19T00:07:21Z</time>
      </trkpt>
      <trkpt lat="44.93379" lon="1.60742">
        <ele>225</ele>
        <time>2020-09-19T00:08:42Z</time>
      </trkpt>
      <trkpt lat="44.93443" lon="1.60783">
        <ele>226</ele>
        <time>2020-09-19T00:10:16Z</time>
      </trkpt>
      <trkpt lat="44.93567" lon="1.60834">
        <ele>232</ele>
        <time>2020-09-19T00:13:08Z</time>
      </trkpt>
      <trkpt lat="44.93567" lon="1.60905">
        <ele>232</ele>
        <time>2020-09-19T00:14:15Z</time>
      </trkpt>
      <trkpt lat="44.9357" lon="1.60942">
        <ele>231</ele>
        <time>2020-09-19T00:14:51Z</time>
      </trkpt>
      <trkpt lat="44.9358" lon="1.60978">
        <ele>231</ele>
        <time>2020-09-19T00:15:27Z</time>
      </trkpt>
      <trkpt lat="44.93631" lon="1.61105">
        <ele>229</ele>
        <time>2020-09-19T00:17:45Z</time>
      </trkpt>
      <trkpt lat="44.93654" lon="1.61141">
        <ele>228</ele>
        <time>2020-09-19T00:18:31Z</time>
      </trkpt>
      <trkpt lat="44.93697" lon="1.61173">
        <ele>227</ele>
        <time>2020-09-19T00:19:36Z</time>
      </trkpt>
      <trkpt lat="44.93718" lon="1.61171">
        <ele>227</ele>
        <time>2020-09-19T00:20:04Z</time>
      </trkpt>
      <trkpt lat="44.93719" lon="1.61145">
        <ele>227</ele>
        <time>2020-09-19T00:20:28Z</time>
      </trkpt>
      <trkpt lat="44.93757" lon="1.61178">
        <ele>226</ele>
        <time>2020-09-19T00:21:28Z</time>
      </trkpt>
      <trkpt lat="44.9378" lon="1.61206">
        <ele>225</ele>
        <time>2020-09-19T00:22:08Z</time>
      </trkpt>
      <trkpt lat="44.9382" lon="1.61227">
        <ele>223</ele>
        <time>2020-09-19T00:23:05Z</time>
      </trkpt>
      <trkpt lat="44.93862" lon="1.61214">
        <ele>221</ele>
        <time>2020-09-19T00:24:03Z</time>
      </trkpt>
      <trkpt lat="44.93911" lon="1.61188">
        <ele>221</ele>
        <time>2020-09-19T00:25:13Z</time>
      </trkpt>
      <trkpt lat="44.94" lon="1.61118">
        <ele>224</ele>
        <time>2020-09-19T00:27:28Z</time>
      </trkpt>
      <trkpt lat="44.94028" lon="1.61094">
        <ele>225</ele>
        <time>2020-09-19T00:28:12Z</time>
      </trkpt>
      <trkpt lat="44.94104" lon="1.60991">
        <ele>231</ele>
        <time>2020-09-19T00:30:33Z</time>
      </trkpt>
      <trkpt lat="44.94201" lon="1.60888">
        <ele>231</ele>
        <time>2020-09-19T00:33:15Z</time>
      </trkpt>
      <trkpt lat="44.94234" lon="1.60862">
        <ele>231</ele>
        <time>2020-09-19T00:34:05Z</time>
      </trkpt>
      <trkpt lat="44.94262" lon="1.60856">
        <ele>231</ele>
        <time>2020-09-19T00:34:43Z</time>
      </trkpt>
      <trkpt lat="44.94371" lon="1.60804">
        <ele>234</ele>
        <time>2020-09-19T00:37:16Z</time>
      </trkpt>
      <trkpt lat="44.94369" lon="1.60776">
        <ele>236</ele>
        <time>2020-09-19T00:37:43Z</time>
      </trkpt>
      <trkpt lat="44.94398" lon="1.60738">
        <ele>239</ele>
        <time>2020-09-19T00:38:36Z</time>
      </trkpt>
      <trkpt lat="44.94456" lon="1.60738">
        <ele>240</ele>
        <time>2020-09-19T00:39:53Z</time>
      </trkpt>
      <trkpt lat="44.94585" lon="1.60671">
        <ele>250</ele>
        <time>2020-09-19T00:42:57Z</time>
      </trkpt>
      <trkpt lat="44.94655" lon="1.60671">
        <ele>255</ele>
        <time>2020-09-19T00:44:30Z</time>
      </trkpt>
      <trkpt lat="44.94694" lon="1.60667">
        <ele>258</ele>
        <time>2020-09-19T00:45:22Z</time>
      </trkpt>
      <trkpt lat="44.94716" lon="1.6065">
        <ele>260</ele>
        <time>2020-09-19T00:45:56Z</time>
      </trkpt>
      <trkpt lat="44.94751" lon="1.60603">
        <ele>265</ele>
        <time>2020-09-19T00:47:00Z</time>
      </trkpt>
      <trkpt lat="44.94795" lon="1.60555">
        <ele>267</ele>
        <time>2020-09-19T00:48:14Z</time>
      </trkpt>
      <trkpt lat="44.94846" lon="1.60519">
        <ele>270</ele>
        <time>2020-09-19T00:49:30Z</time>
      </trkpt>
      <trkpt lat="44.94887" lon="1.60497">
        <ele>272</ele>
        <time>2020-09-19T00:50:29Z</time>
      </trkpt>
      <trkpt lat="44.94919" lon="1.60491">
        <ele>273</ele>
        <time>2020-09-19T00:51:12Z</time>
      </trkpt>
      <trkpt lat="44.94951" lon="1.60497">
        <ele>273</ele>
        <time>2020-09-19T00:51:55Z</time>
      </trkpt>
      <trkpt lat="44.95065" lon="1.60598">
        <ele>269</ele>
        <time>2020-09-19T00:54:55Z</time>
      </trkpt>
      <trkpt lat="44.95103" lon="1.60613">
        <ele>271</ele>
        <time>2020-09-19T00:55:47Z</time>
      </trkpt>
      <trkpt lat="44.95126" lon="1.60607">
        <ele>272</ele>
        <time>2020-09-19T00:56:18Z</time>
      </trkpt>
      <trkpt lat="44.9515" lon="1.60568">
        <ele>272</ele>
        <time>2020-09-19T00:57:07Z</time>
      </trkpt>
      <trkpt lat="44.95176" lon="1.60515">
        <ele>272</ele>
        <time>2020-09-19T00:58:08Z</time>
      </trkpt>
      <trkpt lat="44.95209" lon="1.60427">
        <ele>271</ele>
        <time>2020-09-19T00:59:42Z</time>
      </trkpt>
      <trkpt lat="44.95278" lon="1.60324">
        <ele>271</ele>
        <time>2020-09-19T01:01:56Z</time>
      </trkpt>
      <trkpt lat="44.95312" lon="1.60283">
        <ele>266</ele>
        <time>2020-09-19T01:02:56Z</time>
      </trkpt>
      <trkpt lat="44.95347" lon="1.60266">
        <ele>261</ele>
        <time>2020-09-19T01:03:45Z</time>
      </trkpt>
      <trkpt lat="44.95381" lon="1.60238">
        <ele>259</ele>
        <time>2020-09-19T01:04:38Z</time>
      </trkpt>
      <trkpt lat="44.95434" lon="1.60146">
        <ele>250</ele>
        <time>2020-09-19T01:06:30Z</time>
      </trkpt>
      <trkpt lat="44.95461" lon="1.6012">
        <ele>246</ele>
        <time>2020-09-19T01:07:13Z</time>
      </trkpt>
      <trkpt lat="44.95549" lon="1.6006">
        <ele>234</ele>
        <time>2020-09-19T01:09:24Z</time>
      </trkpt>
      <trkpt lat="44.95606" lon="1.60006">
        <ele>222</ele>
        <time>2020-09-19T01:10:55Z</time>
      </trkpt>
      <trkpt lat="44.95659" lon="1.59944">
        <ele>214</ele>
        <time>2020-09-19T01:12:27Z</time>
      </trkpt>
      <trkpt lat="44.95686" lon="1.5995">
        <ele>214</ele>
        <time>2020-09-19T01:13:04Z</time>
      </trkpt>
      <trkpt lat="44.95704" lon="1.59963">
        <ele>214</ele>
        <time>2020-09-19T01:13:31Z</time>
      </trkpt>
      <trkpt lat="44.95741" lon="1.60019">
        <ele>212</ele>
        <time>2020-09-19T01:14:43Z</time>
      </trkpt>
      <trkpt lat="44.95803" lon="1.60047">
        <ele>209</ele>
        <time>2020-09-19T01:16:10Z</time>
      </trkpt>
      <trkpt lat="44.95839" lon="1.60083">
        <ele>205</ele>
        <time>2020-09-19T01:17:09Z</time>
      </trkpt>
      <trkpt lat="44.9592" lon="1.60195">
        <ele>201</ele>
        <time>2020-09-19T01:19:40Z</time>
      </trkpt>
      <trkpt lat="44.95962" lon="1.60244">
        <ele>200</ele>
        <time>2020-09-19T01:20:53Z</time>
      </trkpt>
      <trkpt lat="44.95994" lon="1.60255">
        <ele>197</ele>
        <time>2020-09-19T01:21:36Z</time>
      </trkpt>
      <trkpt lat="44.96015" lon="1.60287">
        <ele>197</ele>
        <time>2020-09-19T01:22:18Z</time>
      </trkpt>
      <trkpt lat="44.96046" lon="1.60455">
        <ele>190</ele>
        <time>2020-09-19T01:25:02Z</time>
      </trkpt>
      <trkpt lat="44.96146" lon="1.60575">
        <ele>182</ele>
        <time>2020-09-19T01:27:57Z</time>
      </trkpt>
      <trkpt lat="44.96217" lon="1.60646">
        <ele>178</ele>
        <time>2020-09-19T01:29:53Z</time>
      </trkpt>
      <trkpt lat="44.96268" lon="1.60691">
        <ele>172</ele>
        <time>2020-09-19T01:31:13Z</time>
      </trkpt>
      <trkpt lat="44.96398" lon="1.60749">
        <ele>165</ele>
        <time>2020-09-19T01:34:15Z</time>
      </trkpt>
      <trkpt lat="44.96425" lon="1.60714">
        <ele>170</ele>
        <time>2020-09-19T01:35:04Z</time>
      </trkpt>
      <trkpt lat="44.96389" lon="1.60656">
        <ele>168</ele>
        <time>2020-09-19T01:36:17Z</time>
      </trkpt>
      <trkpt lat="44.96384" lon="1.60628">
        <ele>170</ele>
        <time>2020-09-19T01:36:44Z</time>
      </trkpt>
      <trkpt lat="44.96479" lon="1.60725">
        <ele>180</ele>
        <time>2020-09-19T01:39:20Z</time>
      </trkpt>
      <trkpt lat="44.96532" lon="1.60746">
        <ele>186</ele>
        <time>2020-09-19T01:40:34Z</time>
      </trkpt>
      <trkpt lat="44.96576" lon="1.6077">
        <ele>190</ele>
        <time>2020-09-19T01:41:37Z</time>
      </trkpt>
      <trkpt lat="44.96602" lon="1.60813">
        <ele>186</ele>
        <time>2020-09-19T01:42:30Z</time>
      </trkpt>
      <trkpt lat="44.96618" lon="1.60826">
        <ele>186</ele>
        <time>2020-09-19T01:42:55Z</time>
      </trkpt>
      <trkpt lat="44.96641" lon="1.60819">
        <ele>191</ele>
        <time>2020-09-19T01:43:26Z</time>
      </trkpt>
      <trkpt lat="44.96687" lon="1.60729">
        <ele>210</ele>
        <time>2020-09-19T01:45:11Z</time>
      </trkpt>
      <trkpt lat="44.9672" lon="1.60688">
        <ele>214</ele>
        <time>2020-09-19T01:46:10Z</time>
      </trkpt>
      <trkpt lat="44.96734" lon="1.60686">
        <ele>213</ele>
        <time>2020-09-19T01:46:28Z</time>
      </trkpt>
      <trkpt lat="44.96749" lon="1.60693">
        <ele>211</ele>
        <time>2020-09-19T01:46:49Z</time>
      </trkpt>
      <trkpt lat="44.96755" lon="1.60718">
        <ele>211</ele>
        <time>2020-09-19T01:47:14Z</time>
      </trkpt>
      <trkpt lat="44.96735" lon="1.60796">
        <ele>207</ele>
        <time>2020-09-19T01:48:33Z</time>
      </trkpt>
      <trkpt lat="44.96747" lon="1.60837">
        <ele>208</ele>
        <time>2020-09-19T01:49:15Z</time>
      </trkpt>
      <trkpt lat="44.96764" lon="1.60802">
        <ele>212</ele>
        <time>2020-09-19T01:49:55Z</time>
      </trkpt>
      <trkpt lat="44.96799" lon="1.60776">
        <ele>219</ele>
        <time>2020-09-19T01:50:47Z</time>
      </trkpt>
      <trkpt lat="44.96835" lon="1.60738">
        <ele>223</ele>
        <time>2020-09-19T01:51:47Z</time>
      </trkpt>
      <trkpt lat="44.96887" lon="1.60669">
        <ele>230</ele>
        <time>2020-09-19T01:53:23Z</time>
      </trkpt>
      <trkpt lat="44.96934" lon="1.60594">
        <ele>234</ele>
        <time>2020-09-19T01:54:57Z</time>
      </trkpt>
      <trkpt lat="44.96977" lon="1.60442">
        <ele>248</ele>
        <time>2020-09-19T01:57:32Z</time>
      </trkpt>
      <trkpt lat="44.96978" lon="1.60401">
        <ele>251</ele>
        <time>2020-09-19T01:58:10Z</time>
      </trkpt>
      <trkpt lat="44.96996" lon="1.60334">
        <ele>255</ele>
        <time>2020-09-19T01:59:18Z</time>
      </trkpt>
      <trkpt lat="44.97001" lon="1.60274">
        <ele>261</ele>
        <time>2020-09-19T02:00:15Z</time>
      </trkpt>
      <trkpt lat="44.97048" lon="1.60173">
        <ele>269</ele>
        <time>2020-09-19T02:02:09Z</time>
      </trkpt>
      <trkpt lat="44.97089" lon="1.60015">
        <ele>275</ele>
        <time>2020-09-19T02:04:48Z</time>
      </trkpt>
      <trkpt lat="44.97131" lon="1.59877">
        <ele>282</ele>
        <time>2020-09-19T02:07:10Z</time>
      </trkpt>
      <trkpt lat="44.97143" lon="1.59822">
        <ele>282</ele>
        <time>2020-09-19T02:08:04Z</time>
      </trkpt>
      <trkpt lat="44.9716" lon="1.59785">
        <ele>282</ele>
        <time>2020-09-19T02:08:46Z</time>
      </trkpt>
      <trkpt lat="44.97175" lon="1.59738">
        <ele>280</ele>
        <time>2020-09-19T02:09:35Z</time>
      </trkpt>
      <trkpt lat="44.97192" lon="1.59729">
        <ele>280</ele>
        <time>2020-09-19T02:09:59Z</time>
      </trkpt>
      <trkpt lat="44.97216" lon="1.59738">
        <ele>281</ele>
        <time>2020-09-19T02:10:32Z</time>
      </trkpt>
      <trkpt lat="44.97236" lon="1.59725">
        <ele>281</ele>
        <time>2020-09-19T02:11:01Z</time>
      </trkpt>
      <trkpt lat="44.9725" lon="1.59693">
        <ele>281</ele>
        <time>2020-09-19T02:11:37Z</time>
      </trkpt>
      <trkpt lat="44.9725" lon="1.59652">
        <ele>279</ele>
        <time>2020-09-19T02:12:16Z</time>
      </trkpt>
      <trkpt lat="44.97239" lon="1.59592">
        <ele>276</ele>
        <time>2020-09-19T02:13:14Z</time>
      </trkpt>
      <trkpt lat="44.97247" lon="1.59571">
        <ele>276</ele>
        <time>2020-09-19T02:13:37Z</time>
      </trkpt>
      <trkpt lat="44.97291" lon="1.59558">
        <ele>276</ele>
        <time>2020-09-19T02:14:37Z</time>
      </trkpt>
      <trkpt lat="44.97335" lon="1.5954">
        <ele>276</ele>
        <time>2020-09-19T02:15:38Z</time>
      </trkpt>
      <trkpt lat="44.97399" lon="1.59508">
        <ele>272</ele>
        <time>2020-09-19T02:17:08Z</time>
      </trkpt>
      <trkpt lat="44.97423" lon="1.5948">
        <ele>270</ele>
        <time>2020-09-19T02:17:50Z</time>
      </trkpt>
      <trkpt lat="44.97452" lon="1.59461">
        <ele>267</ele>
        <time>2020-09-19T02:18:33Z</time>
      </trkpt>
      <trkpt lat="44.97538" lon="1.59427">
        <ele>261</ele>
        <time>2020-09-19T02:20:32Z</time>
      </trkpt>
      <trkpt lat="44.9757" lon="1.59392">
        <ele>257</ele>
        <time>2020-09-19T02:21:26Z</time>
      </trkpt>
      <trkpt lat="44.97619" lon="1.59292">
        <ele>249</ele>
        <time>2020-09-19T02:23:21Z</time>
      </trkpt>
      <trkpt lat="44.97652" lon="1.59257">
        <ele>245</ele>
        <time>2020-09-19T02:24:16Z</time>
      </trkpt>
      <trkpt lat="44.97685" lon="1.59246">
        <ele>244</ele>
        <time>2020-09-19T02:25:01Z</time>
      </trkpt>
      <trkpt lat="44.97707" lon="1.59249">
        <ele>245</ele>
        <time>2020-09-19T02:25:30Z</time>
      </trkpt>
      <trkpt lat="44.97772" lon="1.59324">
        <ele>249</ele>
        <time>2020-09-19T02:27:22Z</time>
      </trkpt>
      <trkpt lat="44.97798" lon="1.59377">
        <ele>253</ele>
        <time>2020-09-19T02:28:23Z</time>
      </trkpt>
      <trkpt lat="44.97936" lon="1.59502">
        <ele>266</ele>
        <time>2020-09-19T02:32:02Z</time>
      </trkpt>
      <trkpt lat="44.97956" lon="1.59513">
        <ele>266</ele>
        <time>2020-09-19T02:32:31Z</time>
      </trkpt>
      <trkpt lat="44.98015" lon="1.59491">
        <ele>270</ele>
        <time>2020-09-19T02:33:52Z</time>
      </trkpt>
      <trkpt lat="44.9806" lon="1.59483">
        <ele>275</ele>
        <time>2020-09-19T02:34:52Z</time>
      </trkpt>
      <trkpt lat="44.98092" lon="1.59489">
        <ele>278</ele>
        <time>2020-09-19T02:35:36Z</time>
      </trkpt>
      <trkpt lat="44.982" lon="1.59493">
        <ele>285</ele>
        <time>2020-09-19T02:38:00Z</time>
      </trkpt>
      <trkpt lat="44.98244" lon="1.5948">
        <ele>287</ele>
        <time>2020-09-19T02:39:00Z</time>
      </trkpt>
      <trkpt lat="44.98282" lon="1.59463">
        <ele>291</ele>
        <time>2020-09-19T02:39:53Z</time>
      </trkpt>
      <trkpt lat="44.98317" lon="1.59457">
        <ele>294</ele>
        <time>2020-09-19T02:40:40Z</time>
      </trkpt>
      <trkpt lat="44.9837" lon="1.59463">
        <ele>295</ele>
        <time>2020-09-19T02:41:51Z</time>
      </trkpt>
      <trkpt lat="44.98514" lon="1.59457">
        <ele>290</ele>
        <time>2020-09-19T02:45:03Z</time>
      </trkpt>
      <trkpt lat="44.98573" lon="1.5944">
        <ele>285</ele>
        <time>2020-09-19T02:46:23Z</time>
      </trkpt>
      <trkpt lat="44.98657" lon="1.59386">
        <ele>279</ele>
        <time>2020-09-19T02:48:27Z</time>
      </trkpt>
      <trkpt lat="44.98681" lon="1.59384">
        <ele>279</ele>
        <time>2020-09-19T02:48:59Z</time>
      </trkpt>
      <trkpt lat="44.98692" lon="1.59373">
        <ele>279</ele>
        <time>2020-09-19T02:49:17Z</time>
      </trkpt>
      <trkpt lat="44.98807" lon="1.59216">
        <ele>288</ele>
        <time>2020-09-19T02:52:50Z</time>
      </trkpt>
      <trkpt lat="44.9898" lon="1.59068">
        <ele>296</ele>
        <time>2020-09-19T02:57:20Z</time>
      </trkpt>
      <trkpt lat="44.99185" lon="1.58922">
        <ele>314</ele>
        <time>2020-09-19T03:02:26Z</time>
      </trkpt>
      <trkpt lat="44.99206" lon="1.58916">
        <ele>315</ele>
        <time>2020-09-19T03:02:55Z</time>
      </trkpt>
      <trkpt lat="44.99255" lon="1.58912">
        <ele>315</ele>
        <time>2020-09-19T03:04:00Z</time>
      </trkpt>
      <trkpt lat="44.99287" lon="1.58888">
        <ele>314</ele>
        <time>2020-09-19T03:04:49Z</time>
      </trkpt>
      <trkpt lat="44.99302" lon="1.5885">
        <ele>314</ele>
        <time>2020-09-19T03:05:30Z</time>
      </trkpt>
      <trkpt lat="44.99337" lon="1.5885">
        <ele>313</ele>
        <time>2020-09-19T03:06:16Z</time>
      </trkpt>
      <trkpt lat="44.99352" lon="1.58766">
        <ele>313</ele>
        <time>2020-09-19T03:07:38Z</time>
      </trkpt>
      <trkpt lat="44.99372" lon="1.58738">
        <ele>313</ele>
        <time>2020-09-19T03:08:16Z</time>
      </trkpt>
      <trkpt lat="44.99379" lon="1.5871">
        <ele>312</ele>
        <time>2020-09-19T03:08:44Z</time>
      </trkpt>
      <trkpt lat="44.9944" lon="1.58686">
        <ele>312</ele>
        <time>2020-09-19T03:10:08Z</time>
      </trkpt>
      <trkpt lat="44.99499" lon="1.58652">
        <ele>312</ele>
        <time>2020-09-19T03:11:33Z</time>
      </trkpt>
      <trkpt lat="44.99554" lon="1.58607">
        <ele>311</ele>
        <time>2020-09-19T03:12:58Z</time>
      </trkpt>
      <trkpt lat="44.99599" lon="1.58566">
        <ele>312</ele>
        <time>2020-09-19T03:14:09Z</time>
      </trkpt>
      <trkpt lat="44.99667" lon="1.58519">
        <ele>310</ele>
        <time>2020-09-19T03:15:50Z</time>
      </trkpt>
      <trkpt lat="44.99693" lon="1.58506">
        <ele>310</ele>
        <time>2020-09-19T03:16:27Z</time>
      </trkpt>
      <trkpt lat="44.99648" lon="1.58573">
        <ele>308</ele>
        <time>2020-09-19T03:17:54Z</time>
      </trkpt>
      <trkpt lat="44.99646" lon="1.58699">
        <ele>293</ele>
        <time>2020-09-19T03:19:53Z</time>
      </trkpt>
      <trkpt lat="44.99669" lon="1.58762">
        <ele>285</ele>
        <time>2020-09-19T03:21:00Z</time>
      </trkpt>
      <trkpt lat="44.99698" lon="1.58882">
        <ele>275</ele>
        <time>2020-09-19T03:23:00Z</time>
      </trkpt>
      <trkpt lat="44.99693" lon="1.58931">
        <ele>272</ele>
        <time>2020-09-19T03:23:47Z</time>
      </trkpt>
      <trkpt lat="44.99714" lon="1.58961">
        <ele>268</ele>
        <time>2020-09-19T03:24:27Z</time>
      </trkpt>
      <trkpt lat="44.99755" lon="1.58989">
        <ele>264</ele>
        <time>2020-09-19T03:25:27Z</time>
      </trkpt>
      <trkpt lat="44.99763" lon="1.5901">
        <ele>262</ele>
        <time>2020-09-19T03:25:50Z</time>
      </trkpt>
      <trkpt lat="44.99798" lon="1.58961">
        <ele>264</ele>
        <time>2020-09-19T03:26:55Z</time>
      </trkpt>
      <trkpt lat="44.99827" lon="1.58895">
        <ele>268</ele>
        <time>2020-09-19T03:28:09Z</time>
      </trkpt>
      <trkpt lat="44.99862" lon="1.5883">
        <ele>271</ele>
        <time>2020-09-19T03:29:26Z</time>
      </trkpt>
      <trkpt lat="44.999" lon="1.58751">
        <ele>277</ele>
        <time>2020-09-19T03:30:56Z</time>
      </trkpt>
      <trkpt lat="44.99931" lon="1.58721">
        <ele>281</ele>
        <time>2020-09-19T03:31:46Z</time>
      </trkpt>
      <trkpt lat="44.99966" lon="1.58676">
        <ele>290</ele>
        <time>2020-09-19T03:32:49Z</time>
      </trkpt>
      <trkpt lat="45.00006" lon="1.58671">
        <ele>294</ele>
        <time>2020-09-19T03:33:43Z</time>
      </trkpt>
      <trkpt lat="45.00044" lon="1.58633">
        <ele>299</ele>
        <time>2020-09-19T03:34:45Z</time>
      </trkpt>
      <trkpt lat="45.0008" lon="1.58613">
        <ele>302</ele>
        <time>2020-09-19T03:35:37Z</time>
      </trkpt>
      <trkpt lat="45.001" lon="1.58586">
        <ele>302</ele>
        <time>2020-09-19T03:36:14Z</time>
      </trkpt>
      <trkpt lat="45.00109" lon="1.58538">
        <ele>302</ele>
        <time>2020-09-19T03:37:00Z</time>
      </trkpt>
      <trkpt lat="45.00118" lon="1.58504">
        <ele>300</ele>
        <time>2020-09-19T03:37:35Z</time>
      </trkpt>
      <trkpt lat="45.00121" lon="1.58435">
        <ele>297</ele>
        <time>2020-09-19T03:38:40Z</time>
      </trkpt>
      <trkpt lat="45.00115" lon="1.58403">
        <ele>297</ele>
        <time>2020-09-19T03:39:11Z</time>
      </trkpt>
      <trkpt lat="45.00129" lon="1.58343">
        <ele>295</ele>
        <time>2020-09-19T03:40:11Z</time>
      </trkpt>
      <trkpt lat="45.00144" lon="1.58305">
        <ele>297</ele>
        <time>2020-09-19T03:40:52Z</time>
      </trkpt>
      <trkpt lat="45.00205" lon="1.58238">
        <ele>299</ele>
        <time>2020-09-19T03:42:35Z</time>
      </trkpt>
      <trkpt lat="45.00255" lon="1.58227">
        <ele>296</ele>
        <time>2020-09-19T03:43:42Z</time>
      </trkpt>
      <trkpt lat="45.00279" lon="1.58208">
        <ele>298</ele>
        <time>2020-09-19T03:44:19Z</time>
      </trkpt>
      <trkpt lat="45.00327" lon="1.58206">
        <ele>298</ele>
        <time>2020-09-19T03:45:23Z</time>
      </trkpt>
      <trkpt lat="45.00364" lon="1.58208">
        <ele>299</ele>
        <time>2020-09-19T03:46:13Z</time>
      </trkpt>
      <trkpt lat="45.00385" lon="1.58193">
        <ele>300</ele>
        <time>2020-09-19T03:46:44Z</time>
      </trkpt>
      <trkpt lat="45.00425" lon="1.58221">
        <ele>301</ele>
        <time>2020-09-19T03:47:44Z</time>
      </trkpt>
      <trkpt lat="45.00461" lon="1.58232">
        <ele>302</ele>
        <time>2020-09-19T03:48:33Z</time>
      </trkpt>
      <trkpt lat="45.00487" lon="1.58223">
        <ele>303</ele>
        <time>2020-09-19T03:49:08Z</time>
      </trkpt>
      <trkpt lat="45.00516" lon="1.58206">
        <ele>305</ele>
        <time>2020-09-19T03:49:50Z</time>
      </trkpt>
      <trkpt lat="45.00701" lon="1.58051">
        <ele>313</ele>
        <time>2020-09-19T03:54:37Z</time>
      </trkpt>
      <trkpt lat="45.00755" lon="1.57998">
        <ele>316</ele>
        <time>2020-09-19T03:56:05Z</time>
      </trkpt>
      <trkpt lat="45.0101" lon="1.57678">
        <ele>316</ele>
        <time>2020-09-19T04:03:40Z</time>
      </trkpt>
      <trkpt lat="45.01059" lon="1.57687">
        <ele>309</ele>
        <time>2020-09-19T04:04:46Z</time>
      </trkpt>
      <trkpt lat="45.01119" lon="1.57635">
        <ele>308</ele>
        <time>2020-09-19T04:06:20Z</time>
      </trkpt>
      <trkpt lat="45.01172" lon="1.57609">
        <ele>305</ele>
        <time>2020-09-19T04:07:35Z</time>
      </trkpt>
      <trkpt lat="45.01273" lon="1.57622">
        <ele>312</ele>
        <time>2020-09-19T04:09:50Z</time>
      </trkpt>
      <trkpt lat="45.01323" lon="1.5762">
        <ele>316</ele>
        <time>2020-09-19T04:10:57Z</time>
      </trkpt>
      <trkpt lat="45.01356" lon="1.57614">
        <ele>317</ele>
        <time>2020-09-19T04:11:41Z</time>
      </trkpt>
      <trkpt lat="45.0138" lon="1.57605">
        <ele>317</ele>
        <time>2020-09-19T04:12:14Z</time>
      </trkpt>
      <trkpt lat="45.01441" lon="1.57609">
        <ele>315</ele>
        <time>2020-09-19T04:13:36Z</time>
      </trkpt>
      <trkpt lat="45.01535" lon="1.57607">
        <ele>311</ele>
        <time>2020-09-19T04:15:41Z</time>
      </trkpt>
      <trkpt lat="45.01579" lon="1.5759">
        <ele>309</ele>
        <time>2020-09-19T04:16:42Z</time>
      </trkpt>
      <trkpt lat="45.01675" lon="1.57508">
        <ele>307</ele>
        <time>2020-09-19T04:19:12Z</time>
      </trkpt>
      <trkpt lat="45.01791" lon="1.57388">
        <ele>311</ele>
        <time>2020-09-19T04:22:23Z</time>
      </trkpt>
      <trkpt lat="45.01896" lon="1.57335">
        <ele>312</ele>
        <time>2020-09-19T04:24:52Z</time>
      </trkpt>
      <trkpt lat="45.01937" lon="1.57307">
        <ele>312</ele>
        <time>2020-09-19T04:25:53Z</time>
      </trkpt>
      <trkpt lat="45.02031" lon="1.57234">
        <ele>311</ele>
        <time>2020-09-19T04:28:16Z</time>
      </trkpt>
      <trkpt lat="45.02054" lon="1.5724">
        <ele>311</ele>
        <time>2020-09-19T04:28:47Z</time>
      </trkpt>
      <trkpt lat="45.02086" lon="1.57219">
        <ele>312</ele>
        <time>2020-09-19T04:29:34Z</time>
      </trkpt>
      <trkpt lat="45.02104" lon="1.57197">
        <ele>313</ele>
        <time>2020-09-19T04:30:06Z</time>
      </trkpt>
      <trkpt lat="45.02136" lon="1.57197">
        <ele>312</ele>
        <time>2020-09-19T04:30:49Z</time>
      </trkpt>
      <trkpt lat="45.02183" lon="1.57206">
        <ele>311</ele>
        <time>2020-09-19T04:31:52Z</time>
      </trkpt>
      <trkpt lat="45.02222" lon="1.57225">
        <ele>310</ele>
        <time>2020-09-19T04:32:47Z</time>
      </trkpt>
      <trkpt lat="45.02313" lon="1.57217">
        <ele>307</ele>
        <time>2020-09-19T04:34:49Z</time>
      </trkpt>
      <trkpt lat="45.0236" lon="1.57208">
        <ele>304</ele>
        <time>2020-09-19T04:35:52Z</time>
      </trkpt>
      <trkpt lat="45.02442" lon="1.57163">
        <ele>303</ele>
        <time>2020-09-19T04:37:49Z</time>
      </trkpt>
      <trkpt lat="45.02457" lon="1.57129">
        <ele>301</ele>
        <time>2020-09-19T04:38:27Z</time>
      </trkpt>
      <trkpt lat="45.02481" lon="1.57111">
        <ele>299</ele>
        <time>2020-09-19T04:39:03Z</time>
      </trkpt>
      <trkpt lat="45.02506" lon="1.57114">
        <ele>297</ele>
        <time>2020-09-19T04:39:37Z</time>
      </trkpt>
      <trkpt lat="45.02542" lon="1.57133">
        <ele>297</ele>
        <time>2020-09-19T04:40:28Z</time>
      </trkpt>
      <trkpt lat="45.02588" lon="1.57141">
        <ele>298</ele>
        <time>2020-09-19T04:41:30Z</time>
      </trkpt>
      <trkpt lat="45.02621" lon="1.57152">
        <ele>300</ele>
        <time>2020-09-19T04:42:15Z</time>
      </trkpt>
      <trkpt lat="45.02689" lon="1.57131">
        <ele>298</ele>
        <time>2020-09-19T04:43:48Z</time>
      </trkpt>
      <trkpt lat="45.02744" lon="1.5712">
        <ele>295</ele>
        <time>2020-09-19T04:45:02Z</time>
      </trkpt>
      <trkpt lat="45.02871" lon="1.57109">
        <ele>286</ele>
        <time>2020-09-19T04:47:52Z</time>
      </trkpt>
      <trkpt lat="45.02929" lon="1.57111">
        <ele>284</ele>
        <time>2020-09-19T04:49:10Z</time>
      </trkpt>
      <trkpt lat="45.02965" lon="1.57118">
        <ele>285</ele>
        <time>2020-09-19T04:49:58Z</time>
      </trkpt>
      <trkpt lat="45.02996" lon="1.57135">
        <ele>286</ele>
        <time>2020-09-19T04:50:42Z</time>
      </trkpt>
      <trkpt lat="45.03079" lon="1.5715">
        <ele>292</ele>
        <time>2020-09-19T04:52:34Z</time>
      </trkpt>
      <trkpt lat="45.03108" lon="1.57165">
        <ele>293</ele>
        <time>2020-09-19T04:53:15Z</time>
      </trkpt>
      <trkpt lat="45.03147" lon="1.57195">
        <ele>294</ele>
        <time>2020-09-19T04:54:15Z</time>
      </trkpt>
      <trkpt lat="45.03235" lon="1.57221">
        <ele>303</ele>
        <time>2020-09-19T04:56:14Z</time>
      </trkpt>
      <trkpt lat="45.03279" lon="1.57238">
        <ele>309</ele>
        <time>2020-09-19T04:57:15Z</time>
      </trkpt>
      <trkpt lat="45.03303" lon="1.57242">
        <ele>311</ele>
        <time>2020-09-19T04:57:48Z</time>
      </trkpt>
      <trkpt lat="45.03416" lon="1.57313">
        <ele>326</ele>
        <time>2020-09-19T05:00:33Z</time>
      </trkpt>
      <trkpt lat="45.03449" lon="1.57324">
        <ele>328</ele>
        <time>2020-09-19T05:01:18Z</time>
      </trkpt>
      <trkpt lat="45.03476" lon="1.57341">
        <ele>330</ele>
        <time>2020-09-19T05:01:57Z</time>
      </trkpt>
      <trkpt lat="45.03499" lon="1.57317">
        <ele>329</ele>
        <time>2020-09-19T05:02:35Z</time>
      </trkpt>
      <trkpt lat="45.03522" lon="1.57313">
        <ele>329</ele>
        <time>2020-09-19T05:03:06Z</time>
      </trkpt>
      <trkpt lat="45.03566" lon="1.57184">
        <ele>325</ele>
        <time>2020-09-19T05:05:21Z</time>
      </trkpt>
      <trkpt lat="45.03589" lon="1.57075">
        <ele>323</ele>
        <time>2020-09-19T05:07:09Z</time>
      </trkpt>
      <trkpt lat="45.03754" lon="1.57045">
        <ele>305</ele>
        <time>2020-09-19T05:10:51Z</time>
      </trkpt>
      <trkpt lat="45.03902" lon="1.57028">
        <ele>293</ele>
        <time>2020-09-19T05:14:09Z</time>
      </trkpt>
      <trkpt lat="45.03927" lon="1.57032">
        <ele>291</ele>
        <time>2020-09-19T05:14:42Z</time>
      </trkpt>
      <trkpt lat="45.03954" lon="1.56998">
        <ele>292</ele>
        <time>2020-09-19T05:15:31Z</time>
      </trkpt>
      <trkpt lat="45.04013" lon="1.57008">
        <ele>290</ele>
        <time>2020-09-19T05:16:50Z</time>
      </trkpt>
      <trkpt lat="45.04025" lon="1.57015">
        <ele>290</ele>
        <time>2020-09-19T05:17:07Z</time>
      </trkpt>
      <trkpt lat="45.04056" lon="1.57043">
        <ele>291</ele>
        <time>2020-09-19T05:17:56Z</time>
      </trkpt>
      <trkpt lat="45.04074" lon="1.57079">
        <ele>293</ele>
        <time>2020-09-19T05:18:38Z</time>
      </trkpt>
      <trkpt lat="45.04093" lon="1.57148">
        <ele>292</ele>
        <time>2020-09-19T05:19:48Z</time>
      </trkpt>
      <trkpt lat="45.04136" lon="1.57229">
        <ele>296</ele>
        <time>2020-09-19T05:21:23Z</time>
      </trkpt>
      <trkpt lat="45.04183" lon="1.57275">
        <ele>303</ele>
        <time>2020-09-19T05:22:40Z</time>
      </trkpt>
      <trkpt lat="45.04239" lon="1.57315">
        <ele>312</ele>
        <time>2020-09-19T05:24:03Z</time>
      </trkpt>
      <trkpt lat="45.04274" lon="1.57412">
        <ele>300</ele>
        <time>2020-09-19T05:25:46Z</time>
      </trkpt>
      <trkpt lat="45.04289" lon="1.57429">
        <ele>299</ele>
        <time>2020-09-19T05:26:12Z</time>
      </trkpt>
      <trkpt lat="45.04377" lon="1.57491">
        <ele>299</ele>
        <time>2020-09-19T05:28:23Z</time>
      </trkpt>
      <trkpt lat="45.04385" lon="1.575">
        <ele>299</ele>
        <time>2020-09-19T05:28:36Z</time>
      </trkpt>
      <trkpt lat="45.04392" lon="1.57517">
        <ele>299</ele>
        <time>2020-09-19T05:28:55Z</time>
      </trkpt>
      <trkpt lat="45.04392" lon="1.57549">
        <ele>298</ele>
        <time>2020-09-19T05:29:25Z</time>
      </trkpt>
      <trkpt lat="45.04385" lon="1.57599">
        <ele>294</ele>
        <time>2020-09-19T05:30:13Z</time>
      </trkpt>
      <trkpt lat="45.04392" lon="1.57667">
        <ele>295</ele>
        <time>2020-09-19T05:31:18Z</time>
      </trkpt>
      <trkpt lat="45.04391" lon="1.57725">
        <ele>294</ele>
        <time>2020-09-19T05:32:13Z</time>
      </trkpt>
      <trkpt lat="45.04386" lon="1.57751">
        <ele>292</ele>
        <time>2020-09-19T05:32:38Z</time>
      </trkpt>
      <trkpt lat="45.04277" lon="1.57983">
        <ele>285</ele>
        <time>2020-09-19T05:37:01Z</time>
      </trkpt>
      <trkpt lat="45.04262" lon="1.58008">
        <ele>281</ele>
        <time>2020-09-19T05:37:32Z</time>
      </trkpt>
      <trkpt lat="45.04237" lon="1.58126">
        <ele>284</ele>
        <time>2020-09-19T05:39:28Z</time>
      </trkpt>
      <trkpt lat="45.04233" lon="1.58167">
        <ele>286</ele>
        <time>2020-09-19T05:40:07Z</time>
      </trkpt>
      <trkpt lat="45.04233" lon="1.58202">
        <ele>286</ele>
        <time>2020-09-19T05:40:40Z</time>
      </trkpt>
      <trkpt lat="45.04236" lon="1.58223">
        <ele>287</ele>
        <time>2020-09-19T05:41:00Z</time>
      </trkpt>
      <trkpt lat="45.04259" lon="1.58277">
        <ele>291</ele>
        <time>2020-09-19T05:42:00Z</time>
      </trkpt>
      <trkpt lat="45.04271" lon="1.58352">
        <ele>291</ele>
        <time>2020-09-19T05:43:12Z</time>
      </trkpt>
      <trkpt lat="45.04271" lon="1.5838">
        <ele>293</ele>
        <time>2020-09-19T05:43:38Z</time>
      </trkpt>
      <trkpt lat="45.04259" lon="1.58431">
        <ele>292</ele>
        <time>2020-09-19T05:44:29Z</time>
      </trkpt>
      <trkpt lat="45.0428" lon="1.58414">
        <ele>299</ele>
        <time>2020-09-19T05:45:01Z</time>
      </trkpt>
      <trkpt lat="45.04298" lon="1.58367">
        <ele>301</ele>
        <time>2020-09-19T05:45:52Z</time>
      </trkpt>
      <trkpt lat="45.04297" lon="1.58326">
        <ele>298</ele>
        <time>2020-09-19T05:46:31Z</time>
      </trkpt>
      <trkpt lat="45.04301" lon="1.58317">
        <ele>300</ele>
        <time>2020-09-19T05:46:41Z</time>
      </trkpt>
      <trkpt lat="45.04309" lon="1.58324">
        <ele>302</ele>
        <time>2020-09-19T05:46:53Z</time>
      </trkpt>
      <trkpt lat="45.04312" lon="1.58371">
        <ele>307</ele>
        <time>2020-09-19T05:47:38Z</time>
      </trkpt>
      <trkpt lat="45.04309" lon="1.5839">
        <ele>307</ele>
        <time>2020-09-19T05:47:56Z</time>
      </trkpt>
      <trkpt lat="45.04291" lon="1.58448">
        <ele>306</ele>
        <time>2020-09-19T05:48:56Z</time>
      </trkpt>
      <trkpt lat="45.04307" lon="1.58459">
        <ele>313</ele>
        <time>2020-09-19T05:49:19Z</time>
      </trkpt>
      <trkpt lat="45.04316" lon="1.58455">
        <ele>316</ele>
        <time>2020-09-19T05:49:32Z</time>
      </trkpt>
      <trkpt lat="45.04328" lon="1.58427">
        <ele>319</ele>
        <time>2020-09-19T05:50:03Z</time>
      </trkpt>
      <trkpt lat="45.04351" lon="1.58431">
        <ele>325</ele>
        <time>2020-09-19T05:50:34Z</time>
      </trkpt>
      <trkpt lat="45.04383" lon="1.5845">
        <ele>332</ele>
        <time>2020-09-19T05:51:20Z</time>
      </trkpt>
      <trkpt lat="45.04401" lon="1.5845">
        <ele>336</ele>
        <time>2020-09-19T05:51:44Z</time>
      </trkpt>
      <trkpt lat="45.04429" lon="1.58429">
        <ele>340</ele>
        <time>2020-09-19T05:52:26Z</time>
      </trkpt>
      <trkpt lat="45.04462" lon="1.5839">
        <ele>341</ele>
        <time>2020-09-19T05:53:24Z</time>
      </trkpt>
      <trkpt lat="45.0451" lon="1.58322">
        <ele>347</ele>
        <time>2020-09-19T05:54:54Z</time>
      </trkpt>
      <trkpt lat="45.04548" lon="1.58229">
        <ele>348</ele>
        <time>2020-09-19T05:56:36Z</time>
      </trkpt>
      <trkpt lat="45.04577" lon="1.5818">
        <ele>348</ele>
        <time>2020-09-19T05:57:36Z</time>
      </trkpt>
      <trkpt lat="45.04594" lon="1.58118">
        <ele>350</ele>
        <time>2020-09-19T05:58:39Z</time>
      </trkpt>
      <trkpt lat="45.04645" lon="1.58043">
        <ele>351</ele>
        <time>2020-09-19T06:00:17Z</time>
      </trkpt>
      <trkpt lat="45.04761" lon="1.57987">
        <ele>351</ele>
        <time>2020-09-19T06:03:00Z</time>
      </trkpt>
      <trkpt lat="45.04815" lon="1.5795">
        <ele>348</ele>
        <time>2020-09-19T06:04:20Z</time>
      </trkpt>
      <trkpt lat="45.04918" lon="1.57927">
        <ele>325</ele>
        <time>2020-09-19T06:06:40Z</time>
      </trkpt>
      <trkpt lat="45.05017" lon="1.5788">
        <ele>315</ele>
        <time>2020-09-19T06:08:59Z</time>
      </trkpt>
      <trkpt lat="45.05096" lon="1.57865">
        <ele>311</ele>
        <time>2020-09-19T06:10:45Z</time>
      </trkpt>
      <trkpt lat="45.05109" lon="1.57852">
        <ele>310</ele>
        <time>2020-09-19T06:11:07Z</time>
      </trkpt>
      <trkpt lat="45.05117" lon="1.57828">
        <ele>309</ele>
        <time>2020-09-19T06:11:32Z</time>
      </trkpt>
      <trkpt lat="45.05193" lon="1.57869">
        <ele>301</ele>
        <time>2020-09-19T06:13:20Z</time>
      </trkpt>
      <trkpt lat="45.0525" lon="1.5792">
        <ele>294</ele>
        <time>2020-09-19T06:14:50Z</time>
      </trkpt>
      <trkpt lat="45.05284" lon="1.57972">
        <ele>288</ele>
        <time>2020-09-19T06:15:57Z</time>
      </trkpt>
      <trkpt lat="45.053" lon="1.58034">
        <ele>283</ele>
        <time>2020-09-19T06:16:59Z</time>
      </trkpt>
      <trkpt lat="45.05343" lon="1.58178">
        <ele>273</ele>
        <time>2020-09-19T06:19:26Z</time>
      </trkpt>
      <trkpt lat="45.05465" lon="1.58272">
        <ele>291</ele>
        <time>2020-09-19T06:22:32Z</time>
      </trkpt>
      <trkpt lat="45.0547" lon="1.58285">
        <ele>294</ele>
        <time>2020-09-19T06:22:46Z</time>
      </trkpt>
      <trkpt lat="45.05464" lon="1.58302">
        <ele>295</ele>
        <time>2020-09-19T06:23:04Z</time>
      </trkpt>
      <trkpt lat="45.05481" lon="1.58324">
        <ele>302</ele>
        <time>2020-09-19T06:23:34Z</time>
      </trkpt>
      <trkpt lat="45.05476" lon="1.58352">
        <ele>303</ele>
        <time>2020-09-19T06:24:02Z</time>
      </trkpt>
      <trkpt lat="45.05465" lon="1.58388">
        <ele>301</ele>
        <time>2020-09-19T06:24:39Z</time>
      </trkpt>
      <trkpt lat="45.05475" lon="1.58427">
        <ele>304</ele>
        <time>2020-09-19T06:25:18Z</time>
      </trkpt>
      <trkpt lat="45.05518" lon="1.58412">
        <ele>312</ele>
        <time>2020-09-19T06:26:17Z</time>
      </trkpt>
      <trkpt lat="45.05525" lon="1.58373">
        <ele>313</ele>
        <time>2020-09-19T06:26:55Z</time>
      </trkpt>
      <trkpt lat="45.05532" lon="1.58352">
        <ele>314</ele>
        <time>2020-09-19T06:27:17Z</time>
      </trkpt>
      <trkpt lat="45.05581" lon="1.5832">
        <ele>319</ele>
        <time>2020-09-19T06:28:29Z</time>
      </trkpt>
      <trkpt lat="45.05599" lon="1.58326">
        <ele>319</ele>
        <time>2020-09-19T06:28:53Z</time>
      </trkpt>
      <trkpt lat="45.05631" lon="1.58322">
        <ele>315</ele>
        <time>2020-09-19T06:29:36Z</time>
      </trkpt>
      <trkpt lat="45.0567" lon="1.58322">
        <ele>310</ele>
        <time>2020-09-19T06:30:28Z</time>
      </trkpt>
      <trkpt lat="45.05697" lon="1.58305">
        <ele>302</ele>
        <time>2020-09-19T06:31:08Z</time>
      </trkpt>
      <trkpt lat="45.05711" lon="1.58289">
        <ele>298</ele>
        <time>2020-09-19T06:31:32Z</time>
      </trkpt>
      <trkpt lat="45.05723" lon="1.58268">
        <ele>296</ele>
        <time>2020-09-19T06:31:57Z</time>
      </trkpt>
      <trkpt lat="45.05741" lon="1.58253">
        <ele>293</ele>
        <time>2020-09-19T06:32:25Z</time>
      </trkpt>
      <trkpt lat="45.05732" lon="1.58221">
        <ele>290</ele>
        <time>2020-09-19T06:32:58Z</time>
      </trkpt>
      <trkpt lat="45.05766" lon="1.58174">
        <ele>281</ele>
        <time>2020-09-19T06:34:01Z</time>
      </trkpt>
      <trkpt lat="45.05753" lon="1.58141">
        <ele>279</ele>
        <time>2020-09-19T06:34:37Z</time>
      </trkpt>
      <trkpt lat="45.05835" lon="1.5803">
        <ele>256</ele>
        <time>2020-09-19T06:37:08Z</time>
      </trkpt>
      <trkpt lat="45.05869" lon="1.58068">
        <ele>254</ele>
        <time>2020-09-19T06:38:06Z</time>
      </trkpt>
      <trkpt lat="45.0592" lon="1.58118">
        <ele>251</ele>
        <time>2020-09-19T06:39:29Z</time>
      </trkpt>
      <trkpt lat="45.05929" lon="1.58133">
        <ele>250</ele>
        <time>2020-09-19T06:39:47Z</time>
      </trkpt>
      <trkpt lat="45.05937" lon="1.5818">
        <ele>251</ele>
        <time>2020-09-19T06:40:33Z</time>
      </trkpt>
      <trkpt lat="45.0595" lon="1.58171">
        <ele>249</ele>
        <time>2020-09-19T06:40:52Z</time>
      </trkpt>
      <trkpt lat="45.06002" lon="1.58114">
        <ele>236</ele>
        <time>2020-09-19T06:42:20Z</time>
      </trkpt>
      <trkpt lat="45.06051" lon="1.58114">
        <ele>230</ele>
        <time>2020-09-19T06:43:25Z</time>
      </trkpt>
      <trkpt lat="45.06063" lon="1.58109">
        <ele>229</ele>
        <time>2020-09-19T06:43:42Z</time>
      </trkpt>
      <trkpt lat="45.06085" lon="1.58092">
        <ele>227</ele>
        <time>2020-09-19T06:44:15Z</time>
      </trkpt>
      <trkpt lat="45.06096" lon="1.58088">
        <ele>226</ele>
        <time>2020-09-19T06:44:30Z</time>
      </trkpt>
      <trkpt lat="45.06113" lon="1.58103">
        <ele>225</ele>
        <time>2020-09-19T06:44:57Z</time>
      </trkpt>
      <trkpt lat="45.06188" lon="1.58148">
        <ele>221</ele>
        <time>2020-09-19T06:46:46Z</time>
      </trkpt>
      <trkpt lat="45.06226" lon="1.58178">
        <ele>219</ele>
        <time>2020-09-19T06:47:44Z</time>
      </trkpt>
      <trkpt lat="45.06264" lon="1.58199">
        <ele>218</ele>
        <time>2020-09-19T06:48:38Z</time>
      </trkpt>
      <trkpt lat="45.06326" lon="1.58266">
        <ele>218</ele>
        <time>2020-09-19T06:50:22Z</time>
      </trkpt>
      <trkpt lat="45.0634" lon="1.58287">
        <ele>217</ele>
        <time>2020-09-19T06:50:50Z</time>
      </trkpt>
      <trkpt lat="45.06393" lon="1.58343">
        <ele>209</ele>
        <time>2020-09-19T06:52:18Z</time>
      </trkpt>
      <trkpt lat="45.06411" lon="1.58356">
        <ele>206</ele>
        <time>2020-09-19T06:52:45Z</time>
      </trkpt>
      <trkpt lat="45.06439" lon="1.5836">
        <ele>201</ele>
        <time>2020-09-19T06:53:22Z</time>
      </trkpt>
      <trkpt lat="45.06458" lon="1.58358">
        <ele>198</ele>
        <time>2020-09-19T06:53:48Z</time>
      </trkpt>
      <trkpt lat="45.0654" lon="1.58326">
        <ele>187</ele>
        <time>2020-09-19T06:55:41Z</time>
      </trkpt>
      <trkpt lat="45.06563" lon="1.58337">
        <ele>183</ele>
        <time>2020-09-19T06:56:14Z</time>
      </trkpt>
      <trkpt lat="45.06596" lon="1.58326">
        <ele>180</ele>
        <time>2020-09-19T06:56:59Z</time>
      </trkpt>
      <trkpt lat="45.06629" lon="1.58296">
        <ele>179</ele>
        <time>2020-09-19T06:57:51Z</time>
      </trkpt>
      <trkpt lat="45.06636" lon="1.5827">
        <ele>179</ele>
        <time>2020-09-19T06:58:18Z</time>
      </trkpt>
      <trkpt lat="45.06679" lon="1.58178">
        <ele>178</ele>
        <time>2020-09-19T07:00:02Z</time>
      </trkpt>
      <trkpt lat="45.06684" lon="1.5812">
        <ele>180</ele>
        <time>2020-09-19T07:00:57Z</time>
      </trkpt>
      <trkpt lat="45.06681" lon="1.58086">
        <ele>182</ele>
        <time>2020-09-19T07:01:29Z</time>
      </trkpt>
      <trkpt lat="45.0667" lon="1.58045">
        <ele>182</ele>
        <time>2020-09-19T07:02:10Z</time>
      </trkpt>
      <trkpt lat="45.06661" lon="1.57978">
        <ele>182</ele>
        <time>2020-09-19T07:03:15Z</time>
      </trkpt>
      <trkpt lat="45.06664" lon="1.57944">
        <ele>181</ele>
        <time>2020-09-19T07:03:47Z</time>
      </trkpt>
      <trkpt lat="45.06705" lon="1.57772">
        <ele>186</ele>
        <time>2020-09-19T07:06:38Z</time>
      </trkpt>
      <trkpt lat="45.06775" lon="1.57766">
        <ele>185</ele>
        <time>2020-09-19T07:08:12Z</time>
      </trkpt>
      <trkpt lat="45.06823" lon="1.57755">
        <ele>183</ele>
        <time>2020-09-19T07:09:16Z</time>
      </trkpt>
      <trkpt lat="45.06842" lon="1.57736">
        <ele>184</ele>
        <time>2020-09-19T07:09:47Z</time>
      </trkpt>
      <trkpt lat="45.06972" lon="1.5768">
        <ele>184</ele>
        <time>2020-09-19T07:12:49Z</time>
      </trkpt>
      <trkpt lat="45.07019" lon="1.57644">
        <ele>186</ele>
        <time>2020-09-19T07:14:00Z</time>
      </trkpt>
      <trkpt lat="45.07107" lon="1.57588">
        <ele>187</ele>
        <time>2020-09-19T07:16:09Z</time>
      </trkpt>
      <trkpt lat="45.07161" lon="1.57543">
        <ele>189</ele>
        <time>2020-09-19T07:17:32Z</time>
      </trkpt>
      <trkpt lat="45.07181" lon="1.57538">
        <ele>189</ele>
        <time>2020-09-19T07:18:00Z</time>
      </trkpt>
      <trkpt lat="45.07314" lon="1.57489">
        <ele>188</ele>
        <time>2020-09-19T07:21:03Z</time>
      </trkpt>
      <trkpt lat="45.07336" lon="1.57435">
        <ele>191</ele>
        <time>2020-09-19T07:22:02Z</time>
      </trkpt>
      <trkpt lat="45.07404" lon="1.57324">
        <ele>200</ele>
        <time>2020-09-19T07:24:20Z</time>
      </trkpt>
      <trkpt lat="45.07401" lon="1.57285">
        <ele>201</ele>
        <time>2020-09-19T07:24:57Z</time>
      </trkpt>
      <trkpt lat="45.07352" lon="1.57292">
        <ele>205</ele>
        <time>2020-09-19T07:26:03Z</time>
      </trkpt>
      <trkpt lat="45.07301" lon="1.57317">
        <ele>207</ele>
        <time>2020-09-19T07:27:15Z</time>
      </trkpt>
      <trkpt lat="45.07254" lon="1.57345">
        <ele>208</ele>
        <time>2020-09-19T07:28:23Z</time>
      </trkpt>
      <trkpt lat="45.07174" lon="1.57412">
        <ele>205</ele>
        <time>2020-09-19T07:30:27Z</time>
      </trkpt>
      <trkpt lat="45.07133" lon="1.57455">
        <ele>201</ele>
        <time>2020-09-19T07:31:35Z</time>
      </trkpt>
      <trkpt lat="45.0712" lon="1.57347">
        <ele>220</ele>
        <time>2020-09-19T07:33:18Z</time>
      </trkpt>
      <trkpt lat="45.0713" lon="1.5733">
        <ele>222</ele>
        <time>2020-09-19T07:33:39Z</time>
      </trkpt>
      <trkpt lat="45.07181" lon="1.57279">
        <ele>223</ele>
        <time>2020-09-19T07:35:02Z</time>
      </trkpt>
      <trkpt lat="45.07202" lon="1.57244">
        <ele>224</ele>
        <time>2020-09-19T07:35:46Z</time>
      </trkpt>
      <trkpt lat="45.0721" lon="1.57197">
        <ele>229</ele>
        <time>2020-09-19T07:36:31Z</time>
      </trkpt>
      <trkpt lat="45.07219" lon="1.57167">
        <ele>232</ele>
        <time>2020-09-19T07:37:02Z</time>
      </trkpt>
      <trkpt lat="45.07233" lon="1.57144">
        <ele>234</ele>
        <time>2020-09-19T07:37:31Z</time>
      </trkpt>
      <trkpt lat="45.07246" lon="1.57056">
        <ele>248</ele>
        <time>2020-09-19T07:38:55Z</time>
      </trkpt>
      <trkpt lat="45.07258" lon="1.56996">
        <ele>257</ele>
        <time>2020-09-19T07:39:54Z</time>
      </trkpt>
      <trkpt lat="45.07269" lon="1.56968">
        <ele>258</ele>
        <time>2020-09-19T07:40:24Z</time>
      </trkpt>
      <trkpt lat="45.07272" lon="1.56942">
        <ele>262</ele>
        <time>2020-09-19T07:40:49Z</time>
      </trkpt>
      <trkpt lat="45.07298" lon="1.56897">
        <ele>260</ele>
        <time>2020-09-19T07:41:44Z</time>
      </trkpt>
      <trkpt lat="45.07293" lon="1.5685">
        <ele>271</ele>
        <time>2020-09-19T07:42:29Z</time>
      </trkpt>
      <trkpt lat="45.07299" lon="1.56837">
        <ele>271</ele>
        <time>2020-09-19T07:42:43Z</time>
      </trkpt>
      <trkpt lat="45.07331" lon="1.56794">
        <ele>271</ele>
        <time>2020-09-19T07:43:42Z</time>
      </trkpt>
      <trkpt lat="45.07369" lon="1.56764">
        <ele>272</ele>
        <time>2020-09-19T07:44:40Z</time>
      </trkpt>
      <trkpt lat="45.07417" lon="1.56712">
        <ele>276</ele>
        <time>2020-09-19T07:46:01Z</time>
      </trkpt>
      <trkpt lat="45.07437" lon="1.56687">
        <ele>284</ele>
        <time>2020-09-19T07:46:37Z</time>
      </trkpt>
      <trkpt lat="45.07458" lon="1.56627">
        <ele>291</ele>
        <time>2020-09-19T07:47:40Z</time>
      </trkpt>
      <trkpt lat="45.07471" lon="1.56508">
        <ele>295</ele>
        <time>2020-09-19T07:49:33Z</time>
      </trkpt>
      <trkpt lat="45.07519" lon="1.56504">
        <ele>297</ele>
        <time>2020-09-19T07:50:37Z</time>
      </trkpt>
      <trkpt lat="45.0763" lon="1.56448">
        <ele>303</ele>
        <time>2020-09-19T07:53:15Z</time>
      </trkpt>
      <trkpt lat="45.0769" lon="1.56431">
        <ele>304</ele>
        <time>2020-09-19T07:54:36Z</time>
      </trkpt>
      <trkpt lat="45.07704" lon="1.56423">
        <ele>303</ele>
        <time>2020-09-19T07:54:56Z</time>
      </trkpt>
      <trkpt lat="45.07734" lon="1.5636">
        <ele>303</ele>
        <time>2020-09-19T07:56:08Z</time>
      </trkpt>
      <trkpt lat="45.07739" lon="1.56339">
        <ele>304</ele>
        <time>2020-09-19T07:56:29Z</time>
      </trkpt>
      <trkpt lat="45.0774" lon="1.5632">
        <ele>305</ele>
        <time>2020-09-19T07:56:47Z</time>
      </trkpt>
      <trkpt lat="45.07733" lon="1.56305">
        <ele>306</ele>
        <time>2020-09-19T07:57:04Z</time>
      </trkpt>
      <trkpt lat="45.07734" lon="1.56294">
        <ele>307</ele>
        <time>2020-09-19T07:57:14Z</time>
      </trkpt>
      <trkpt lat="45.07769" lon="1.56249">
        <ele>312</ele>
        <time>2020-09-19T07:58:17Z</time>
      </trkpt>
      <trkpt lat="45.07784" lon="1.56234">
        <ele>314</ele>
        <time>2020-09-19T07:58:42Z</time>
      </trkpt>
      <trkpt lat="45.07816" lon="1.56219">
        <ele>317</ele>
        <time>2020-09-19T07:59:27Z</time>
      </trkpt>
      <trkpt lat="45.07875" lon="1.5615">
        <ele>324</ele>
        <time>2020-09-19T08:01:09Z</time>
      </trkpt>
      <trkpt lat="45.07887" lon="1.56109">
        <ele>326</ele>
        <time>2020-09-19T08:01:51Z</time>
      </trkpt>
      <trkpt lat="45.07899" lon="1.56088">
        <ele>328</ele>
        <time>2020-09-19T08:02:16Z</time>
      </trkpt>
      <trkpt lat="45.07972" lon="1.56092">
        <ele>326</ele>
        <time>2020-09-19T08:03:54Z</time>
      </trkpt>
      <trkpt lat="45.07981" lon="1.56066">
        <ele>327</ele>
        <time>2020-09-19T08:04:21Z</time>
      </trkpt>
      <trkpt lat="45.07984" lon="1.56043">
        <ele>329</ele>
        <time>2020-09-19T08:04:43Z</time>
      </trkpt>
      <trkpt lat="45.07984" lon="1.5594">
        <ele>330</ele>
        <time>2020-09-19T08:06:20Z</time>
      </trkpt>
      <trkpt lat="45.07969" lon="1.55895">
        <ele>327</ele>
        <time>2020-09-19T08:07:07Z</time>
      </trkpt>
      <trkpt lat="45.07965" lon="1.55848">
        <ele>324</ele>
        <time>2020-09-19T08:07:52Z</time>
      </trkpt>
      <trkpt lat="45.07957" lon="1.55794">
        <ele>321</ele>
        <time>2020-09-19T08:08:44Z</time>
      </trkpt>
      <trkpt lat="45.07927" lon="1.557">
        <ele>316</ele>
        <time>2020-09-19T08:10:21Z</time>
      </trkpt>
      <trkpt lat="45.07884" lon="1.55674">
        <ele>315</ele>
        <time>2020-09-19T08:11:23Z</time>
      </trkpt>
      <trkpt lat="45.0786" lon="1.55646">
        <ele>314</ele>
        <time>2020-09-19T08:12:05Z</time>
      </trkpt>
      <trkpt lat="45.07821" lon="1.55575">
        <ele>312</ele>
        <time>2020-09-19T08:13:29Z</time>
      </trkpt>
      <trkpt lat="45.07787" lon="1.5553">
        <ele>313</ele>
        <time>2020-09-19T08:14:31Z</time>
      </trkpt>
      <trkpt lat="45.07752" lon="1.55474">
        <ele>314</ele>
        <time>2020-09-19T08:15:42Z</time>
      </trkpt>
      <trkpt lat="45.07664" lon="1.55388">
        <ele>313</ele>
        <time>2020-09-19T08:18:05Z</time>
      </trkpt>
      <trkpt lat="45.07639" lon="1.5533">
        <ele>310</ele>
        <time>2020-09-19T08:19:09Z</time>
      </trkpt>
      <trkpt lat="45.07618" lon="1.55266">
        <ele>310</ele>
        <time>2020-09-19T08:20:15Z</time>
      </trkpt>
      <trkpt lat="45.0758" lon="1.55217">
        <ele>310</ele>
        <time>2020-09-19T08:21:24Z</time>
      </trkpt>
      <trkpt lat="45.0756" lon="1.55178">
        <ele>310</ele>
        <time>2020-09-19T08:22:09Z</time>
      </trkpt>
      <trkpt lat="45.0754" lon="1.55124">
        <ele>307</ele>
        <time>2020-09-19T08:23:07Z</time>
      </trkpt>
      <trkpt lat="45.07522" lon="1.55049">
        <ele>304</ele>
        <time>2020-09-19T08:24:21Z</time>
      </trkpt>
      <trkpt lat="45.07498" lon="1.54981">
        <ele>301</ele>
        <time>2020-09-19T08:25:33Z</time>
      </trkpt>
      <trkpt lat="45.07484" lon="1.54966">
        <ele>301</ele>
        <time>2020-09-19T08:25:56Z</time>
      </trkpt>
      <trkpt lat="45.07425" lon="1.54852">
        <ele>300</ele>
        <time>2020-09-19T08:28:10Z</time>
      </trkpt>
      <trkpt lat="45.07402" lon="1.54818">
        <ele>300</ele>
        <time>2020-09-19T08:28:54Z</time>
      </trkpt>
      <trkpt lat="45.07381" lon="1.5476">
        <ele>298</ele>
        <time>2020-09-19T08:29:55Z</time>
      </trkpt>
      <trkpt lat="45.07364" lon="1.54652">
        <ele>293</ele>
        <time>2020-09-19T08:31:40Z</time>
      </trkpt>
      <trkpt lat="45.07363" lon="1.54573">
        <ele>292</ele>
        <time>2020-09-19T08:32:54Z</time>
      </trkpt>
      <trkpt lat="45.07358" lon="1.54526">
        <ele>291</ele>
        <time>2020-09-19T08:33:39Z</time>
      </trkpt>
      <trkpt lat="45.07308" lon="1.54496">
        <ele>291</ele>
        <time>2020-09-19T08:34:51Z</time>
      </trkpt>
      <trkpt lat="45.07286" lon="1.54474">
        <ele>291</ele>
        <time>2020-09-19T08:35:27Z</time>
      </trkpt>
      <trkpt lat="45.07272" lon="1.54442">
        <ele>291</ele>
        <time>2020-09-19T08:36:03Z</time>
      </trkpt>
      <trkpt lat="45.07275" lon="1.54395">
        <ele>291</ele>
        <time>2020-09-19T08:36:47Z</time>
      </trkpt>
      <trkpt lat="45.07272" lon="1.54378">
        <ele>291</ele>
        <time>2020-09-19T08:37:04Z</time>
      </trkpt>
      <trkpt lat="45.07231" lon="1.54262">
        <ele>293</ele>
        <time>2020-09-19T08:39:06Z</time>
      </trkpt>
      <trkpt lat="45.07227" lon="1.54152">
        <ele>296</ele>
        <time>2020-09-19T08:40:50Z</time>
      </trkpt>
      <trkpt lat="45.07214" lon="1.54105">
        <ele>297</ele>
        <time>2020-09-19T08:41:37Z</time>
      </trkpt>
      <trkpt lat="45.07198" lon="1.54073">
        <ele>298</ele>
        <time>2020-09-19T08:42:14Z</time>
      </trkpt>
      <trkpt lat="45.07184" lon="1.54054">
        <ele>298</ele>
        <time>2020-09-19T08:42:40Z</time>
      </trkpt>
      <trkpt lat="45.07149" lon="1.54019">
        <ele>297</ele>
        <time>2020-09-19T08:43:37Z</time>
      </trkpt>
      <trkpt lat="45.0711" lon="1.53989">
        <ele>294</ele>
        <time>2020-09-19T08:44:37Z</time>
      </trkpt>
      <trkpt lat="45.07095" lon="1.53974">
        <ele>293</ele>
        <time>2020-09-19T08:45:01Z</time>
      </trkpt>
      <trkpt lat="45.0707" lon="1.53927">
        <ele>291</ele>
        <time>2020-09-19T08:45:57Z</time>
      </trkpt>
      <trkpt lat="45.07043" lon="1.53884">
        <ele>294</ele>
        <time>2020-09-19T08:46:51Z</time>
      </trkpt>
      <trkpt lat="45.06967" lon="1.53734">
        <ele>296</ele>
        <time>2020-09-19T08:49:45Z</time>
      </trkpt>
      <trkpt lat="45.06922" lon="1.53672">
        <ele>292</ele>
        <time>2020-09-19T08:51:09Z</time>
      </trkpt>
      <trkpt lat="45.06899" lon="1.53644">
        <ele>292</ele>
        <time>2020-09-19T08:51:49Z</time>
      </trkpt>
      <trkpt lat="45.06826" lon="1.53592">
        <ele>297</ele>
        <time>2020-09-19T08:53:38Z</time>
      </trkpt>
      <trkpt lat="45.06802" lon="1.53562">
        <ele>301</ele>
        <time>2020-09-19T08:54:21Z</time>
      </trkpt>
      <trkpt lat="45.06766" lon="1.53496">
        <ele>306</ele>
        <time>2020-09-19T08:55:39Z</time>
      </trkpt>
      <trkpt lat="45.06734" lon="1.53449">
        <ele>309</ele>
        <time>2020-09-19T08:56:41Z</time>
      </trkpt>
      <trkpt lat="45.06716" lon="1.53414">
        <ele>310</ele>
        <time>2020-09-19T08:57:22Z</time>
      </trkpt>
      <trkpt lat="45.06693" lon="1.53346">
        <ele>314</ele>
        <time>2020-09-19T08:58:33Z</time>
      </trkpt>
      <trkpt lat="45.06681" lon="1.53326">
        <ele>315</ele>
        <time>2020-09-19T08:58:58Z</time>
      </trkpt>
      <trkpt lat="45.06654" lon="1.53328">
        <ele>317</ele>
        <time>2020-09-19T08:59:34Z</time>
      </trkpt>
      <trkpt lat="45.06639" lon="1.53322">
        <ele>318</ele>
        <time>2020-09-19T08:59:54Z</time>
      </trkpt>
      <trkpt lat="45.06604" lon="1.53266">
        <ele>315</ele>
        <time>2020-09-19T09:01:05Z</time>
      </trkpt>
      <trkpt lat="45.06489" lon="1.53174">
        <ele>309</ele>
        <time>2020-09-19T09:04:01Z</time>
      </trkpt>
      <trkpt lat="45.06467" lon="1.53148">
        <ele>307</ele>
        <time>2020-09-19T09:04:39Z</time>
      </trkpt>
      <trkpt lat="45.06454" lon="1.53129">
        <ele>305</ele>
        <time>2020-09-19T09:05:04Z</time>
      </trkpt>
      <trkpt lat="45.06434" lon="1.53077">
        <ele>301</ele>
        <time>2020-09-19T09:06:00Z</time>
      </trkpt>
      <trkpt lat="45.06417" lon="1.53024">
        <ele>301</ele>
        <time>2020-09-19T09:06:55Z</time>
      </trkpt>
      <trkpt lat="45.06417" lon="1.52985">
        <ele>301</ele>
        <time>2020-09-19T09:07:32Z</time>
      </trkpt>
      <trkpt lat="45.06443" lon="1.52955">
        <ele>302</ele>
        <time>2020-09-19T09:08:17Z</time>
      </trkpt>
      <trkpt lat="45.06473" lon="1.52934">
        <ele>301</ele>
        <time>2020-09-19T09:09:01Z</time>
      </trkpt>
      <trkpt lat="45.06525" lon="1.52914">
        <ele>297</ele>
        <time>2020-09-19T09:10:13Z</time>
      </trkpt>
      <trkpt lat="45.06573" lon="1.52947">
        <ele>290</ele>
        <time>2020-09-19T09:11:24Z</time>
      </trkpt>
      <trkpt lat="45.06607" lon="1.52955">
        <ele>289</ele>
        <time>2020-09-19T09:12:10Z</time>
      </trkpt>
      <trkpt lat="45.0676" lon="1.5294">
        <ele>288</ele>
        <time>2020-09-19T09:15:35Z</time>
      </trkpt>
      <trkpt lat="45.06801" lon="1.52919">
        <ele>287</ele>
        <time>2020-09-19T09:16:33Z</time>
      </trkpt>
      <trkpt lat="45.06826" lon="1.5291">
        <ele>285</ele>
        <time>2020-09-19T09:17:08Z</time>
      </trkpt>
      <trkpt lat="45.06825" lon="1.52878">
        <ele>286</ele>
        <time>2020-09-19T09:17:38Z</time>
      </trkpt>
      <trkpt lat="45.0683" lon="1.52826">
        <ele>286</ele>
        <time>2020-09-19T09:18:27Z</time>
      </trkpt>
      <trkpt lat="45.06843" lon="1.52779">
        <ele>286</ele>
        <time>2020-09-19T09:19:15Z</time>
      </trkpt>
      <trkpt lat="45.06877" lon="1.52736">
        <ele>287</ele>
        <time>2020-09-19T09:20:16Z</time>
      </trkpt>
      <trkpt lat="45.06889" lon="1.5271">
        <ele>287</ele>
        <time>2020-09-19T09:20:45Z</time>
      </trkpt>
      <trkpt lat="45.06923" lon="1.52663">
        <ele>288</ele>
        <time>2020-09-19T09:21:48Z</time>
      </trkpt>
      <trkpt lat="45.06978" lon="1.52605">
        <ele>284</ele>
        <time>2020-09-19T09:23:20Z</time>
      </trkpt>
      <trkpt lat="45.07011" lon="1.52556">
        <ele>281</ele>
        <time>2020-09-19T09:24:24Z</time>
      </trkpt>
      <trkpt lat="45.07142" lon="1.52472">
        <ele>272</ele>
        <time>2020-09-19T09:27:36Z</time>
      </trkpt>
      <trkpt lat="45.07164" lon="1.52451">
        <ele>271</ele>
        <time>2020-09-19T09:28:11Z</time>
      </trkpt>
      <trkpt lat="45.07184" lon="1.52479">
        <ele>271</ele>
        <time>2020-09-19T09:28:48Z</time>
      </trkpt>
      <trkpt lat="45.07214" lon="1.52496">
        <ele>271</ele>
        <time>2020-09-19T09:29:32Z</time>
      </trkpt>
      <trkpt lat="45.07249" lon="1.52498">
        <ele>272</ele>
        <time>2020-09-19T09:30:18Z</time>
      </trkpt>
      <trkpt lat="45.07269" lon="1.52515">
        <ele>272</ele>
        <time>2020-09-19T09:30:49Z</time>
      </trkpt>
      <trkpt lat="45.07286" lon="1.52522">
        <ele>272</ele>
        <time>2020-09-19T09:31:13Z</time>
      </trkpt>
      <trkpt lat="45.07321" lon="1.52496">
        <ele>273</ele>
        <time>2020-09-19T09:32:06Z</time>
      </trkpt>
      <trkpt lat="45.07392" lon="1.52455">
        <ele>280</ele>
        <time>2020-09-19T09:33:48Z</time>
      </trkpt>
      <trkpt lat="45.07443" lon="1.52438">
        <ele>288</ele>
        <time>2020-09-19T09:34:58Z</time>
      </trkpt>
      <trkpt lat="45.07474" lon="1.52367">
        <ele>292</ele>
        <time>2020-09-19T09:36:17Z</time>
      </trkpt>
      <trkpt lat="45.07548" lon="1.52245">
        <ele>299</ele>
        <time>2020-09-19T09:38:48Z</time>
      </trkpt>
      <trkpt lat="45.07608" lon="1.5217">
        <ele>302</ele>
        <time>2020-09-19T09:40:35Z</time>
      </trkpt>
      <trkpt lat="45.07654" lon="1.52093">
        <ele>301</ele>
        <time>2020-09-19T09:42:10Z</time>
      </trkpt>
      <trkpt lat="45.07702" lon="1.52073">
        <ele>296</ele>
        <time>2020-09-19T09:43:17Z</time>
      </trkpt>
      <trkpt lat="45.07836" lon="1.52138">
        <ele>283</ele>
        <time>2020-09-19T09:46:26Z</time>
      </trkpt>
      <trkpt lat="45.07852" lon="1.52112">
        <ele>281</ele>
        <time>2020-09-19T09:46:58Z</time>
      </trkpt>
      <trkpt lat="45.07869" lon="1.52095">
        <ele>279</ele>
        <time>2020-09-19T09:47:26Z</time>
      </trkpt>
      <trkpt lat="45.07928" lon="1.52052">
        <ele>278</ele>
        <time>2020-09-19T09:48:55Z</time>
      </trkpt>
      <trkpt lat="45.07955" lon="1.52037">
        <ele>279</ele>
        <time>2020-09-19T09:49:33Z</time>
      </trkpt>
      <trkpt lat="45.08027" lon="1.5208">
        <ele>277</ele>
        <time>2020-09-19T09:51:18Z</time>
      </trkpt>
      <trkpt lat="45.08077" lon="1.52088">
        <ele>274</ele>
        <time>2020-09-19T09:52:25Z</time>
      </trkpt>
      <trkpt lat="45.08207" lon="1.52024">
        <ele>260</ele>
        <time>2020-09-19T09:55:29Z</time>
      </trkpt>
      <trkpt lat="45.08242" lon="1.52024">
        <ele>255</ele>
        <time>2020-09-19T09:56:15Z</time>
      </trkpt>
      <trkpt lat="45.0828" lon="1.51959">
        <ele>248</ele>
        <time>2020-09-19T09:57:35Z</time>
      </trkpt>
      <trkpt lat="45.08299" lon="1.51871">
        <ele>248</ele>
        <time>2020-09-19T09:59:01Z</time>
      </trkpt>
      <trkpt lat="45.08305" lon="1.51822">
        <ele>251</ele>
        <time>2020-09-19T09:59:48Z</time>
      </trkpt>
      <trkpt lat="45.0834" lon="1.51706">
        <ele>249</ele>
        <time>2020-09-19T10:01:47Z</time>
      </trkpt>
      <trkpt lat="45.08348" lon="1.51715">
        <ele>248</ele>
        <time>2020-09-19T10:02:01Z</time>
      </trkpt>
      <trkpt lat="45.08354" lon="1.51745">
        <ele>247</ele>
        <time>2020-09-19T10:02:30Z</time>
      </trkpt>
      <trkpt lat="45.08357" lon="1.5179">
        <ele>243</ele>
        <time>2020-09-19T10:03:13Z</time>
      </trkpt>
      <trkpt lat="45.08366" lon="1.51822">
        <ele>239</ele>
        <time>2020-09-19T10:03:45Z</time>
      </trkpt>
      <trkpt lat="45.08395" lon="1.51859">
        <ele>229</ele>
        <time>2020-09-19T10:04:37Z</time>
      </trkpt>
      <trkpt lat="45.08442" lon="1.51891">
        <ele>221</ele>
        <time>2020-09-19T10:05:47Z</time>
      </trkpt>
      <trkpt lat="45.08455" lon="1.51895">
        <ele>220</ele>
        <time>2020-09-19T10:06:05Z</time>
      </trkpt>
      <trkpt lat="45.08481" lon="1.51889">
        <ele>217</ele>
        <time>2020-09-19T10:06:40Z</time>
      </trkpt>
      <trkpt lat="45.08521" lon="1.51869">
        <ele>214</ele>
        <time>2020-09-19T10:07:36Z</time>
      </trkpt>
      <trkpt lat="45.08581" lon="1.51865">
        <ele>209</ele>
        <time>2020-09-19T10:08:57Z</time>
      </trkpt>
      <trkpt lat="45.08536" lon="1.51974">
        <ele>214</ele>
        <time>2020-09-19T10:10:56Z</time>
      </trkpt>
      <trkpt lat="45.0856" lon="1.52037">
        <ele>218</ele>
        <time>2020-09-19T10:12:03Z</time>
      </trkpt>
      <trkpt lat="45.08568" lon="1.52123">
        <ele>227</ele>
        <time>2020-09-19T10:13:25Z</time>
      </trkpt>
      <trkpt lat="45.08581" lon="1.52172">
        <ele>233</ele>
        <time>2020-09-19T10:14:14Z</time>
      </trkpt>
      <trkpt lat="45.08602" lon="1.52228">
        <ele>235</ele>
        <time>2020-09-19T10:15:14Z</time>
      </trkpt>
      <trkpt lat="45.08627" lon="1.52213">
        <ele>233</ele>
        <time>2020-09-19T10:15:50Z</time>
      </trkpt>
      <trkpt lat="45.08637" lon="1.52213">
        <ele>232</ele>
        <time>2020-09-19T10:16:03Z</time>
      </trkpt>
      <trkpt lat="45.08672" lon="1.52234">
        <ele>230</ele>
        <time>2020-09-19T10:16:54Z</time>
      </trkpt>
      <trkpt lat="45.0869" lon="1.52236">
        <ele>229</ele>
        <time>2020-09-19T10:17:18Z</time>
      </trkpt>
      <trkpt lat="45.08758" lon="1.52219">
        <ele>225</ele>
        <time>2020-09-19T10:18:50Z</time>
      </trkpt>
      <trkpt lat="45.08786" lon="1.52217">
        <ele>226</ele>
        <time>2020-09-19T10:19:28Z</time>
      </trkpt>
      <trkpt lat="45.08799" lon="1.52213">
        <ele>226</ele>
        <time>2020-09-19T10:19:45Z</time>
      </trkpt>
      <trkpt lat="45.08817" lon="1.52161">
        <ele>224</ele>
        <time>2020-09-19T10:20:40Z</time>
      </trkpt>
      <trkpt lat="45.08836" lon="1.52142">
        <ele>222</ele>
        <time>2020-09-19T10:21:11Z</time>
      </trkpt>
      <trkpt lat="45.08857" lon="1.52123">
        <ele>220</ele>
        <time>2020-09-19T10:21:44Z</time>
      </trkpt>
      <trkpt lat="45.08957" lon="1.52067">
        <ele>216</ele>
        <time>2020-09-19T10:24:08Z</time>
      </trkpt>
      <trkpt lat="45.09034" lon="1.51998">
        <ele>203</ele>
        <time>2020-09-19T10:26:09Z</time>
      </trkpt>
      <trkpt lat="45.09055" lon="1.51996">
        <ele>200</ele>
        <time>2020-09-19T10:26:38Z</time>
      </trkpt>
      <trkpt lat="45.0916" lon="1.52009">
        <ele>195</ele>
        <time>2020-09-19T10:28:58Z</time>
      </trkpt>
      <trkpt lat="45.09214" lon="1.52022">
        <ele>197</ele>
        <time>2020-09-19T10:30:11Z</time>
      </trkpt>
      <trkpt lat="45.09231" lon="1.51914">
        <ele>199</ele>
        <time>2020-09-19T10:31:56Z</time>
      </trkpt>
      <trkpt lat="45.09243" lon="1.51856">
        <ele>201</ele>
        <time>2020-09-19T10:32:52Z</time>
      </trkpt>
      <trkpt lat="45.09227" lon="1.5182">
        <ele>200</ele>
        <time>2020-09-19T10:33:33Z</time>
      </trkpt>
      <trkpt lat="45.0919" lon="1.5176">
        <ele>200</ele>
        <time>2020-09-19T10:34:48Z</time>
      </trkpt>
      <trkpt lat="45.09157" lon="1.51721">
        <ele>199</ele>
        <time>2020-09-19T10:35:45Z</time>
      </trkpt>
      <trkpt lat="45.09125" lon="1.51745">
        <ele>197</ele>
        <time>2020-09-19T10:36:33Z</time>
      </trkpt>
      <trkpt lat="45.09101" lon="1.51678">
        <ele>197</ele>
        <time>2020-09-19T10:37:44Z</time>
      </trkpt>
      <trkpt lat="45.09058" lon="1.51616">
        <ele>199</ele>
        <time>2020-09-19T10:39:06Z</time>
      </trkpt>
      <trkpt lat="45.09031" lon="1.51571">
        <ele>198</ele>
        <time>2020-09-19T10:40:02Z</time>
      </trkpt>
      <trkpt lat="45.08972" lon="1.51447">
        <ele>198</ele>
        <time>2020-09-19T10:42:22Z</time>
      </trkpt>
      <trkpt lat="45.08955" lon="1.51421">
        <ele>198</ele>
        <time>2020-09-19T10:42:56Z</time>
      </trkpt>
      <trkpt lat="45.08905" lon="1.51369">
        <ele>197</ele>
        <time>2020-09-19T10:44:19Z</time>
      </trkpt>
      <trkpt lat="45.08886" lon="1.51329">
        <ele>196</ele>
        <time>2020-09-19T10:45:04Z</time>
      </trkpt>
      <trkpt lat="45.08875" lon="1.51277">
        <ele>194</ele>
        <time>2020-09-19T10:45:55Z</time>
      </trkpt>
      <trkpt lat="45.08766" lon="1.5129">
        <ele>196</ele>
        <time>2020-09-19T10:48:21Z</time>
      </trkpt>
      <trkpt lat="45.08761" lon="1.51144">
        <ele>196</ele>
        <time>2020-09-19T10:50:39Z</time>
      </trkpt>
      <trkpt lat="45.08752" lon="1.5108">
        <ele>197</ele>
        <time>2020-09-19T10:51:40Z</time>
      </trkpt>
      <trkpt lat="45.08736" lon="1.51013">
        <ele>203</ele>
        <time>2020-09-19T10:52:47Z</time>
      </trkpt>
      <trkpt lat="45.08711" lon="1.50949">
        <ele>209</ele>
        <time>2020-09-19T10:53:56Z</time>
      </trkpt>
      <trkpt lat="45.08686" lon="1.50895">
        <ele>212</ele>
        <time>2020-09-19T10:54:57Z</time>
      </trkpt>
      <trkpt lat="45.08654" lon="1.50839">
        <ele>210</ele>
        <time>2020-09-19T10:56:05Z</time>
      </trkpt>
      <trkpt lat="45.08639" lon="1.50805">
        <ele>213</ele>
        <time>2020-09-19T10:56:42Z</time>
      </trkpt>
      <trkpt lat="45.08628" lon="1.50771">
        <ele>215</ele>
        <time>2020-09-19T10:57:18Z</time>
      </trkpt>
      <trkpt lat="45.08619" lon="1.5073">
        <ele>217</ele>
        <time>2020-09-19T10:57:58Z</time>
      </trkpt>
      <trkpt lat="45.08614" lon="1.50685">
        <ele>218</ele>
        <time>2020-09-19T10:58:41Z</time>
      </trkpt>
      <trkpt lat="45.08614" lon="1.50638">
        <ele>219</ele>
        <time>2020-09-19T10:59:25Z</time>
      </trkpt>
      <trkpt lat="45.08622" lon="1.50601">
        <ele>219</ele>
        <time>2020-09-19T11:00:02Z</time>
      </trkpt>
      <trkpt lat="45.08683" lon="1.50483">
        <ele>209</ele>
        <time>2020-09-19T11:02:20Z</time>
      </trkpt>
      <trkpt lat="45.08654" lon="1.50181">
        <ele>198</ele>
        <time>2020-09-19T11:07:07Z</time>
      </trkpt>
      <trkpt lat="45.08649" lon="1.50166">
        <ele>198</ele>
        <time>2020-09-19T11:07:22Z</time>
      </trkpt>
      <trkpt lat="45.08625" lon="1.5014">
        <ele>200</ele>
        <time>2020-09-19T11:08:03Z</time>
      </trkpt>
      <trkpt lat="45.08616" lon="1.50114">
        <ele>199</ele>
        <time>2020-09-19T11:08:30Z</time>
      </trkpt>
      <trkpt lat="45.08575" lon="1.50101">
        <ele>198</ele>
        <time>2020-09-19T11:09:26Z</time>
      </trkpt>
      <trkpt lat="45.08554" lon="1.50086">
        <ele>200</ele>
        <time>2020-09-19T11:09:57Z</time>
      </trkpt>
      <trkpt lat="45.0854" lon="1.50075">
        <ele>202</ele>
        <time>2020-09-19T11:10:19Z</time>
      </trkpt>
      <trkpt lat="45.08536" lon="1.50056">
        <ele>202</ele>
        <time>2020-09-19T11:10:37Z</time>
      </trkpt>
      <trkpt lat="45.08537" lon="1.50022">
        <ele>201</ele>
        <time>2020-09-19T11:11:09Z</time>
      </trkpt>
      <trkpt lat="45.08548" lon="1.49992">
        <ele>198</ele>
        <time>2020-09-19T11:11:41Z</time>
      </trkpt>
      <trkpt lat="45.08568" lon="1.4996">
        <ele>195</ele>
        <time>2020-09-19T11:12:22Z</time>
      </trkpt>
      <trkpt lat="45.08571" lon="1.49942">
        <ele>194</ele>
        <time>2020-09-19T11:12:39Z</time>
      </trkpt>
      <trkpt lat="45.08571" lon="1.49908">
        <ele>195</ele>
        <time>2020-09-19T11:13:11Z</time>
      </trkpt>
      <trkpt lat="45.08546" lon="1.49719">
        <ele>197</ele>
        <time>2020-09-19T11:16:12Z</time>
      </trkpt>
      <trkpt lat="45.08533" lon="1.49681">
        <ele>194</ele>
        <time>2020-09-19T11:16:52Z</time>
      </trkpt>
      <trkpt lat="45.08505" lon="1.49621">
        <ele>187</ele>
        <time>2020-09-19T11:18:00Z</time>
      </trkpt>
      <trkpt lat="45.08495" lon="1.49586">
        <ele>185</ele>
        <time>2020-09-19T11:18:35Z</time>
      </trkpt>
      <trkpt lat="45.08489" lon="1.49545">
        <ele>184</ele>
        <time>2020-09-19T11:19:15Z</time>
      </trkpt>
      <trkpt lat="45.08493" lon="1.49511">
        <ele>182</ele>
        <time>2020-09-19T11:19:47Z</time>
      </trkpt>
      <trkpt lat="45.08524" lon="1.49397">
        <ele>187</ele>
        <time>2020-09-19T11:21:42Z</time>
      </trkpt>
      <trkpt lat="45.08525" lon="1.49301">
        <ele>187</ele>
        <time>2020-09-19T11:23:13Z</time>
      </trkpt>
      <trkpt lat="45.08522" lon="1.49144">
        <ele>187</ele>
        <time>2020-09-19T11:25:41Z</time>
      </trkpt>
      <trkpt lat="45.08537" lon="1.49007">
        <ele>185</ele>
        <time>2020-09-19T11:27:51Z</time>
      </trkpt>
      <trkpt lat="45.08557" lon="1.48902">
        <ele>180</ele>
        <time>2020-09-19T11:29:34Z</time>
      </trkpt>
      <trkpt lat="45.08561" lon="1.4887">
        <ele>180</ele>
        <time>2020-09-19T11:30:05Z</time>
      </trkpt>
      <trkpt lat="45.08558" lon="1.48831">
        <ele>181</ele>
        <time>2020-09-19T11:30:41Z</time>
      </trkpt>
      <trkpt lat="45.08521" lon="1.48805">
        <ele>178</ele>
        <time>2020-09-19T11:31:37Z</time>
      </trkpt>
      <trkpt lat="45.08498" lon="1.48745">
        <ele>172</ele>
        <time>2020-09-19T11:32:41Z</time>
      </trkpt>
      <trkpt lat="45.08484" lon="1.48689">
        <ele>175</ele>
        <time>2020-09-19T11:33:37Z</time>
      </trkpt>
      <trkpt lat="45.0848" lon="1.48653">
        <ele>175</ele>
        <time>2020-09-19T11:34:11Z</time>
      </trkpt>
      <trkpt lat="45.08483" lon="1.48601">
        <ele>173</ele>
        <time>2020-09-19T11:35:00Z</time>
      </trkpt>
      <trkpt lat="45.08505" lon="1.48539">
        <ele>170</ele>
        <time>2020-09-19T11:36:06Z</time>
      </trkpt>
      <trkpt lat="45.0856" lon="1.48509">
        <ele>167</ele>
        <time>2020-09-19T11:37:24Z</time>
      </trkpt>
      <trkpt lat="45.08578" lon="1.48488">
        <ele>163</ele>
        <time>2020-09-19T11:37:56Z</time>
      </trkpt>
      <trkpt lat="45.08581" lon="1.48468">
        <ele>162</ele>
        <time>2020-09-19T11:38:15Z</time>
      </trkpt>
      <trkpt lat="45.0858" lon="1.48449">
        <ele>162</ele>
        <time>2020-09-19T11:38:33Z</time>
      </trkpt>
      <trkpt lat="45.08564" lon="1.484">
        <ele>165</ele>
        <time>2020-09-19T11:39:24Z</time>
      </trkpt>
      <trkpt lat="45.08557" lon="1.48335">
        <ele>168</ele>
        <time>2020-09-19T11:40:26Z</time>
      </trkpt>
      <trkpt lat="45.08563" lon="1.48269">
        <ele>162</ele>
        <time>2020-09-19T11:41:28Z</time>
      </trkpt>
      <trkpt lat="45.08592" lon="1.48155">
        <ele>156</ele>
        <time>2020-09-19T11:43:22Z</time>
      </trkpt>
      <trkpt lat="45.08658" lon="1.47973">
        <ele>157</ele>
        <time>2020-09-19T11:46:35Z</time>
      </trkpt>
      <trkpt lat="45.08696" lon="1.47889">
        <ele>161</ele>
        <time>2020-09-19T11:48:09Z</time>
      </trkpt>
      <trkpt lat="45.08733" lon="1.47822">
        <ele>160</ele>
        <time>2020-09-19T11:49:29Z</time>
      </trkpt>
      <trkpt lat="45.08751" lon="1.47801">
        <ele>159</ele>
        <time>2020-09-19T11:50:00Z</time>
      </trkpt>
      <trkpt lat="45.08813" lon="1.4778">
        <ele>156</ele>
        <time>2020-09-19T11:51:26Z</time>
      </trkpt>
      <trkpt lat="45.08871" lon="1.47767">
        <ele>152</ele>
        <time>2020-09-19T11:52:44Z</time>
      </trkpt>
      <trkpt lat="45.0889" lon="1.47747">
        <ele>149</ele>
        <time>2020-09-19T11:53:16Z</time>
      </trkpt>
      <trkpt lat="45.08919" lon="1.47709">
        <ele>147</ele>
        <time>2020-09-19T11:54:08Z</time>
      </trkpt>
      <trkpt lat="45.08946" lon="1.47666">
        <ele>148</ele>
        <time>2020-09-19T11:55:02Z</time>
      </trkpt>
      <trkpt lat="45.08992" lon="1.47565">
        <ele>146</ele>
        <time>2020-09-19T11:56:56Z</time>
      </trkpt>
      <trkpt lat="45.09001" lon="1.47556">
        <ele>145</ele>
        <time>2020-09-19T11:57:10Z</time>
      </trkpt>
      <trkpt lat="45.09031" lon="1.47546">
        <ele>148</ele>
        <time>2020-09-19T11:57:52Z</time>
      </trkpt>
      <trkpt lat="45.0904" lon="1.47522">
        <ele>147</ele>
        <time>2020-09-19T11:58:17Z</time>
      </trkpt>
      <trkpt lat="45.09054" lon="1.47456">
        <ele>143</ele>
        <time>2020-09-19T11:59:22Z</time>
      </trkpt>
      <trkpt lat="45.0907" lon="1.47404">
        <ele>142</ele>
        <time>2020-09-19T12:00:15Z</time>
      </trkpt>
      <trkpt lat="45.0908" lon="1.47395">
        <ele>142</ele>
        <time>2020-09-19T12:00:31Z</time>
      </trkpt>
      <trkpt lat="45.09089" lon="1.47404">
        <ele>140</ele>
        <time>2020-09-19T12:00:46Z</time>
      </trkpt>
      <trkpt lat="45.09102" lon="1.47423">
        <ele>139</ele>
        <time>2020-09-19T12:01:11Z</time>
      </trkpt>
      <trkpt lat="45.09131" lon="1.47471">
        <ele>141</ele>
        <time>2020-09-19T12:02:10Z</time>
      </trkpt>
      <trkpt lat="45.09186" lon="1.47533">
        <ele>145</ele>
        <time>2020-09-19T12:03:44Z</time>
      </trkpt>
      <trkpt lat="45.09216" lon="1.47561">
        <ele>145</ele>
        <time>2020-09-19T12:04:32Z</time>
      </trkpt>
      <trkpt lat="45.09246" lon="1.4758">
        <ele>141</ele>
        <time>2020-09-19T12:05:16Z</time>
      </trkpt>
      <trkpt lat="45.09266" lon="1.47586">
        <ele>143</ele>
        <time>2020-09-19T12:05:43Z</time>
      </trkpt>
      <trkpt lat="45.09308" lon="1.4758">
        <ele>145</ele>
        <time>2020-09-19T12:06:40Z</time>
      </trkpt>
      <trkpt lat="45.09342" lon="1.47559">
        <ele>147</ele>
        <time>2020-09-19T12:07:29Z</time>
      </trkpt>
      <trkpt lat="45.0936" lon="1.47541">
        <ele>149</ele>
        <time>2020-09-19T12:07:59Z</time>
      </trkpt>
      <trkpt lat="45.09389" lon="1.47503">
        <ele>150</ele>
        <time>2020-09-19T12:08:51Z</time>
      </trkpt>
      <trkpt lat="45.09395" lon="1.47473">
        <ele>149</ele>
        <time>2020-09-19T12:09:21Z</time>
      </trkpt>
      <trkpt lat="45.09401" lon="1.47419">
        <ele>144</ele>
        <time>2020-09-19T12:10:12Z</time>
      </trkpt>
      <trkpt lat="45.09401" lon="1.4737">
        <ele>140</ele>
        <time>2020-09-19T12:10:58Z</time>
      </trkpt>
      <trkpt lat="45.09404" lon="1.47355">
        <ele>138</ele>
        <time>2020-09-19T12:11:13Z</time>
      </trkpt>
      <trkpt lat="45.09414" lon="1.47348">
        <ele>136</ele>
        <time>2020-09-19T12:11:28Z</time>
      </trkpt>
      <trkpt lat="45.09436" lon="1.47348">
        <ele>139</ele>
        <time>2020-09-19T12:11:57Z</time>
      </trkpt>
      <trkpt lat="45.09463" lon="1.47342">
        <ele>143</ele>
        <time>2020-09-19T12:12:34Z</time>
      </trkpt>
      <trkpt lat="45.09484" lon="1.47325">
        <ele>144</ele>
        <time>2020-09-19T12:13:06Z</time>
      </trkpt>
      <trkpt lat="45.09502" lon="1.47299">
        <ele>144</ele>
        <time>2020-09-19T12:13:40Z</time>
      </trkpt>
      <trkpt lat="45.09508" lon="1.4728">
        <ele>141</ele>
        <time>2020-09-19T12:14:00Z</time>
      </trkpt>
      <trkpt lat="45.0951" lon="1.47258">
        <ele>139</ele>
        <time>2020-09-19T12:14:21Z</time>
      </trkpt>
      <trkpt lat="45.09514" lon="1.47243">
        <ele>138</ele>
        <time>2020-09-19T12:14:36Z</time>
      </trkpt>
      <trkpt lat="45.09523" lon="1.47228">
        <ele>139</ele>
        <time>2020-09-19T12:14:54Z</time>
      </trkpt>
      <trkpt lat="45.09519" lon="1.47181">
        <ele>137</ele>
        <time>2020-09-19T12:15:39Z</time>
      </trkpt>
      <trkpt lat="45.09526" lon="1.47131">
        <ele>139</ele>
        <time>2020-09-19T12:16:27Z</time>
      </trkpt>
      <trkpt lat="45.09499" lon="1.47065">
        <ele>132</ele>
        <time>2020-09-19T12:17:39Z</time>
      </trkpt>
      <trkpt lat="45.09487" lon="1.47013">
        <ele>134</ele>
        <time>2020-09-19T12:18:30Z</time>
      </trkpt>
      <trkpt lat="45.09472" lon="1.46981">
        <ele>134</ele>
        <time>2020-09-19T12:19:07Z</time>
      </trkpt>
      <trkpt lat="45.09457" lon="1.46966">
        <ele>134</ele>
        <time>2020-09-19T12:19:31Z</time>
      </trkpt>
      <trkpt lat="45.09481" lon="1.4685">
        <ele>139</ele>
        <time>2020-09-19T12:21:25Z</time>
      </trkpt>
      <trkpt lat="45.09466" lon="1.46707">
        <ele>134</ele>
        <time>2020-09-19T12:23:41Z</time>
      </trkpt>
      <trkpt lat="45.0949" lon="1.46698">
        <ele>136</ele>
        <time>2020-09-19T12:24:14Z</time>
      </trkpt>
      <trkpt lat="45.09508" lon="1.46679">
        <ele>137</ele>
        <time>2020-09-19T12:24:44Z</time>
      </trkpt>
      <trkpt lat="45.0952" lon="1.46627">
        <ele>135</ele>
        <time>2020-09-19T12:25:36Z</time>
      </trkpt>
      <trkpt lat="45.09526" lon="1.46576">
        <ele>132</ele>
        <time>2020-09-19T12:26:25Z</time>
      </trkpt>
      <trkpt lat="45.09537" lon="1.46541">
        <ele>131</ele>
        <time>2020-09-19T12:27:01Z</time>
      </trkpt>
      <trkpt lat="45.09572" lon="1.46496">
        <ele>131</ele>
        <time>2020-09-19T12:28:04Z</time>
      </trkpt>
      <trkpt lat="45.09607" lon="1.46471">
        <ele>130</ele>
        <time>2020-09-19T12:28:56Z</time>
      </trkpt>
      <trkpt lat="45.09639" lon="1.46464">
        <ele>130</ele>
        <time>2020-09-19T12:29:39Z</time>
      </trkpt>
      <trkpt lat="45.09669" lon="1.46471">
        <ele>132</ele>
        <time>2020-09-19T12:30:20Z</time>
      </trkpt>
      <trkpt lat="45.09708" lon="1.46501">
        <ele>134</ele>
        <time>2020-09-19T12:31:19Z</time>
      </trkpt>
      <trkpt lat="45.09743" lon="1.46533">
        <ele>138</ele>
        <time>2020-09-19T12:32:15Z</time>
      </trkpt>
      <trkpt lat="45.09787" lon="1.4655">
        <ele>143</ele>
        <time>2020-09-19T12:33:15Z</time>
      </trkpt>
      <trkpt lat="45.09805" lon="1.46539">
        <ele>143</ele>
        <time>2020-09-19T12:33:42Z</time>
      </trkpt>
      <trkpt lat="45.09822" lon="1.46556">
        <ele>145</ele>
        <time>2020-09-19T12:34:09Z</time>
      </trkpt>
      <trkpt lat="45.09857" lon="1.46483">
        <ele>150</ele>
        <time>2020-09-19T12:35:33Z</time>
      </trkpt>
      <trkpt lat="45.09873" lon="1.46462">
        <ele>153</ele>
        <time>2020-09-19T12:36:02Z</time>
      </trkpt>
      <trkpt lat="45.09969" lon="1.46387">
        <ele>166</ele>
        <time>2020-09-19T12:38:28Z</time>
      </trkpt>
      <trkpt lat="45.10026" lon="1.46372">
        <ele>177</ele>
        <time>2020-09-19T12:39:45Z</time>
      </trkpt>
      <trkpt lat="45.10055" lon="1.46359">
        <ele>182</ele>
        <time>2020-09-19T12:40:26Z</time>
      </trkpt>
      <trkpt lat="45.10066" lon="1.46348">
        <ele>182</ele>
        <time>2020-09-19T12:40:44Z</time>
      </trkpt>
      <trkpt lat="45.10084" lon="1.46314">
        <ele>181</ele>
        <time>2020-09-19T12:41:24Z</time>
      </trkpt>
      <trkpt lat="45.10096" lon="1.46301">
        <ele>180</ele>
        <time>2020-09-19T12:41:44Z</time>
      </trkpt>
      <trkpt lat="45.10226" lon="1.46228">
        <ele>182</ele>
        <time>2020-09-19T12:44:51Z</time>
      </trkpt>
      <trkpt lat="45.10255" lon="1.46215">
        <ele>183</ele>
        <time>2020-09-19T12:45:31Z</time>
      </trkpt>
      <trkpt lat="45.10284" lon="1.46217">
        <ele>185</ele>
        <time>2020-09-19T12:46:10Z</time>
      </trkpt>
      <trkpt lat="45.1031" lon="1.462">
        <ele>185</ele>
        <time>2020-09-19T12:46:48Z</time>
      </trkpt>
      <trkpt lat="45.10302" lon="1.46104">
        <ele>184</ele>
        <time>2020-09-19T12:48:19Z</time>
      </trkpt>
      <trkpt lat="45.1031" lon="1.46089">
        <ele>185</ele>
        <time>2020-09-19T12:48:37Z</time>
      </trkpt>
      <trkpt lat="45.10337" lon="1.46089">
        <ele>190</ele>
        <time>2020-09-19T12:49:13Z</time>
      </trkpt>
      <trkpt lat="45.10409" lon="1.46166">
        <ele>199</ele>
        <time>2020-09-19T12:51:13Z</time>
      </trkpt>
      <trkpt lat="45.10429" lon="1.46181">
        <ele>203</ele>
        <time>2020-09-19T12:51:44Z</time>
      </trkpt>
      <trkpt lat="45.10458" lon="1.46228">
        <ele>209</ele>
        <time>2020-09-19T12:52:42Z</time>
      </trkpt>
      <trkpt lat="45.10482" lon="1.46243">
        <ele>213</ele>
        <time>2020-09-19T12:53:17Z</time>
      </trkpt>
      <trkpt lat="45.10517" lon="1.46187">
        <ele>221</ele>
        <time>2020-09-19T12:54:28Z</time>
      </trkpt>
      <trkpt lat="45.10593" lon="1.46159">
        <ele>230</ele>
        <time>2020-09-19T12:56:13Z</time>
      </trkpt>
      <trkpt lat="45.10631" lon="1.46164">
        <ele>232</ele>
        <time>2020-09-19T12:57:04Z</time>
      </trkpt>
      <trkpt lat="45.10661" lon="1.46211">
        <ele>232</ele>
        <time>2020-09-19T12:58:03Z</time>
      </trkpt>
      <trkpt lat="45.10697" lon="1.46155">
        <ele>241</ele>
        <time>2020-09-19T12:59:15Z</time>
      </trkpt>
      <trkpt lat="45.10724" lon="1.46149">
        <ele>246</ele>
        <time>2020-09-19T12:59:51Z</time>
      </trkpt>
      <trkpt lat="45.10768" lon="1.46147">
        <ele>255</ele>
        <time>2020-09-19T13:00:50Z</time>
      </trkpt>
      <trkpt lat="45.10805" lon="1.46134">
        <ele>261</ele>
        <time>2020-09-19T13:01:41Z</time>
      </trkpt>
      <trkpt lat="45.10849" lon="1.4611">
        <ele>266</ele>
        <time>2020-09-19T13:02:44Z</time>
      </trkpt>
      <trkpt lat="45.10877" lon="1.4611">
        <ele>270</ele>
        <time>2020-09-19T13:03:21Z</time>
      </trkpt>
      <trkpt lat="45.10959" lon="1.46138">
        <ele>287</ele>
        <time>2020-09-19T13:05:14Z</time>
      </trkpt>
      <trkpt lat="45.10979" lon="1.46174">
        <ele>293</ele>
        <time>2020-09-19T13:05:57Z</time>
      </trkpt>
      <trkpt lat="45.11002" lon="1.4619">
        <ele>298</ele>
        <time>2020-09-19T13:06:31Z</time>
      </trkpt>
      <trkpt lat="45.11018" lon="1.4625">
        <ele>303</ele>
        <time>2020-09-19T13:07:31Z</time>
      </trkpt>
      <trkpt lat="45.11038" lon="1.46267">
        <ele>306</ele>
        <time>2020-09-19T13:08:02Z</time>
      </trkpt>
      <trkpt lat="45.11073" lon="1.46258">
        <ele>313</ele>
        <time>2020-09-19T13:08:50Z</time>
      </trkpt>
      <trkpt lat="45.11133" lon="1.46215">
        <ele>322</ele>
        <time>2020-09-19T13:10:20Z</time>
      </trkpt>
      <trkpt lat="45.11156" lon="1.46177">
        <ele>325</ele>
        <time>2020-09-19T13:11:07Z</time>
      </trkpt>
      <trkpt lat="45.11186" lon="1.46136">
        <ele>326</ele>
        <time>2020-09-19T13:12:02Z</time>
      </trkpt>
      <trkpt lat="45.11277" lon="1.46046">
        <ele>327</ele>
        <time>2020-09-19T13:14:30Z</time>
      </trkpt>
      <trkpt lat="45.11347" lon="1.45992">
        <ele>331</ele>
        <time>2020-09-19T13:16:17Z</time>
      </trkpt>
      <trkpt lat="45.11401" lon="1.45936">
        <ele>334</ele>
        <time>2020-09-19T13:17:46Z</time>
      </trkpt>
      <trkpt lat="45.11463" lon="1.45881">
        <ele>340</ele>
        <time>2020-09-19T13:19:24Z</time>
      </trkpt>
      <trkpt lat="45.11506" lon="1.45823">
        <ele>343</ele>
        <time>2020-09-19T13:20:43Z</time>
      </trkpt>
      <trkpt lat="45.116" lon="1.45745">
        <ele>342</ele>
        <time>2020-09-19T13:23:08Z</time>
      </trkpt>
      <trkpt lat="45.11641" lon="1.45698">
        <ele>335</ele>
        <time>2020-09-19T13:24:19Z</time>
      </trkpt>
      <trkpt lat="45.11801" lon="1.45595">
        <ele>318</ele>
        <time>2020-09-19T13:28:13Z</time>
      </trkpt>
      <trkpt lat="45.11827" lon="1.45584">
        <ele>317</ele>
        <time>2020-09-19T13:28:49Z</time>
      </trkpt>
      <trkpt lat="45.11877" lon="1.45541">
        <ele>320</ele>
        <time>2020-09-19T13:30:07Z</time>
      </trkpt>
      <trkpt lat="45.11913" lon="1.45556">
        <ele>321</ele>
        <time>2020-09-19T13:30:58Z</time>
      </trkpt>
      <trkpt lat="45.11975" lon="1.45567">
        <ele>316</ele>
        <time>2020-09-19T13:32:21Z</time>
      </trkpt>
      <trkpt lat="45.12039" lon="1.45529">
        <ele>312</ele>
        <time>2020-09-19T13:33:53Z</time>
      </trkpt>
      <trkpt lat="45.12063" lon="1.45507">
        <ele>310</ele>
        <time>2020-09-19T13:34:32Z</time>
      </trkpt>
      <trkpt lat="45.12074" lon="1.45471">
        <ele>310</ele>
        <time>2020-09-19T13:35:09Z</time>
      </trkpt>
      <trkpt lat="45.12105" lon="1.45447">
        <ele>305</ele>
        <time>2020-09-19T13:35:56Z</time>
      </trkpt>
      <trkpt lat="45.12131" lon="1.45454">
        <ele>299</ele>
        <time>2020-09-19T13:36:31Z</time>
      </trkpt>
      <trkpt lat="45.12166" lon="1.45503">
        <ele>292</ele>
        <time>2020-09-19T13:37:37Z</time>
      </trkpt>
      <trkpt lat="45.12228" lon="1.45531">
        <ele>281</ele>
        <time>2020-09-19T13:39:04Z</time>
      </trkpt>
      <trkpt lat="45.1226" lon="1.45589">
        <ele>278</ele>
        <time>2020-09-19T13:40:13Z</time>
      </trkpt>
      <trkpt lat="45.12336" lon="1.45602">
        <ele>270</ele>
        <time>2020-09-19T13:41:55Z</time>
      </trkpt>
      <trkpt lat="45.12373" lon="1.45636">
        <ele>262</ele>
        <time>2020-09-19T13:42:54Z</time>
      </trkpt>
      <trkpt lat="45.12413" lon="1.45574">
        <ele>256</ele>
        <time>2020-09-19T13:44:13Z</time>
      </trkpt>
      <trkpt lat="45.12414" lon="1.45505">
        <ele>253</ele>
        <time>2020-09-19T13:45:18Z</time>
      </trkpt>
      <trkpt lat="45.12396" lon="1.45351">
        <ele>243</ele>
        <time>2020-09-19T13:47:45Z</time>
      </trkpt>
      <trkpt lat="45.12458" lon="1.45346">
        <ele>232</ele>
        <time>2020-09-19T13:49:08Z</time>
      </trkpt>
      <trkpt lat="45.12502" lon="1.45368">
        <ele>227</ele>
        <time>2020-09-19T13:50:10Z</time>
      </trkpt>
      <trkpt lat="45.12598" lon="1.45357">
        <ele>211</ele>
        <time>2020-09-19T13:52:19Z</time>
      </trkpt>
      <trkpt lat="45.12707" lon="1.45325">
        <ele>198</ele>
        <time>2020-09-19T13:54:47Z</time>
      </trkpt>
      <trkpt lat="45.12734" lon="1.45348">
        <ele>193</ele>
        <time>2020-09-19T13:55:29Z</time>
      </trkpt>
      <trkpt lat="45.12763" lon="1.45335">
        <ele>190</ele>
        <time>2020-09-19T13:56:10Z</time>
      </trkpt>
      <trkpt lat="45.12835" lon="1.45338">
        <ele>183</ele>
        <time>2020-09-19T13:57:46Z</time>
      </trkpt>
      <trkpt lat="45.12882" lon="1.45314">
        <ele>180</ele>
        <time>2020-09-19T13:58:53Z</time>
      </trkpt>
      <trkpt lat="45.12993" lon="1.45288">
        <ele>167</ele>
        <time>2020-09-19T14:01:23Z</time>
      </trkpt>
      <trkpt lat="45.13046" lon="1.45269">
        <ele>161</ele>
        <time>2020-09-19T14:02:36Z</time>
      </trkpt>
      <trkpt lat="45.13259" lon="1.45224">
        <ele>146</ele>
        <time>2020-09-19T14:07:23Z</time>
      </trkpt>
      <trkpt lat="45.13308" lon="1.4522">
        <ele>142</ele>
        <time>2020-09-19T14:08:28Z</time>
      </trkpt>
      <trkpt lat="45.1347" lon="1.45175">
        <ele>132</ele>
        <time>2020-09-19T14:12:09Z</time>
      </trkpt>
      <trkpt lat="45.13447" lon="1.45112">
        <ele>133</ele>
        <time>2020-09-19T14:13:16Z</time>
      </trkpt>
      <trkpt lat="45.13498" lon="1.45074">
        <ele>132</ele>
        <time>2020-09-19T14:14:32Z</time>
      </trkpt>
      <trkpt lat="45.13557" lon="1.45009">
        <ele>130</ele>
        <time>2020-09-19T14:16:12Z</time>
      </trkpt>
      <trkpt lat="45.13603" lon="1.44977">
        <ele>128</ele>
        <time>2020-09-19T14:17:21Z</time>
      </trkpt>
      <trkpt lat="45.13636" lon="1.44979">
        <ele>125</ele>
        <time>2020-09-19T14:18:05Z</time>
      </trkpt>
      <trkpt lat="45.13672" lon="1.44947">
        <ele>120</ele>
        <time>2020-09-19T14:19:01Z</time>
      </trkpt>
      <trkpt lat="45.13701" lon="1.4496">
        <ele>117</ele>
        <time>2020-09-19T14:19:42Z</time>
      </trkpt>
      <trkpt lat="45.13716" lon="1.44947">
        <ele>114</ele>
        <time>2020-09-19T14:20:05Z</time>
      </trkpt>
      <trkpt lat="45.1375" lon="1.44951">
        <ele>109</ele>
        <time>2020-09-19T14:20:51Z</time>
      </trkpt>
      <trkpt lat="45.13757" lon="1.4493">
        <ele>108</ele>
        <time>2020-09-19T14:21:13Z</time>
      </trkpt>
      <trkpt lat="45.13737" lon="1.44902">
        <ele>108</ele>
        <time>2020-09-19T14:21:50Z</time>
      </trkpt>
      <trkpt lat="45.1373" lon="1.44863">
        <ele>106</ele>
        <time>2020-09-19T14:22:28Z</time>
      </trkpt>
      <trkpt lat="45.13769" lon="1.44827">
        <ele>101</ele>
        <time>2020-09-19T14:23:30Z</time>
      </trkpt>
      <trkpt lat="45.13803" lon="1.44857">
        <ele>102</ele>
        <time>2020-09-19T14:24:24Z</time>
      </trkpt>
      <trkpt lat="45.13828" lon="1.44846">
        <ele>101</ele>
        <time>2020-09-19T14:24:59Z</time>
      </trkpt>
      <trkpt lat="45.13963" lon="1.44921">
        <ele>105</ele>
        <time>2020-09-19T14:28:12Z</time>
      </trkpt>
      <trkpt lat="45.14055" lon="1.44702">
        <ele>97</ele>
        <time>2020-09-19T14:32:12Z</time>
      </trkpt>
      <trkpt lat="45.14096" lon="1.44687">
        <ele>97</ele>
        <time>2020-09-19T14:33:09Z</time>
      </trkpt>
      <trkpt lat="45.14072" lon="1.4463">
        <ele>98</ele>
        <time>2020-09-19T14:34:11Z</time>
      </trkpt>
      <trkpt lat="45.14078" lon="1.44578">
        <ele>98</ele>
        <time>2020-09-19T14:35:01Z</time>
      </trkpt>
      <trkpt lat="45.14201" lon="1.44632">
        <ele>97</ele>
        <time>2020-09-19T14:37:52Z</time>
      </trkpt>
      <trkpt lat="45.14261" lon="1.44514">
        <ele>97</ele>
        <time>2020-09-19T14:40:09Z</time>
      </trkpt>
      <trkpt lat="45.14232" lon="1.44477">
        <ele>97</ele>
        <time>2020-09-19T14:41:01Z</time>
      </trkpt>
      <trkpt lat="45.14261" lon="1.44409">
        <ele>98</ele>
        <time>2020-09-19T14:42:16Z</time>
      </trkpt>
      <trkpt lat="45.14302" lon="1.44406">
        <ele>99</ele>
        <time>2020-09-19T14:43:11Z</time>
      </trkpt>
      <trkpt lat="45.14319" lon="1.44323">
        <ele>101</ele>
        <time>2020-09-19T14:44:32Z</time>
      </trkpt>
      <trkpt lat="45.14443" lon="1.44376">
        <ele>103</ele>
        <time>2020-09-19T14:47:25Z</time>
      </trkpt>
      <trkpt lat="45.14588" lon="1.44355">
        <ele>107</ele>
        <time>2020-09-19T14:50:40Z</time>
      </trkpt>
      <trkpt lat="45.14612" lon="1.4437">
        <ele>107</ele>
        <time>2020-09-19T14:51:15Z</time>
      </trkpt>
      <trkpt lat="45.14652" lon="1.44415">
        <ele>108</ele>
        <time>2020-09-19T14:52:23Z</time>
      </trkpt>
      <trkpt lat="45.14894" lon="1.44196">
        <ele>114</ele>
        <time>2020-09-19T14:58:46Z</time>
      </trkpt>
      <trkpt lat="45.14972" lon="1.44102">
        <ele>118</ele>
        <time>2020-09-19T15:01:03Z</time>
      </trkpt>
      <trkpt lat="45.1524" lon="1.44185">
        <ele>149</ele>
        <time>2020-09-19T15:07:09Z</time>
      </trkpt>
      <trkpt lat="45.15307" lon="1.44194">
        <ele>154</ele>
        <time>2020-09-19T15:08:38Z</time>
      </trkpt>
      <trkpt lat="45.1537" lon="1.44218">
        <ele>157</ele>
        <time>2020-09-19T15:10:06Z</time>
      </trkpt>
      <trkpt lat="45.15534" lon="1.44245">
        <ele>171</ele>
        <time>2020-09-19T15:13:46Z</time>
      </trkpt>
      <trkpt lat="45.15591" lon="1.44357">
        <ele>176</ele>
        <time>2020-09-19T15:15:56Z</time>
      </trkpt>
      <trkpt lat="45.15638" lon="1.44344">
        <ele>174</ele>
        <time>2020-09-19T15:17:00Z</time>
      </trkpt>
      <trkpt lat="45.15641" lon="1.44494">
        <ele>172</ele>
        <time>2020-09-19T15:19:21Z</time>
      </trkpt>
      <trkpt lat="45.15684" lon="1.44557">
        <ele>173</ele>
        <time>2020-09-19T15:20:43Z</time>
      </trkpt>
      <trkpt lat="45.15725" lon="1.44606">
        <ele>175</ele>
        <time>2020-09-19T15:21:55Z</time>
      </trkpt>
      <trkpt lat="45.15767" lon="1.44554">
        <ele>169</ele>
        <time>2020-09-19T15:23:09Z</time>
      </trkpt>
      <trkpt lat="45.15821" lon="1.44529">
        <ele>162</ele>
        <time>2020-09-19T15:24:25Z</time>
      </trkpt>
      <trkpt lat="45.15936" lon="1.44503">
        <ele>157</ele>
        <time>2020-09-19T15:27:01Z</time>
      </trkpt>
      <trkpt lat="45.1598" lon="1.44441">
        <ele>152</ele>
        <time>2020-09-19T15:28:23Z</time>
      </trkpt>
      <trkpt lat="45.16057" lon="1.44396">
        <ele>144</ele>
        <time>2020-09-19T15:30:14Z</time>
      </trkpt>
      <trkpt lat="45.16088" lon="1.44411">
        <ele>143</ele>
        <time>2020-09-19T15:30:58Z</time>
      </trkpt>
      <trkpt lat="45.16122" lon="1.44471">
        <ele>143</ele>
        <time>2020-09-19T15:32:11Z</time>
      </trkpt>
      <trkpt lat="45.16148" lon="1.44436">
        <ele>142</ele>
        <time>2020-09-19T15:32:58Z</time>
      </trkpt>
      <trkpt lat="45.16183" lon="1.4449">
        <ele>142</ele>
        <time>2020-09-19T15:34:07Z</time>
      </trkpt>
      <trkpt lat="45.16275" lon="1.44554">
        <ele>144</ele>
        <time>2020-09-19T15:36:24Z</time>
      </trkpt>
      <trkpt lat="45.16304" lon="1.44597">
        <ele>143</ele>
        <time>2020-09-19T15:37:20Z</time>
      </trkpt>
      <trkpt lat="45.16312" lon="1.4463">
        <ele>144</ele>
        <time>2020-09-19T15:37:53Z</time>
      </trkpt>
      <trkpt lat="45.16392" lon="1.45333">
        <ele>131</ele>
        <time>2020-09-19T15:49:03Z</time>
      </trkpt>
      <trkpt lat="45.16384" lon="1.45378">
        <ele>121</ele>
        <time>2020-09-19T15:49:47Z</time>
      </trkpt>
      <trkpt lat="45.16348" lon="1.45408">
        <ele>120</ele>
        <time>2020-09-19T15:50:42Z</time>
      </trkpt>
      <trkpt lat="45.16315" lon="1.45473">
        <ele>112</ele>
        <time>2020-09-19T15:51:58Z</time>
      </trkpt>
      <trkpt lat="45.16369" lon="1.4549">
        <ele>103</ele>
        <time>2020-09-19T15:53:12Z</time>
      </trkpt>
      <trkpt lat="45.16523" lon="1.45612">
        <ele>98</ele>
        <time>2020-09-19T15:57:07Z</time>
      </trkpt>
      <trkpt lat="45.16548" lon="1.45563">
        <ele>100</ele>
        <time>2020-09-19T15:58:04Z</time>
      </trkpt>
      <trkpt lat="45.16578" lon="1.45533">
        <ele>102</ele>
        <time>2020-09-19T15:58:53Z</time>
      </trkpt>
      <trkpt lat="45.16599" lon="1.45544">
        <ele>106</ele>
        <time>2020-09-19T15:59:23Z</time>
      </trkpt>
      <trkpt lat="45.16611" lon="1.45582">
        <ele>109</ele>
        <time>2020-09-19T16:00:02Z</time>
      </trkpt>
      <trkpt lat="45.16641" lon="1.45604">
        <ele>114</ele>
        <time>2020-09-19T16:00:47Z</time>
      </trkpt>
      <trkpt lat="45.16725" lon="1.45602">
        <ele>132</ele>
        <time>2020-09-19T16:02:39Z</time>
      </trkpt>
      <trkpt lat="45.16806" lon="1.45587">
        <ele>150</ele>
        <time>2020-09-19T16:04:28Z</time>
      </trkpt>
      <trkpt lat="45.16874" lon="1.45587">
        <ele>162</ele>
        <time>2020-09-19T16:05:59Z</time>
      </trkpt>
      <trkpt lat="45.16988" lon="1.45554">
        <ele>175</ele>
        <time>2020-09-19T16:08:34Z</time>
      </trkpt>
      <trkpt lat="45.17129" lon="1.45451">
        <ele>184</ele>
        <time>2020-09-19T16:12:06Z</time>
      </trkpt>
      <trkpt lat="45.17172" lon="1.45398">
        <ele>188</ele>
        <time>2020-09-19T16:13:22Z</time>
      </trkpt>
      <trkpt lat="45.17277" lon="1.45331">
        <ele>189</ele>
        <time>2020-09-19T16:15:55Z</time>
      </trkpt>
      <trkpt lat="45.17277" lon="1.45275">
        <ele>185</ele>
        <time>2020-09-19T16:16:48Z</time>
      </trkpt>
      <trkpt lat="45.17383" lon="1.45179">
        <ele>177</ele>
        <time>2020-09-19T16:19:36Z</time>
      </trkpt>
      <trkpt lat="45.17399" lon="1.45104">
        <ele>179</ele>
        <time>2020-09-19T16:20:50Z</time>
      </trkpt>
      <trkpt lat="45.17455" lon="1.44971">
        <ele>184</ele>
        <time>2020-09-19T16:23:15Z</time>
      </trkpt>
      <trkpt lat="45.17449" lon="1.44859">
        <ele>191</ele>
        <time>2020-09-19T16:25:01Z</time>
      </trkpt>
      <trkpt lat="45.17479" lon="1.44793">
        <ele>192</ele>
        <time>2020-09-19T16:26:15Z</time>
      </trkpt>
      <trkpt lat="45.17514" lon="1.44604">
        <ele>200</ele>
        <time>2020-09-19T16:29:19Z</time>
      </trkpt>
      <trkpt lat="45.17514" lon="1.4455">
        <ele>203</ele>
        <time>2020-09-19T16:30:10Z</time>
      </trkpt>
      <trkpt lat="45.1749" lon="1.4449">
        <ele>205</ele>
        <time>2020-09-19T16:31:15Z</time>
      </trkpt>
      <trkpt lat="45.17485" lon="1.44415">
        <ele>201</ele>
        <time>2020-09-19T16:32:25Z</time>
      </trkpt>
      <trkpt lat="45.17526" lon="1.44308">
        <ele>206</ele>
        <time>2020-09-19T16:34:20Z</time>
      </trkpt>
      <trkpt lat="45.17526" lon="1.44215">
        <ele>205</ele>
        <time>2020-09-19T16:35:47Z</time>
      </trkpt>
      <trkpt lat="45.17513" lon="1.44177">
        <ele>208</ele>
        <time>2020-09-19T16:36:27Z</time>
      </trkpt>
      <trkpt lat="45.17513" lon="1.44095">
        <ele>213</ele>
        <time>2020-09-19T16:37:44Z</time>
      </trkpt>
      <trkpt lat="45.17643" lon="1.43913">
        <ele>208</ele>
        <time>2020-09-19T16:41:48Z</time>
      </trkpt>
      <trkpt lat="45.17679" lon="1.43868">
        <ele>207</ele>
        <time>2020-09-19T16:42:52Z</time>
      </trkpt>
      <trkpt lat="45.17699" lon="1.43823">
        <ele>206</ele>
        <time>2020-09-19T16:43:42Z</time>
      </trkpt>
      <trkpt lat="45.17714" lon="1.43767">
        <ele>204</ele>
        <time>2020-09-19T16:44:38Z</time>
      </trkpt>
      <trkpt lat="45.17741" lon="1.43733">
        <ele>205</ele>
        <time>2020-09-19T16:45:27Z</time>
      </trkpt>
      <trkpt lat="45.17774" lon="1.43863">
        <ele>199</ele>
        <time>2020-09-19T16:47:37Z</time>
      </trkpt>
      <trkpt lat="45.17808" lon="1.43934">
        <ele>188</ele>
        <time>2020-09-19T16:48:57Z</time>
      </trkpt>
      <trkpt lat="45.1782" lon="1.44046">
        <ele>181</ele>
        <time>2020-09-19T16:50:44Z</time>
      </trkpt>
      <trkpt lat="45.17835" lon="1.44108">
        <ele>172</ele>
        <time>2020-09-19T16:51:46Z</time>
      </trkpt>
      <trkpt lat="45.17858" lon="1.44138">
        <ele>163</ele>
        <time>2020-09-19T16:52:27Z</time>
      </trkpt>
      <trkpt lat="45.17882" lon="1.44164">
        <ele>158</ele>
        <time>2020-09-19T16:53:08Z</time>
      </trkpt>
      <trkpt lat="45.17941" lon="1.44179">
        <ele>150</ele>
        <time>2020-09-19T16:54:28Z</time>
      </trkpt>
      <trkpt lat="45.17986" lon="1.44179">
        <ele>144</ele>
        <time>2020-09-19T16:55:28Z</time>
      </trkpt>
      <trkpt lat="45.1811" lon="1.44239">
        <ele>129</ele>
        <time>2020-09-19T16:58:22Z</time>
      </trkpt>
      <trkpt lat="45.18143" lon="1.44267">
        <ele>127</ele>
        <time>2020-09-19T16:59:14Z</time>
      </trkpt>
      <trkpt lat="45.18208" lon="1.44269">
        <ele>127</ele>
        <time>2020-09-19T17:00:41Z</time>
      </trkpt>
      <trkpt lat="45.18278" lon="1.44426">
        <ele>122</ele>
        <time>2020-09-19T17:03:35Z</time>
      </trkpt>
      <trkpt lat="45.18343" lon="1.44496">
        <ele>120</ele>
        <time>2020-09-19T17:05:24Z</time>
      </trkpt>
      <trkpt lat="45.18385" lon="1.44559">
        <ele>117</ele>
        <time>2020-09-19T17:06:46Z</time>
      </trkpt>
      <trkpt lat="45.18485" lon="1.44599">
        <ele>115</ele>
        <time>2020-09-19T17:09:04Z</time>
      </trkpt>
      <trkpt lat="45.18615" lon="1.4466">
        <ele>112</ele>
        <time>2020-09-19T17:12:07Z</time>
      </trkpt>
      <trkpt lat="45.18709" lon="1.44685">
        <ele>112</ele>
        <time>2020-09-19T17:14:15Z</time>
      </trkpt>
      <trkpt lat="45.18748" lon="1.4469">
        <ele>111</ele>
        <time>2020-09-19T17:15:07Z</time>
      </trkpt>
      <trkpt lat="45.18866" lon="1.44737">
        <ele>109</ele>
        <time>2020-09-19T17:17:51Z</time>
      </trkpt>
      <trkpt lat="45.18965" lon="1.44788">
        <ele>108</ele>
        <time>2020-09-19T17:20:11Z</time>
      </trkpt>
      <trkpt lat="45.19027" lon="1.44793">
        <ele>108</ele>
        <time>2020-09-19T17:21:34Z</time>
      </trkpt>
      <trkpt lat="45.19066" lon="1.44863">
        <ele>106</ele>
        <time>2020-09-19T17:22:58Z</time>
      </trkpt>
      <trkpt lat="45.19136" lon="1.44896">
        <ele>107</ele>
        <time>2020-09-19T17:24:36Z</time>
      </trkpt>
      <trkpt lat="45.19238" lon="1.44962">
        <ele>105</ele>
        <time>2020-09-19T17:27:06Z</time>
      </trkpt>
      <trkpt lat="45.193" lon="1.45009">
        <ele>105</ele>
        <time>2020-09-19T17:28:40Z</time>
      </trkpt>
      <trkpt lat="45.1934" lon="1.45026">
        <ele>105</ele>
        <time>2020-09-19T17:29:35Z</time>
      </trkpt>
      <trkpt lat="45.19368" lon="1.45104">
        <ele>104</ele>
        <time>2020-09-19T17:30:58Z</time>
      </trkpt>
      <trkpt lat="45.19421" lon="1.45284">
        <ele>101</ele>
        <time>2020-09-19T17:34:01Z</time>
      </trkpt>
      <trkpt lat="45.19449" lon="1.45355">
        <ele>100</ele>
        <time>2020-09-19T17:35:18Z</time>
      </trkpt>
      <trkpt lat="45.19548" lon="1.45511">
        <ele>103</ele>
        <time>2020-09-19T17:38:35Z</time>
      </trkpt>
      <trkpt lat="45.19713" lon="1.45383">
        <ele>118</ele>
        <time>2020-09-19T17:42:46Z</time>
      </trkpt>
      <trkpt lat="45.19749" lon="1.45387">
        <ele>126</ele>
        <time>2020-09-19T17:43:34Z</time>
      </trkpt>
      <trkpt lat="45.19796" lon="1.45338">
        <ele>121</ele>
        <time>2020-09-19T17:44:52Z</time>
      </trkpt>
      <trkpt lat="45.19842" lon="1.45329">
        <ele>128</ele>
        <time>2020-09-19T17:45:54Z</time>
      </trkpt>
      <trkpt lat="45.19904" lon="1.45295">
        <ele>128</ele>
        <time>2020-09-19T17:47:23Z</time>
      </trkpt>
      <trkpt lat="45.19937" lon="1.45286">
        <ele>130</ele>
        <time>2020-09-19T17:48:08Z</time>
      </trkpt>
      <trkpt lat="45.19966" lon="1.45299">
        <ele>135</ele>
        <time>2020-09-19T17:48:48Z</time>
      </trkpt>
      <trkpt lat="45.19984" lon="1.4532">
        <ele>139</ele>
        <time>2020-09-19T17:49:19Z</time>
      </trkpt>
      <trkpt lat="45.19997" lon="1.45359">
        <ele>145</ele>
        <time>2020-09-19T17:50:00Z</time>
      </trkpt>
      <trkpt lat="45.20038" lon="1.45372">
        <ele>150</ele>
        <time>2020-09-19T17:50:56Z</time>
      </trkpt>
      <trkpt lat="45.20069" lon="1.45314">
        <ele>146</ele>
        <time>2020-09-19T17:52:04Z</time>
      </trkpt>
      <trkpt lat="45.20099" lon="1.45295">
        <ele>146</ele>
        <time>2020-09-19T17:52:48Z</time>
      </trkpt>
      <trkpt lat="45.20106" lon="1.45348">
        <ele>152</ele>
        <time>2020-09-19T17:53:39Z</time>
      </trkpt>
      <trkpt lat="45.20132" lon="1.45391">
        <ele>156</ele>
        <time>2020-09-19T17:54:32Z</time>
      </trkpt>
      <trkpt lat="45.20161" lon="1.45428">
        <ele>160</ele>
        <time>2020-09-19T17:55:24Z</time>
      </trkpt>
      <trkpt lat="45.20206" lon="1.45462">
        <ele>163</ele>
        <time>2020-09-19T17:56:32Z</time>
      </trkpt>
      <trkpt lat="45.20261" lon="1.45488">
        <ele>165</ele>
        <time>2020-09-19T17:57:50Z</time>
      </trkpt>
      <trkpt lat="45.2038" lon="1.45484">
        <ele>165</ele>
        <time>2020-09-19T18:00:28Z</time>
      </trkpt>
      <trkpt lat="45.20451" lon="1.45469">
        <ele>165</ele>
        <time>2020-09-19T18:02:04Z</time>
      </trkpt>
      <trkpt lat="45.20501" lon="1.45391">
        <ele>173</ele>
        <time>2020-09-19T18:03:43Z</time>
      </trkpt>
      <trkpt lat="45.2053" lon="1.45185">
        <ele>174</ele>
        <time>2020-09-19T18:07:01Z</time>
      </trkpt>
      <trkpt lat="45.20551" lon="1.45179">
        <ele>176</ele>
        <time>2020-09-19T18:07:29Z</time>
      </trkpt>
      <trkpt lat="45.20622" lon="1.45175">
        <ele>176</ele>
        <time>2020-09-19T18:09:04Z</time>
      </trkpt>
      <trkpt lat="45.20645" lon="1.4516">
        <ele>175</ele>
        <time>2020-09-19T18:09:38Z</time>
      </trkpt>
      <trkpt lat="45.20666" lon="1.45136">
        <ele>174</ele>
        <time>2020-09-19T18:10:14Z</time>
      </trkpt>
      <trkpt lat="45.20697" lon="1.45078">
        <ele>167</ele>
        <time>2020-09-19T18:11:23Z</time>
      </trkpt>
      <trkpt lat="45.20726" lon="1.45005">
        <ele>159</ele>
        <time>2020-09-19T18:12:41Z</time>
      </trkpt>
      <trkpt lat="45.20743" lon="1.44977">
        <ele>153</ele>
        <time>2020-09-19T18:13:16Z</time>
      </trkpt>
      <trkpt lat="45.20791" lon="1.4499">
        <ele>151</ele>
        <time>2020-09-19T18:14:21Z</time>
      </trkpt>
      <trkpt lat="45.20818" lon="1.44981">
        <ele>148</ele>
        <time>2020-09-19T18:14:58Z</time>
      </trkpt>
      <trkpt lat="45.20841" lon="1.44958">
        <ele>145</ele>
        <time>2020-09-19T18:15:36Z</time>
      </trkpt>
      <trkpt lat="45.20877" lon="1.4493">
        <ele>144</ele>
        <time>2020-09-19T18:16:31Z</time>
      </trkpt>
      <trkpt lat="45.20905" lon="1.44889">
        <ele>146</ele>
        <time>2020-09-19T18:17:24Z</time>
      </trkpt>
      <trkpt lat="45.20941" lon="1.44816">
        <ele>145</ele>
        <time>2020-09-19T18:18:48Z</time>
      </trkpt>
      <trkpt lat="45.20957" lon="1.44797">
        <ele>143</ele>
        <time>2020-09-19T18:19:16Z</time>
      </trkpt>
      <trkpt lat="45.2098" lon="1.4479">
        <ele>143</ele>
        <time>2020-09-19T18:19:47Z</time>
      </trkpt>
      <trkpt lat="45.21" lon="1.44778">
        <ele>142</ele>
        <time>2020-09-19T18:20:16Z</time>
      </trkpt>
      <trkpt lat="45.21071" lon="1.44771">
        <ele>138</ele>
        <time>2020-09-19T18:21:51Z</time>
      </trkpt>
      <trkpt lat="45.21137" lon="1.44758">
        <ele>141</ele>
        <time>2020-09-19T18:23:20Z</time>
      </trkpt>
      <trkpt lat="45.21177" lon="1.44741">
        <ele>144</ele>
        <time>2020-09-19T18:24:16Z</time>
      </trkpt>
      <trkpt lat="45.21184" lon="1.4472">
        <ele>145</ele>
        <time>2020-09-19T18:24:38Z</time>
      </trkpt>
      <trkpt lat="45.21181" lon="1.44666">
        <ele>147</ele>
        <time>2020-09-19T18:25:29Z</time>
      </trkpt>
      <trkpt lat="45.21175" lon="1.44599">
        <ele>150</ele>
        <time>2020-09-19T18:26:32Z</time>
      </trkpt>
      <trkpt lat="45.2116" lon="1.44484">
        <ele>155</ele>
        <time>2020-09-19T18:28:22Z</time>
      </trkpt>
      <trkpt lat="45.21216" lon="1.44484">
        <ele>157</ele>
        <time>2020-09-19T18:29:37Z</time>
      </trkpt>
      <trkpt lat="45.21266" lon="1.44548">
        <ele>162</ele>
        <time>2020-09-19T18:31:07Z</time>
      </trkpt>
      <trkpt lat="45.21287" lon="1.44569">
        <ele>166</ele>
        <time>2020-09-19T18:31:41Z</time>
      </trkpt>
      <trkpt lat="45.21337" lon="1.44595">
        <ele>174</ele>
        <time>2020-09-19T18:32:52Z</time>
      </trkpt>
      <trkpt lat="45.21366" lon="1.44597">
        <ele>177</ele>
        <time>2020-09-19T18:33:31Z</time>
      </trkpt>
      <trkpt lat="45.214" lon="1.44608">
        <ele>181</ele>
        <time>2020-09-19T18:34:17Z</time>
      </trkpt>
      <trkpt lat="45.21481" lon="1.44623">
        <ele>177</ele>
        <time>2020-09-19T18:36:06Z</time>
      </trkpt>
      <trkpt lat="45.21527" lon="1.44649">
        <ele>177</ele>
        <time>2020-09-19T18:37:12Z</time>
      </trkpt>
      <trkpt lat="45.21558" lon="1.44632">
        <ele>175</ele>
        <time>2020-09-19T18:37:57Z</time>
      </trkpt>
      <trkpt lat="45.21592" lon="1.44595">
        <ele>175</ele>
        <time>2020-09-19T18:38:54Z</time>
      </trkpt>
      <trkpt lat="45.21626" lon="1.44576">
        <ele>177</ele>
        <time>2020-09-19T18:39:43Z</time>
      </trkpt>
      <trkpt lat="45.21695" lon="1.44544">
        <ele>180</ele>
        <time>2020-09-19T18:41:20Z</time>
      </trkpt>
      <trkpt lat="45.21747" lon="1.44539">
        <ele>181</ele>
        <time>2020-09-19T18:42:29Z</time>
      </trkpt>
      <trkpt lat="45.21801" lon="1.44544">
        <ele>172</ele>
        <time>2020-09-19T18:43:41Z</time>
      </trkpt>
      <trkpt lat="45.21834" lon="1.44512">
        <ele>170</ele>
        <time>2020-09-19T18:44:35Z</time>
      </trkpt>
      <trkpt lat="45.21869" lon="1.44486">
        <ele>169</ele>
        <time>2020-09-19T18:45:27Z</time>
      </trkpt>
      <trkpt lat="45.21846" lon="1.44546">
        <ele>165</ele>
        <time>2020-09-19T18:46:32Z</time>
      </trkpt>
      <trkpt lat="45.21846" lon="1.44599">
        <ele>156</ele>
        <time>2020-09-19T18:47:21Z</time>
      </trkpt>
      <trkpt lat="45.21828" lon="1.44645">
        <ele>151</ele>
        <time>2020-09-19T18:48:11Z</time>
      </trkpt>
      <trkpt lat="45.21905" lon="1.4463">
        <ele>144</ele>
        <time>2020-09-19T18:49:55Z</time>
      </trkpt>
      <trkpt lat="45.21913" lon="1.44709">
        <ele>134</ele>
        <time>2020-09-19T18:51:10Z</time>
      </trkpt>
      <trkpt lat="45.21996" lon="1.44722">
        <ele>129</ele>
        <time>2020-09-19T18:53:01Z</time>
      </trkpt>
      <trkpt lat="45.2201" lon="1.44752">
        <ele>125</ele>
        <time>2020-09-19T18:53:35Z</time>
      </trkpt>
      <trkpt lat="45.21954" lon="1.44814">
        <ele>120</ele>
        <time>2020-09-19T18:55:10Z</time>
      </trkpt>
      <trkpt lat="45.21863" lon="1.44866">
        <ele>114</ele>
        <time>2020-09-19T18:57:20Z</time>
      </trkpt>
      <trkpt lat="45.21824" lon="1.44917">
        <ele>108</ele>
        <time>2020-09-19T18:58:31Z</time>
      </trkpt>
      <trkpt lat="45.21875" lon="1.44904">
        <ele>109</ele>
        <time>2020-09-19T18:59:40Z</time>
      </trkpt>
      <trkpt lat="45.21928" lon="1.44863">
        <ele>115</ele>
        <time>2020-09-19T19:01:01Z</time>
      </trkpt>
      <trkpt lat="45.21942" lon="1.44883">
        <ele>111</ele>
        <time>2020-09-19T19:01:27Z</time>
      </trkpt>
      <trkpt lat="45.21955" lon="1.44969">
        <ele>105</ele>
        <time>2020-09-19T19:02:50Z</time>
      </trkpt>
      <trkpt lat="45.21978" lon="1.45061">
        <ele>105</ele>
        <time>2020-09-19T19:04:22Z</time>
      </trkpt>
      <trkpt lat="45.22085" lon="1.4496">
        <ele>102</ele>
        <time>2020-09-19T19:07:13Z</time>
      </trkpt>
      <trkpt lat="45.222" lon="1.44838">
        <ele>103</ele>
        <time>2020-09-19T19:10:25Z</time>
      </trkpt>
      <trkpt lat="45.22289" lon="1.44756">
        <ele>104</ele>
        <time>2020-09-19T19:12:47Z</time>
      </trkpt>
      <trkpt lat="45.22386" lon="1.44679">
        <ele>106</ele>
        <time>2020-09-19T19:15:15Z</time>
      </trkpt>
      <trkpt lat="45.22514" lon="1.44554">
        <ele>111</ele>
        <time>2020-09-19T19:18:42Z</time>
      </trkpt>
      <trkpt lat="45.2267" lon="1.44368">
        <ele>111</ele>
        <time>2020-09-19T19:23:14Z</time>
      </trkpt>
      <trkpt lat="45.2273" lon="1.44323">
        <ele>110</ele>
        <time>2020-09-19T19:24:45Z</time>
      </trkpt>
      <trkpt lat="45.22764" lon="1.44263">
        <ele>110</ele>
        <time>2020-09-19T19:25:57Z</time>
      </trkpt>
      <trkpt lat="45.22826" lon="1.4419">
        <ele>112</ele>
        <time>2020-09-19T19:27:44Z</time>
      </trkpt>
      <trkpt lat="45.22942" lon="1.44136">
        <ele>113</ele>
        <time>2020-09-19T19:30:27Z</time>
      </trkpt>
      <trkpt lat="45.22959" lon="1.441">
        <ele>117</ele>
        <time>2020-09-19T19:31:08Z</time>
      </trkpt>
      <trkpt lat="45.22993" lon="1.44085">
        <ele>117</ele>
        <time>2020-09-19T19:31:56Z</time>
      </trkpt>
      <trkpt lat="45.23055" lon="1.44112">
        <ele>111</ele>
        <time>2020-09-19T19:33:22Z</time>
      </trkpt>
      <trkpt lat="45.23146" lon="1.44132">
        <ele>108</ele>
        <time>2020-09-19T19:35:25Z</time>
      </trkpt>
      <trkpt lat="45.2319" lon="1.44108">
        <ele>108</ele>
        <time>2020-09-19T19:36:28Z</time>
      </trkpt>
      <trkpt lat="45.23225" lon="1.44134">
        <ele>107</ele>
        <time>2020-09-19T19:37:21Z</time>
      </trkpt>
      <trkpt lat="45.23232" lon="1.44187">
        <ele>106</ele>
        <time>2020-09-19T19:38:11Z</time>
      </trkpt>
      <trkpt lat="45.233" lon="1.4423">
        <ele>108</ele>
        <time>2020-09-19T19:39:51Z</time>
      </trkpt>
      <trkpt lat="45.23324" lon="1.44157">
        <ele>110</ele>
        <time>2020-09-19T19:41:06Z</time>
      </trkpt>
      <trkpt lat="45.23349" lon="1.44175">
        <ele>111</ele>
        <time>2020-09-19T19:41:44Z</time>
      </trkpt>
      <trkpt lat="45.23376" lon="1.44166">
        <ele>111</ele>
        <time>2020-09-19T19:42:21Z</time>
      </trkpt>
      <trkpt lat="45.23454" lon="1.4419">
        <ele>111</ele>
        <time>2020-09-19T19:44:07Z</time>
      </trkpt>
      <trkpt lat="45.2351" lon="1.44222">
        <ele>110</ele>
        <time>2020-09-19T19:45:28Z</time>
      </trkpt>
      <trkpt lat="45.23554" lon="1.44168">
        <ele>111</ele>
        <time>2020-09-19T19:46:45Z</time>
      </trkpt>
      <trkpt lat="45.23602" lon="1.44256">
        <ele>109</ele>
        <time>2020-09-19T19:48:30Z</time>
      </trkpt>
      <trkpt lat="45.23663" lon="1.44344">
        <ele>107</ele>
        <time>2020-09-19T19:50:26Z</time>
      </trkpt>
      <trkpt lat="45.23708" lon="1.44385">
        <ele>108</ele>
        <time>2020-09-19T19:51:37Z</time>
      </trkpt>
      <trkpt lat="45.23743" lon="1.44447">
        <ele>109</ele>
        <time>2020-09-19T19:52:52Z</time>
      </trkpt>
      <trkpt lat="45.23818" lon="1.44539">
        <ele>108</ele>
        <time>2020-09-19T19:55:04Z</time>
      </trkpt>
      <trkpt lat="45.23885" lon="1.44524">
        <ele>110</ele>
        <time>2020-09-19T19:56:35Z</time>
      </trkpt>
      <trkpt lat="45.23932" lon="1.44559">
        <ele>111</ele>
        <time>2020-09-19T19:57:46Z</time>
      </trkpt>
      <trkpt lat="45.23973" lon="1.44464">
        <ele>114</ele>
        <time>2020-09-19T19:59:30Z</time>
      </trkpt>
      <trkpt lat="45.24015" lon="1.44464">
        <ele>117</ele>
        <time>2020-09-19T20:00:26Z</time>
      </trkpt>
      <trkpt lat="45.24092" lon="1.44619">
        <ele>115</ele>
        <time>2020-09-19T20:03:25Z</time>
      </trkpt>
      <trkpt lat="45.24104" lon="1.44735">
        <ele>111</ele>
        <time>2020-09-19T20:05:15Z</time>
      </trkpt>
      <trkpt lat="45.24142" lon="1.44803">
        <ele>111</ele>
        <time>2020-09-19T20:06:36Z</time>
      </trkpt>
      <trkpt lat="45.24195" lon="1.44883">
        <ele>111</ele>
        <time>2020-09-19T20:08:20Z</time>
      </trkpt>
      <trkpt lat="45.24251" lon="1.44945">
        <ele>112</ele>
        <time>2020-09-19T20:09:54Z</time>
      </trkpt>
      <trkpt lat="45.24513" lon="1.45153">
        <ele>114</ele>
        <time>2020-09-19T20:16:35Z</time>
      </trkpt>
      <trkpt lat="45.24613" lon="1.45217">
        <ele>113</ele>
        <time>2020-09-19T20:19:01Z</time>
      </trkpt>
      <trkpt lat="45.24757" lon="1.45325">
        <ele>111</ele>
        <time>2020-09-19T20:22:39Z</time>
      </trkpt>
      <trkpt lat="45.24788" lon="1.45378">
        <ele>110</ele>
        <time>2020-09-19T20:23:43Z</time>
      </trkpt>
      <trkpt lat="45.24791" lon="1.45327">
        <ele>111</ele>
        <time>2020-09-19T20:24:31Z</time>
      </trkpt>
      <trkpt lat="45.24811" lon="1.45273">
        <ele>112</ele>
        <time>2020-09-19T20:25:29Z</time>
      </trkpt>
      <trkpt lat="45.24868" lon="1.45263">
        <ele>111</ele>
        <time>2020-09-19T20:26:45Z</time>
      </trkpt>
      <trkpt lat="45.24952" lon="1.45232">
        <ele>112</ele>
        <time>2020-09-19T20:28:41Z</time>
      </trkpt>
      <trkpt lat="45.24986" lon="1.45202">
        <ele>114</ele>
        <time>2020-09-19T20:29:35Z</time>
      </trkpt>
      <trkpt lat="45.25143" lon="1.45046">
        <ele>116</ele>
        <time>2020-09-19T20:33:50Z</time>
      </trkpt>
      <trkpt lat="45.25202" lon="1.44977">
        <ele>119</ele>
        <time>2020-09-19T20:35:32Z</time>
      </trkpt>
      <trkpt lat="45.25245" lon="1.44956">
        <ele>121</ele>
        <time>2020-09-19T20:36:33Z</time>
      </trkpt>
      <trkpt lat="45.25337" lon="1.44891">
        <ele>118</ele>
        <time>2020-09-19T20:38:50Z</time>
      </trkpt>
      <trkpt lat="45.25439" lon="1.44825">
        <ele>121</ele>
        <time>2020-09-19T20:41:20Z</time>
      </trkpt>
      <trkpt lat="45.25464" lon="1.44784">
        <ele>121</ele>
        <time>2020-09-19T20:42:11Z</time>
      </trkpt>
      <trkpt lat="45.25492" lon="1.44696">
        <ele>123</ele>
        <time>2020-09-19T20:43:41Z</time>
      </trkpt>
      <trkpt lat="45.2551" lon="1.44677">
        <ele>123</ele>
        <time>2020-09-19T20:44:11Z</time>
      </trkpt>
      <trkpt lat="45.25657" lon="1.44599">
        <ele>125</ele>
        <time>2020-09-19T20:47:41Z</time>
      </trkpt>
      <trkpt lat="45.25684" lon="1.44572">
        <ele>126</ele>
        <time>2020-09-19T20:48:25Z</time>
      </trkpt>
      <trkpt lat="45.25736" lon="1.44496">
        <ele>129</ele>
        <time>2020-09-19T20:50:04Z</time>
      </trkpt>
      <trkpt lat="45.25742" lon="1.44535">
        <ele>128</ele>
        <time>2020-09-19T20:50:42Z</time>
      </trkpt>
      <trkpt lat="45.25742" lon="1.44612">
        <ele>127</ele>
        <time>2020-09-19T20:51:54Z</time>
      </trkpt>
      <trkpt lat="45.25757" lon="1.44728">
        <ele>123</ele>
        <time>2020-09-19T20:53:45Z</time>
      </trkpt>
      <trkpt lat="45.25755" lon="1.4484">
        <ele>117</ele>
        <time>2020-09-19T20:55:30Z</time>
      </trkpt>
      <trkpt lat="45.25726" lon="1.44936">
        <ele>113</ele>
        <time>2020-09-19T20:57:08Z</time>
      </trkpt>
      <trkpt lat="45.2571" lon="1.44981">
        <ele>112</ele>
        <time>2020-09-19T20:57:56Z</time>
      </trkpt>
      <trkpt lat="45.2576" lon="1.45007">
        <ele>111</ele>
        <time>2020-09-19T20:59:07Z</time>
      </trkpt>
      <trkpt lat="45.25853" lon="1.45069">
        <ele>108</ele>
        <time>2020-09-19T21:01:24Z</time>
      </trkpt>
      <trkpt lat="45.25885" lon="1.4508">
        <ele>109</ele>
        <time>2020-09-19T21:02:08Z</time>
      </trkpt>
      <trkpt lat="45.25944" lon="1.45114">
        <ele>108</ele>
        <time>2020-09-19T21:03:33Z</time>
      </trkpt>
      <trkpt lat="45.25989" lon="1.45151">
        <ele>108</ele>
        <time>2020-09-19T21:04:42Z</time>
      </trkpt>
      <trkpt lat="45.2611" lon="1.45215">
        <ele>108</ele>
        <time>2020-09-19T21:07:34Z</time>
      </trkpt>
      <trkpt lat="45.26186" lon="1.45248">
        <ele>109</ele>
        <time>2020-09-19T21:09:20Z</time>
      </trkpt>
      <trkpt lat="45.26309" lon="1.45286">
        <ele>110</ele>
        <time>2020-09-19T21:12:08Z</time>
      </trkpt>
      <trkpt lat="45.26486" lon="1.45348">
        <ele>111</ele>
        <time>2020-09-19T21:16:12Z</time>
      </trkpt>
      <trkpt lat="45.2661" lon="1.45318">
        <ele>112</ele>
        <time>2020-09-19T21:18:59Z</time>
      </trkpt>
      <trkpt lat="45.26758" lon="1.4532">
        <ele>110</ele>
        <time>2020-09-19T21:22:17Z</time>
      </trkpt>
      <trkpt lat="45.268" lon="1.45331">
        <ele>111</ele>
        <time>2020-09-19T21:23:14Z</time>
      </trkpt>
      <trkpt lat="45.26867" lon="1.45355">
        <ele>111</ele>
        <time>2020-09-19T21:24:46Z</time>
      </trkpt>
      <trkpt lat="45.26929" lon="1.45385">
        <ele>109</ele>
        <time>2020-09-19T21:26:14Z</time>
      </trkpt>
      <trkpt lat="45.27001" lon="1.45396">
        <ele>110</ele>
        <time>2020-09-19T21:27:50Z</time>
      </trkpt>
      <trkpt lat="45.27075" lon="1.454">
        <ele>111</ele>
        <time>2020-09-19T21:29:29Z</time>
      </trkpt>
      <trkpt lat="45.27157" lon="1.45411">
        <ele>110</ele>
        <time>2020-09-19T21:31:19Z</time>
      </trkpt>
      <trkpt lat="45.27185" lon="1.45421">
        <ele>110</ele>
        <time>2020-09-19T21:31:57Z</time>
      </trkpt>
      <trkpt lat="45.27231" lon="1.45469">
        <ele>112</ele>
        <time>2020-09-19T21:33:14Z</time>
      </trkpt>
      <trkpt lat="45.27284" lon="1.45505">
        <ele>115</ele>
        <time>2020-09-19T21:34:32Z</time>
      </trkpt>
      <trkpt lat="45.2738" lon="1.45539">
        <ele>118</ele>
        <time>2020-09-19T21:36:44Z</time>
      </trkpt>
      <trkpt lat="45.27418" lon="1.45522">
        <ele>120</ele>
        <time>2020-09-19T21:37:37Z</time>
      </trkpt>
      <trkpt lat="45.27445" lon="1.45501">
        <ele>122</ele>
        <time>2020-09-19T21:38:18Z</time>
      </trkpt>
      <trkpt lat="45.2746" lon="1.45524">
        <ele>120</ele>
        <time>2020-09-19T21:38:48Z</time>
      </trkpt>
      <trkpt lat="45.27499" lon="1.4552">
        <ele>120</ele>
        <time>2020-09-19T21:39:40Z</time>
      </trkpt>
      <trkpt lat="45.27602" lon="1.45662">
        <ele>116</ele>
        <time>2020-09-19T21:42:51Z</time>
      </trkpt>
      <trkpt lat="45.27626" lon="1.45677">
        <ele>116</ele>
        <time>2020-09-19T21:43:26Z</time>
      </trkpt>
      <trkpt lat="45.2756" lon="1.45874">
        <ele>118</ele>
        <time>2020-09-19T21:46:51Z</time>
      </trkpt>
      <trkpt lat="45.2762" lon="1.45923">
        <ele>120</ele>
        <time>2020-09-19T21:48:24Z</time>
      </trkpt>
      <trkpt lat="45.27676" lon="1.4599">
        <ele>123</ele>
        <time>2020-09-19T21:50:01Z</time>
      </trkpt>
      <trkpt lat="45.27718" lon="1.46084">
        <ele>132</ele>
        <time>2020-09-19T21:51:46Z</time>
      </trkpt>
      <trkpt lat="45.27753" lon="1.46138">
        <ele>137</ele>
        <time>2020-09-19T21:52:55Z</time>
      </trkpt>
      <trkpt lat="45.27803" lon="1.46151">
        <ele>135</ele>
        <time>2020-09-19T21:54:03Z</time>
      </trkpt>
      <trkpt lat="45.27833" lon="1.46164">
        <ele>135</ele>
        <time>2020-09-19T21:54:44Z</time>
      </trkpt>
      <trkpt lat="45.27851" lon="1.46196">
        <ele>136</ele>
        <time>2020-09-19T21:55:23Z</time>
      </trkpt>
      <trkpt lat="45.27823" lon="1.46245">
        <ele>143</ele>
        <time>2020-09-19T21:56:22Z</time>
      </trkpt>
      <trkpt lat="45.27798" lon="1.46348">
        <ele>149</ele>
        <time>2020-09-19T21:58:05Z</time>
      </trkpt>
      <trkpt lat="45.27774" lon="1.46372">
        <ele>151</ele>
        <time>2020-09-19T21:58:44Z</time>
      </trkpt>
      <trkpt lat="45.27691" lon="1.464">
        <ele>156</ele>
        <time>2020-09-19T22:00:38Z</time>
      </trkpt>
      <trkpt lat="45.27634" lon="1.464">
        <ele>157</ele>
        <time>2020-09-19T22:01:54Z</time>
      </trkpt>
      <trkpt lat="45.27628" lon="1.4649">
        <ele>168</ele>
        <time>2020-09-19T22:03:19Z</time>
      </trkpt>
      <trkpt lat="45.27675" lon="1.46496">
        <ele>173</ele>
        <time>2020-09-19T22:04:21Z</time>
      </trkpt>
      <trkpt lat="45.27741" lon="1.46477">
        <ele>174</ele>
        <time>2020-09-19T22:05:51Z</time>
      </trkpt>
      <trkpt lat="45.27792" lon="1.46501">
        <ele>180</ele>
        <time>2020-09-19T22:07:03Z</time>
      </trkpt>
      <trkpt lat="45.27871" lon="1.46561">
        <ele>197</ele>
        <time>2020-09-19T22:09:03Z</time>
      </trkpt>
      <trkpt lat="45.27871" lon="1.46492">
        <ele>179</ele>
        <time>2020-09-19T22:10:07Z</time>
      </trkpt>
      <trkpt lat="45.27913" lon="1.46481">
        <ele>181</ele>
        <time>2020-09-19T22:11:04Z</time>
      </trkpt>
      <trkpt lat="45.27962" lon="1.46501">
        <ele>186</ele>
        <time>2020-09-19T22:12:12Z</time>
      </trkpt>
      <trkpt lat="45.2804" lon="1.46496">
        <ele>182</ele>
        <time>2020-09-19T22:13:57Z</time>
      </trkpt>
      <trkpt lat="45.28099" lon="1.46503">
        <ele>179</ele>
        <time>2020-09-19T22:15:16Z</time>
      </trkpt>
      <trkpt lat="45.28193" lon="1.46582">
        <ele>196</ele>
        <time>2020-09-19T22:17:41Z</time>
      </trkpt>
      <trkpt lat="45.28239" lon="1.46644">
        <ele>207</ele>
        <time>2020-09-19T22:19:06Z</time>
      </trkpt>
      <trkpt lat="45.28137" lon="1.4664">
        <ele>220</ele>
        <time>2020-09-19T22:21:22Z</time>
      </trkpt>
      <trkpt lat="45.28094" lon="1.46657">
        <ele>228</ele>
        <time>2020-09-19T22:22:22Z</time>
      </trkpt>
      <trkpt lat="45.28212" lon="1.46762">
        <ele>248</ele>
        <time>2020-09-19T22:25:27Z</time>
      </trkpt>
      <trkpt lat="45.28103" lon="1.46782">
        <ele>258</ele>
        <time>2020-09-19T22:27:54Z</time>
      </trkpt>
      <trkpt lat="45.28063" lon="1.46838">
        <ele>266</ele>
        <time>2020-09-19T22:29:09Z</time>
      </trkpt>
      <trkpt lat="45.28054" lon="1.46932">
        <ele>275</ele>
        <time>2020-09-19T22:30:38Z</time>
      </trkpt>
      <trkpt lat="45.28094" lon="1.46934">
        <ele>283</ele>
        <time>2020-09-19T22:31:32Z</time>
      </trkpt>
      <trkpt lat="45.28203" lon="1.46928">
        <ele>295</ele>
        <time>2020-09-19T22:33:57Z</time>
      </trkpt>
      <trkpt lat="45.2818" lon="1.46994">
        <ele>304</ele>
        <time>2020-09-19T22:35:06Z</time>
      </trkpt>
      <trkpt lat="45.28208" lon="1.47013">
        <ele>312</ele>
        <time>2020-09-19T22:35:48Z</time>
      </trkpt>
      <trkpt lat="45.28202" lon="1.47129">
        <ele>325</ele>
        <time>2020-09-19T22:37:37Z</time>
      </trkpt>
      <trkpt lat="45.28173" lon="1.47202">
        <ele>331</ele>
        <time>2020-09-19T22:38:56Z</time>
      </trkpt>
      <trkpt lat="45.28239" lon="1.47172">
        <ele>340</ele>
        <time>2020-09-19T22:40:28Z</time>
      </trkpt>
      <trkpt lat="45.28283" lon="1.47091">
        <ele>340</ele>
        <time>2020-09-19T22:42:04Z</time>
      </trkpt>
      <trkpt lat="45.28309" lon="1.47089">
        <ele>345</ele>
        <time>2020-09-19T22:42:39Z</time>
      </trkpt>
      <trkpt lat="45.28324" lon="1.47185">
        <ele>363</ele>
        <time>2020-09-19T22:44:11Z</time>
      </trkpt>
      <trkpt lat="45.28357" lon="1.47116">
        <ele>353</ele>
        <time>2020-09-19T22:45:30Z</time>
      </trkpt>
      <trkpt lat="45.28404" lon="1.47147">
        <ele>361</ele>
        <time>2020-09-19T22:46:39Z</time>
      </trkpt>
      <trkpt lat="45.28446" lon="1.47213">
        <ele>369</ele>
        <time>2020-09-19T22:48:02Z</time>
      </trkpt>
      <trkpt lat="45.28416" lon="1.47271">
        <ele>379</ele>
        <time>2020-09-19T22:49:10Z</time>
      </trkpt>
      <trkpt lat="45.2836" lon="1.4734">
        <ele>376</ele>
        <time>2020-09-19T22:50:49Z</time>
      </trkpt>
      <trkpt lat="45.28357" lon="1.47404">
        <ele>379</ele>
        <time>2020-09-19T22:51:49Z</time>
      </trkpt>
      <trkpt lat="45.28292" lon="1.47513">
        <ele>382</ele>
        <time>2020-09-19T22:54:03Z</time>
      </trkpt>
      <trkpt lat="45.28294" lon="1.47612">
        <ele>382</ele>
        <time>2020-09-19T22:55:36Z</time>
      </trkpt>
      <trkpt lat="45.28321" lon="1.47689">
        <ele>383</ele>
        <time>2020-09-19T22:56:57Z</time>
      </trkpt>
      <trkpt lat="45.28356" lon="1.47745">
        <ele>379</ele>
        <time>2020-09-19T22:58:07Z</time>
      </trkpt>
      <trkpt lat="45.28334" lon="1.47822">
        <ele>380</ele>
        <time>2020-09-19T22:59:25Z</time>
      </trkpt>
      <trkpt lat="45.28339" lon="1.4788">
        <ele>378</ele>
        <time>2020-09-19T23:00:20Z</time>
      </trkpt>
      <trkpt lat="45.28384" lon="1.4794">
        <ele>373</ele>
        <time>2020-09-19T23:01:42Z</time>
      </trkpt>
      <trkpt lat="45.28425" lon="1.47953">
        <ele>371</ele>
        <time>2020-09-19T23:02:38Z</time>
      </trkpt>
      <trkpt lat="45.28466" lon="1.47996">
        <ele>371</ele>
        <time>2020-09-19T23:03:46Z</time>
      </trkpt>
      <trkpt lat="45.28552" lon="1.48031">
        <ele>375</ele>
        <time>2020-09-19T23:05:46Z</time>
      </trkpt>
      <trkpt lat="45.28636" lon="1.48058">
        <ele>377</ele>
        <time>2020-09-19T23:07:41Z</time>
      </trkpt>
      <trkpt lat="45.28707" lon="1.48041">
        <ele>373</ele>
        <time>2020-09-19T23:09:17Z</time>
      </trkpt>
      <trkpt lat="45.28799" lon="1.48076">
        <ele>365</ele>
        <time>2020-09-19T23:11:24Z</time>
      </trkpt>
      <trkpt lat="45.28867" lon="1.48084">
        <ele>361</ele>
        <time>2020-09-19T23:12:55Z</time>
      </trkpt>
      <trkpt lat="45.29038" lon="1.48084">
        <ele>358</ele>
        <time>2020-09-19T23:16:43Z</time>
      </trkpt>
      <trkpt lat="45.29192" lon="1.48104">
        <ele>361</ele>
        <time>2020-09-19T23:20:10Z</time>
      </trkpt>
      <trkpt lat="45.29287" lon="1.48136">
        <ele>359</ele>
        <time>2020-09-19T23:22:20Z</time>
      </trkpt>
      <trkpt lat="45.29355" lon="1.48168">
        <ele>353</ele>
        <time>2020-09-19T23:23:55Z</time>
      </trkpt>
      <trkpt lat="45.29426" lon="1.48185">
        <ele>345</ele>
        <time>2020-09-19T23:25:32Z</time>
      </trkpt>
      <trkpt lat="45.29441" lon="1.48267">
        <ele>347</ele>
        <time>2020-09-19T23:26:51Z</time>
      </trkpt>
      <trkpt lat="45.29497" lon="1.48279">
        <ele>343</ele>
        <time>2020-09-19T23:28:07Z</time>
      </trkpt>
      <trkpt lat="45.29524" lon="1.48256">
        <ele>341</ele>
        <time>2020-09-19T23:28:49Z</time>
      </trkpt>
      <trkpt lat="45.29566" lon="1.48185">
        <ele>337</ele>
        <time>2020-09-19T23:30:16Z</time>
      </trkpt>
      <trkpt lat="45.29574" lon="1.48099">
        <ele>334</ele>
        <time>2020-09-19T23:31:37Z</time>
      </trkpt>
      <trkpt lat="45.29601" lon="1.48067">
        <ele>336</ele>
        <time>2020-09-19T23:32:24Z</time>
      </trkpt>
      <trkpt lat="45.2964" lon="1.48099">
        <ele>342</ele>
        <time>2020-09-19T23:33:24Z</time>
      </trkpt>
      <trkpt lat="45.29702" lon="1.48018">
        <ele>343</ele>
        <time>2020-09-19T23:35:17Z</time>
      </trkpt>
      <trkpt lat="45.29752" lon="1.47988">
        <ele>346</ele>
        <time>2020-09-19T23:36:29Z</time>
      </trkpt>
      <trkpt lat="45.29809" lon="1.47964">
        <ele>340</ele>
        <time>2020-09-19T23:37:48Z</time>
      </trkpt>
      <trkpt lat="45.29868" lon="1.48013">
        <ele>344</ele>
        <time>2020-09-19T23:39:19Z</time>
      </trkpt>
      <trkpt lat="45.29901" lon="1.47992">
        <ele>343</ele>
        <time>2020-09-19T23:40:08Z</time>
      </trkpt>
      <trkpt lat="45.29939" lon="1.47936">
        <ele>342</ele>
        <time>2020-09-19T23:41:21Z</time>
      </trkpt>
      <trkpt lat="45.30013" lon="1.47876">
        <ele>341</ele>
        <time>2020-09-19T23:43:14Z</time>
      </trkpt>
      <trkpt lat="45.30057" lon="1.47874">
        <ele>339</ele>
        <time>2020-09-19T23:44:13Z</time>
      </trkpt>
      <trkpt lat="45.30093" lon="1.47786">
        <ele>337</ele>
        <time>2020-09-19T23:45:49Z</time>
      </trkpt>
      <trkpt lat="45.30126" lon="1.47734">
        <ele>335</ele>
        <time>2020-09-19T23:46:54Z</time>
      </trkpt>
      <trkpt lat="45.30182" lon="1.4773">
        <ele>330</ele>
        <time>2020-09-19T23:48:09Z</time>
      </trkpt>
      <trkpt lat="45.30205" lon="1.47709">
        <ele>325</ele>
        <time>2020-09-19T23:48:46Z</time>
      </trkpt>
      <trkpt lat="45.30233" lon="1.47668">
        <ele>317</ele>
        <time>2020-09-19T23:49:39Z</time>
      </trkpt>
      <trkpt lat="45.30233" lon="1.47728">
        <ele>321</ele>
        <time>2020-09-19T23:50:36Z</time>
      </trkpt>
      <trkpt lat="45.30226" lon="1.47797">
        <ele>322</ele>
        <time>2020-09-19T23:51:41Z</time>
      </trkpt>
      <trkpt lat="45.30256" lon="1.47818">
        <ele>318</ele>
        <time>2020-09-19T23:52:26Z</time>
      </trkpt>
      <trkpt lat="45.30329" lon="1.4781">
        <ele>312</ele>
        <time>2020-09-19T23:54:04Z</time>
      </trkpt>
      <trkpt lat="45.30389" lon="1.47818">
        <ele>311</ele>
        <time>2020-09-19T23:55:24Z</time>
      </trkpt>
      <trkpt lat="45.30475" lon="1.47807">
        <ele>304</ele>
        <time>2020-09-19T23:57:19Z</time>
      </trkpt>
      <trkpt lat="45.30531" lon="1.47827">
        <ele>299</ele>
        <time>2020-09-19T23:58:36Z</time>
      </trkpt>
      <trkpt lat="45.3057" lon="1.4787">
        <ele>296</ele>
        <time>2020-09-19T23:59:42Z</time>
      </trkpt>
      <trkpt lat="45.30587" lon="1.47943">
        <ele>300</ele>
        <time>2020-09-20T00:00:54Z</time>
      </trkpt>
      <trkpt lat="45.30654" lon="1.48001">
        <ele>283</ele>
        <time>2020-09-20T00:02:39Z</time>
      </trkpt>
      <trkpt lat="45.30722" lon="1.4802">
        <ele>276</ele>
        <time>2020-09-20T00:04:11Z</time>
      </trkpt>
      <trkpt lat="45.30757" lon="1.48084">
        <ele>274</ele>
        <time>2020-09-20T00:05:27Z</time>
      </trkpt>
      <trkpt lat="45.30777" lon="1.4814">
        <ele>283</ele>
        <time>2020-09-20T00:06:26Z</time>
      </trkpt>
      <trkpt lat="45.30831" lon="1.48196">
        <ele>303</ele>
        <time>2020-09-20T00:07:56Z</time>
      </trkpt>
      <trkpt lat="45.30878" lon="1.48215">
        <ele>310</ele>
        <time>2020-09-20T00:09:01Z</time>
      </trkpt>
      <trkpt lat="45.30935" lon="1.48256">
        <ele>322</ele>
        <time>2020-09-20T00:10:26Z</time>
      </trkpt>
      <trkpt lat="45.30982" lon="1.48256">
        <ele>317</ele>
        <time>2020-09-20T00:11:29Z</time>
      </trkpt>
      <trkpt lat="45.31033" lon="1.48262">
        <ele>310</ele>
        <time>2020-09-20T00:12:37Z</time>
      </trkpt>
      <trkpt lat="45.31073" lon="1.48325">
        <ele>311</ele>
        <time>2020-09-20T00:13:57Z</time>
      </trkpt>
      <trkpt lat="45.31106" lon="1.48402">
        <ele>320</ele>
        <time>2020-09-20T00:15:21Z</time>
      </trkpt>
      <trkpt lat="45.31166" lon="1.48455">
        <ele>323</ele>
        <time>2020-09-20T00:16:56Z</time>
      </trkpt>
      <trkpt lat="45.3122" lon="1.48513">
        <ele>325</ele>
        <time>2020-09-20T00:18:26Z</time>
      </trkpt>
      <trkpt lat="45.31235" lon="1.48614">
        <ele>330</ele>
        <time>2020-09-20T00:20:03Z</time>
      </trkpt>
      <trkpt lat="45.3127" lon="1.48644">
        <ele>327</ele>
        <time>2020-09-20T00:20:57Z</time>
      </trkpt>
      <trkpt lat="45.3132" lon="1.48625">
        <ele>323</ele>
        <time>2020-09-20T00:22:06Z</time>
      </trkpt>
      <trkpt lat="45.31379" lon="1.4855">
        <ele>330</ele>
        <time>2020-09-20T00:23:52Z</time>
      </trkpt>
      <trkpt lat="45.31385" lon="1.48488">
        <ele>333</ele>
        <time>2020-09-20T00:24:51Z</time>
      </trkpt>
      <trkpt lat="45.31408" lon="1.48413">
        <ele>339</ele>
        <time>2020-09-20T00:26:08Z</time>
      </trkpt>
      <trkpt lat="45.31432" lon="1.48402">
        <ele>341</ele>
        <time>2020-09-20T00:26:41Z</time>
      </trkpt>
      <trkpt lat="45.31433" lon="1.48374">
        <ele>340</ele>
        <time>2020-09-20T00:27:07Z</time>
      </trkpt>
      <trkpt lat="45.31498" lon="1.48363">
        <ele>344</ele>
        <time>2020-09-20T00:28:35Z</time>
      </trkpt>
      <trkpt lat="45.31515" lon="1.48303">
        <ele>341</ele>
        <time>2020-09-20T00:29:36Z</time>
      </trkpt>
      <trkpt lat="45.31554" lon="1.48286">
        <ele>338</ele>
        <time>2020-09-20T00:30:30Z</time>
      </trkpt>
      <trkpt lat="45.31587" lon="1.48241">
        <ele>336</ele>
        <time>2020-09-20T00:31:31Z</time>
      </trkpt>
      <trkpt lat="45.31613" lon="1.48101">
        <ele>337</ele>
        <time>2020-09-20T00:33:47Z</time>
      </trkpt>
      <trkpt lat="45.31672" lon="1.48168">
        <ele>326</ele>
        <time>2020-09-20T00:35:28Z</time>
      </trkpt>
      <trkpt lat="45.31718" lon="1.48241">
        <ele>327</ele>
        <time>2020-09-20T00:37:00Z</time>
      </trkpt>
      <trkpt lat="45.31809" lon="1.48142">
        <ele>320</ele>
        <time>2020-09-20T00:39:32Z</time>
      </trkpt>
      <trkpt lat="45.31841" lon="1.48099">
        <ele>318</ele>
        <time>2020-09-20T00:40:31Z</time>
      </trkpt>
      <trkpt lat="45.31902" lon="1.48056">
        <ele>313</ele>
        <time>2020-09-20T00:42:02Z</time>
      </trkpt>
      <trkpt lat="45.31985" lon="1.4799">
        <ele>294</ele>
        <time>2020-09-20T00:44:09Z</time>
      </trkpt>
      <trkpt lat="45.32046" lon="1.47964">
        <ele>285</ele>
        <time>2020-09-20T00:45:34Z</time>
      </trkpt>
      <trkpt lat="45.32165" lon="1.47837">
        <ele>262</ele>
        <time>2020-09-20T00:48:53Z</time>
      </trkpt>
      <trkpt lat="45.32278" lon="1.47758">
        <ele>235</ele>
        <time>2020-09-20T00:51:41Z</time>
      </trkpt>
      <trkpt lat="45.32338" lon="1.47756">
        <ele>231</ele>
        <time>2020-09-20T00:53:01Z</time>
      </trkpt>
      <trkpt lat="45.32406" lon="1.47762">
        <ele>240</ele>
        <time>2020-09-20T00:54:32Z</time>
      </trkpt>
      <trkpt lat="45.32426" lon="1.47719">
        <ele>224</ele>
        <time>2020-09-20T00:55:20Z</time>
      </trkpt>
      <trkpt lat="45.32461" lon="1.47694">
        <ele>222</ele>
        <time>2020-09-20T00:56:12Z</time>
      </trkpt>
      <trkpt lat="45.32494" lon="1.47631">
        <ele>213</ele>
        <time>2020-09-20T00:57:26Z</time>
      </trkpt>
      <trkpt lat="45.32524" lon="1.47535">
        <ele>211</ele>
        <time>2020-09-20T00:59:04Z</time>
      </trkpt>
      <trkpt lat="45.32559" lon="1.47475">
        <ele>215</ele>
        <time>2020-09-20T01:00:18Z</time>
      </trkpt>
      <trkpt lat="45.32569" lon="1.47415">
        <ele>214</ele>
        <time>2020-09-20T01:01:15Z</time>
      </trkpt>
      <trkpt lat="45.32568" lon="1.4734">
        <ele>222</ele>
        <time>2020-09-20T01:02:26Z</time>
      </trkpt>
      <trkpt lat="45.32545" lon="1.47277">
        <ele>222</ele>
        <time>2020-09-20T01:03:32Z</time>
      </trkpt>
      <trkpt lat="45.32498" lon="1.47217">
        <ele>214</ele>
        <time>2020-09-20T01:04:57Z</time>
      </trkpt>
      <trkpt lat="45.32513" lon="1.47189">
        <ele>222</ele>
        <time>2020-09-20T01:05:30Z</time>
      </trkpt>
      <trkpt lat="45.32488" lon="1.47153">
        <ele>221</ele>
        <time>2020-09-20T01:06:17Z</time>
      </trkpt>
      <trkpt lat="45.32474" lon="1.4708">
        <ele>223</ele>
        <time>2020-09-20T01:07:28Z</time>
      </trkpt>
      <trkpt lat="45.32492" lon="1.46998">
        <ele>229</ele>
        <time>2020-09-20T01:08:49Z</time>
      </trkpt>
      <trkpt lat="45.32516" lon="1.46971">
        <ele>231</ele>
        <time>2020-09-20T01:09:30Z</time>
      </trkpt>
      <trkpt lat="45.3255" lon="1.46964">
        <ele>235</ele>
        <time>2020-09-20T01:10:15Z</time>
      </trkpt>
      <trkpt lat="45.32553" lon="1.46998">
        <ele>241</ele>
        <time>2020-09-20T01:10:48Z</time>
      </trkpt>
      <trkpt lat="45.32592" lon="1.47018">
        <ele>247</ele>
        <time>2020-09-20T01:11:43Z</time>
      </trkpt>
      <trkpt lat="45.32618" lon="1.47078">
        <ele>248</ele>
        <time>2020-09-20T01:12:49Z</time>
      </trkpt>
      <trkpt lat="45.32634" lon="1.47138">
        <ele>249</ele>
        <time>2020-09-20T01:13:49Z</time>
      </trkpt>
      <trkpt lat="45.3266" lon="1.47297">
        <ele>259</ele>
        <time>2020-09-20T01:16:22Z</time>
      </trkpt>
      <trkpt lat="45.32701" lon="1.47398">
        <ele>256</ele>
        <time>2020-09-20T01:18:12Z</time>
      </trkpt>
      <trkpt lat="45.32708" lon="1.47458">
        <ele>263</ele>
        <time>2020-09-20T01:19:09Z</time>
      </trkpt>
      <trkpt lat="45.32773" lon="1.47516">
        <ele>274</ele>
        <time>2020-09-20T01:20:51Z</time>
      </trkpt>
      <trkpt lat="45.32805" lon="1.47586">
        <ele>277</ele>
        <time>2020-09-20T01:22:10Z</time>
      </trkpt>
      <trkpt lat="45.32808" lon="1.47685">
        <ele>287</ele>
        <time>2020-09-20T01:23:43Z</time>
      </trkpt>
      <trkpt lat="45.3277" lon="1.47784">
        <ele>296</ele>
        <time>2020-09-20T01:25:28Z</time>
      </trkpt>
      <trkpt lat="45.32738" lon="1.47891">
        <ele>296</ele>
        <time>2020-09-20T01:27:18Z</time>
      </trkpt>
      <trkpt lat="45.32725" lon="1.48037">
        <ele>295</ele>
        <time>2020-09-20T01:29:36Z</time>
      </trkpt>
      <trkpt lat="45.3274" lon="1.48099">
        <ele>302</ele>
        <time>2020-09-20T01:30:37Z</time>
      </trkpt>
      <trkpt lat="45.3279" lon="1.48127">
        <ele>305</ele>
        <time>2020-09-20T01:31:49Z</time>
      </trkpt>
      <trkpt lat="45.32805" lon="1.48161">
        <ele>309</ele>
        <time>2020-09-20T01:32:27Z</time>
      </trkpt>
      <trkpt lat="45.32818" lon="1.48243">
        <ele>317</ele>
        <time>2020-09-20T01:33:45Z</time>
      </trkpt>
      <trkpt lat="45.32862" lon="1.48342">
        <ele>327</ele>
        <time>2020-09-20T01:35:35Z</time>
      </trkpt>
      <trkpt lat="45.32869" lon="1.48419">
        <ele>332</ele>
        <time>2020-09-20T01:36:48Z</time>
      </trkpt>
      <trkpt lat="45.32883" lon="1.48496">
        <ele>333</ele>
        <time>2020-09-20T01:38:03Z</time>
      </trkpt>
      <trkpt lat="45.32815" lon="1.48608">
        <ele>336</ele>
        <time>2020-09-20T01:40:22Z</time>
      </trkpt>
      <trkpt lat="45.3278" lon="1.48601">
        <ele>335</ele>
        <time>2020-09-20T01:41:09Z</time>
      </trkpt>
      <trkpt lat="45.32835" lon="1.48863">
        <ele>331</ele>
        <time>2020-09-20T01:45:25Z</time>
      </trkpt>
      <trkpt lat="45.32889" lon="1.48852">
        <ele>326</ele>
        <time>2020-09-20T01:46:38Z</time>
      </trkpt>
      <trkpt lat="45.32946" lon="1.48874">
        <ele>324</ele>
        <time>2020-09-20T01:47:57Z</time>
      </trkpt>
      <trkpt lat="45.32996" lon="1.48915">
        <ele>324</ele>
        <time>2020-09-20T01:49:14Z</time>
      </trkpt>
      <trkpt lat="45.33047" lon="1.4899">
        <ele>323</ele>
        <time>2020-09-20T01:50:52Z</time>
      </trkpt>
      <trkpt lat="45.33026" lon="1.49176">
        <ele>306</ele>
        <time>2020-09-20T01:53:48Z</time>
      </trkpt>
      <trkpt lat="45.33008" lon="1.49241">
        <ele>307</ele>
        <time>2020-09-20T01:54:54Z</time>
      </trkpt>
      <trkpt lat="45.33026" lon="1.49271">
        <ele>308</ele>
        <time>2020-09-20T01:55:31Z</time>
      </trkpt>
      <trkpt lat="45.33076" lon="1.49294">
        <ele>311</ele>
        <time>2020-09-20T01:56:41Z</time>
      </trkpt>
      <trkpt lat="45.33156" lon="1.49419">
        <ele>325</ele>
        <time>2020-09-20T01:59:20Z</time>
      </trkpt>
      <trkpt lat="45.33188" lon="1.49417">
        <ele>325</ele>
        <time>2020-09-20T02:00:02Z</time>
      </trkpt>
      <trkpt lat="45.33209" lon="1.49425">
        <ele>325</ele>
        <time>2020-09-20T02:00:32Z</time>
      </trkpt>
      <trkpt lat="45.33227" lon="1.49453">
        <ele>326</ele>
        <time>2020-09-20T02:01:07Z</time>
      </trkpt>
      <trkpt lat="45.33186" lon="1.49513">
        <ele>331</ele>
        <time>2020-09-20T02:02:26Z</time>
      </trkpt>
      <trkpt lat="45.33158" lon="1.49537">
        <ele>334</ele>
        <time>2020-09-20T02:03:09Z</time>
      </trkpt>
      <trkpt lat="45.33171" lon="1.49558">
        <ele>334</ele>
        <time>2020-09-20T02:03:35Z</time>
      </trkpt>
      <trkpt lat="45.3317" lon="1.49593">
        <ele>336</ele>
        <time>2020-09-20T02:04:08Z</time>
      </trkpt>
      <trkpt lat="45.33176" lon="1.4964">
        <ele>335</ele>
        <time>2020-09-20T02:04:53Z</time>
      </trkpt>
      <trkpt lat="45.33129" lon="1.49814">
        <ele>339</ele>
        <time>2020-09-20T02:07:48Z</time>
      </trkpt>
      <trkpt lat="45.33105" lon="1.49867">
        <ele>342</ele>
        <time>2020-09-20T02:08:47Z</time>
      </trkpt>
      <trkpt lat="45.33117" lon="1.4991">
        <ele>341</ele>
        <time>2020-09-20T02:09:31Z</time>
      </trkpt>
      <trkpt lat="45.33182" lon="1.49927">
        <ele>339</ele>
        <time>2020-09-20T02:10:59Z</time>
      </trkpt>
      <trkpt lat="45.33206" lon="1.49964">
        <ele>341</ele>
        <time>2020-09-20T02:11:46Z</time>
      </trkpt>
      <trkpt lat="45.33221" lon="1.50011">
        <ele>342</ele>
        <time>2020-09-20T02:12:34Z</time>
      </trkpt>
      <trkpt lat="45.33215" lon="1.50093">
        <ele>341</ele>
        <time>2020-09-20T02:13:52Z</time>
      </trkpt>
      <trkpt lat="45.33227" lon="1.50136">
        <ele>336</ele>
        <time>2020-09-20T02:14:35Z</time>
      </trkpt>
      <trkpt lat="45.33215" lon="1.50215">
        <ele>336</ele>
        <time>2020-09-20T02:15:51Z</time>
      </trkpt>
      <trkpt lat="45.33238" lon="1.50288">
        <ele>333</ele>
        <time>2020-09-20T02:17:06Z</time>
      </trkpt>
      <trkpt lat="45.33248" lon="1.50357">
        <ele>333</ele>
        <time>2020-09-20T02:18:12Z</time>
      </trkpt>
      <trkpt lat="45.33236" lon="1.50432">
        <ele>332</ele>
        <time>2020-09-20T02:19:24Z</time>
      </trkpt>
      <trkpt lat="45.33207" lon="1.50505">
        <ele>325</ele>
        <time>2020-09-20T02:20:43Z</time>
      </trkpt>
      <trkpt lat="45.33269" lon="1.50575">
        <ele>309</ele>
        <time>2020-09-20T02:22:29Z</time>
      </trkpt>
      <trkpt lat="45.33331" lon="1.50541">
        <ele>300</ele>
        <time>2020-09-20T02:23:57Z</time>
      </trkpt>
      <trkpt lat="45.33414" lon="1.50402">
        <ele>289</ele>
        <time>2020-09-20T02:26:48Z</time>
      </trkpt>
      <trkpt lat="45.3344" lon="1.50339">
        <ele>285</ele>
        <time>2020-09-20T02:27:57Z</time>
      </trkpt>
      <trkpt lat="45.33458" lon="1.50369">
        <ele>280</ele>
        <time>2020-09-20T02:28:34Z</time>
      </trkpt>
      <trkpt lat="45.33495" lon="1.5041">
        <ele>271</ele>
        <time>2020-09-20T02:29:36Z</time>
      </trkpt>
      <trkpt lat="45.33524" lon="1.50397">
        <ele>273</ele>
        <time>2020-09-20T02:30:17Z</time>
      </trkpt>
      <trkpt lat="45.33566" lon="1.50395">
        <ele>280</ele>
        <time>2020-09-20T02:31:13Z</time>
      </trkpt>
      <trkpt lat="45.336" lon="1.5043">
        <ele>284</ele>
        <time>2020-09-20T02:32:09Z</time>
      </trkpt>
      <trkpt lat="45.3363" lon="1.5047">
        <ele>289</ele>
        <time>2020-09-20T02:33:04Z</time>
      </trkpt>
      <trkpt lat="45.33683" lon="1.50494">
        <ele>298</ele>
        <time>2020-09-20T02:34:18Z</time>
      </trkpt>
      <trkpt lat="45.33711" lon="1.50543">
        <ele>302</ele>
        <time>2020-09-20T02:35:17Z</time>
      </trkpt>
      <trkpt lat="45.33705" lon="1.50612">
        <ele>301</ele>
        <time>2020-09-20T02:36:23Z</time>
      </trkpt>
      <trkpt lat="45.33689" lon="1.50631">
        <ele>301</ele>
        <time>2020-09-20T02:36:50Z</time>
      </trkpt>
      <trkpt lat="45.33683" lon="1.50678">
        <ele>303</ele>
        <time>2020-09-20T02:37:35Z</time>
      </trkpt>
      <trkpt lat="45.33664" lon="1.50717">
        <ele>307</ele>
        <time>2020-09-20T02:38:20Z</time>
      </trkpt>
      <trkpt lat="45.33667" lon="1.50775">
        <ele>311</ele>
        <time>2020-09-20T02:39:14Z</time>
      </trkpt>
      <trkpt lat="45.33681" lon="1.50833">
        <ele>313</ele>
        <time>2020-09-20T02:40:12Z</time>
      </trkpt>
      <trkpt lat="45.33684" lon="1.50895">
        <ele>318</ele>
        <time>2020-09-20T02:41:10Z</time>
      </trkpt>
      <trkpt lat="45.33692" lon="1.50977">
        <ele>318</ele>
        <time>2020-09-20T02:42:28Z</time>
      </trkpt>
      <trkpt lat="45.33654" lon="1.51146">
        <ele>332</ele>
        <time>2020-09-20T02:45:14Z</time>
      </trkpt>
      <trkpt lat="45.33684" lon="1.51206">
        <ele>334</ele>
        <time>2020-09-20T02:46:23Z</time>
      </trkpt>
      <trkpt lat="45.33758" lon="1.51251">
        <ele>332</ele>
        <time>2020-09-20T02:48:11Z</time>
      </trkpt>
      <trkpt lat="45.33809" lon="1.51309">
        <ele>339</ele>
        <time>2020-09-20T02:49:38Z</time>
      </trkpt>
      <trkpt lat="45.33873" lon="1.51314">
        <ele>332</ele>
        <time>2020-09-20T02:51:03Z</time>
      </trkpt>
      <trkpt lat="45.33933" lon="1.51399">
        <ele>338</ele>
        <time>2020-09-20T02:52:56Z</time>
      </trkpt>
      <trkpt lat="45.33966" lon="1.51421">
        <ele>336</ele>
        <time>2020-09-20T02:53:45Z</time>
      </trkpt>
      <trkpt lat="45.33993" lon="1.5146">
        <ele>336</ele>
        <time>2020-09-20T02:54:36Z</time>
      </trkpt>
      <trkpt lat="45.34004" lon="1.51528">
        <ele>341</ele>
        <time>2020-09-20T02:55:42Z</time>
      </trkpt>
      <trkpt lat="45.34035" lon="1.51507">
        <ele>340</ele>
        <time>2020-09-20T02:56:28Z</time>
      </trkpt>
      <trkpt lat="45.34049" lon="1.51432">
        <ele>333</ele>
        <time>2020-09-20T02:57:40Z</time>
      </trkpt>
      <trkpt lat="45.34076" lon="1.51382">
        <ele>331</ele>
        <time>2020-09-20T02:58:40Z</time>
      </trkpt>
      <trkpt lat="45.34111" lon="1.51348">
        <ele>333</ele>
        <time>2020-09-20T02:59:36Z</time>
      </trkpt>
      <trkpt lat="45.3415" lon="1.51348">
        <ele>337</ele>
        <time>2020-09-20T03:00:28Z</time>
      </trkpt>
      <trkpt lat="45.34215" lon="1.51419">
        <ele>344</ele>
        <time>2020-09-20T03:02:18Z</time>
      </trkpt>
      <trkpt lat="45.34272" lon="1.51408">
        <ele>346</ele>
        <time>2020-09-20T03:03:34Z</time>
      </trkpt>
      <trkpt lat="45.34302" lon="1.51363">
        <ele>348</ele>
        <time>2020-09-20T03:04:32Z</time>
      </trkpt>
      <trkpt lat="45.34292" lon="1.51254">
        <ele>345</ele>
        <time>2020-09-20T03:06:16Z</time>
      </trkpt>
      <trkpt lat="45.34328" lon="1.51198">
        <ele>347</ele>
        <time>2020-09-20T03:07:27Z</time>
      </trkpt>
      <trkpt lat="45.34381" lon="1.51151">
        <ele>351</ele>
        <time>2020-09-20T03:08:50Z</time>
      </trkpt>
      <trkpt lat="45.34462" lon="1.51153">
        <ele>357</ele>
        <time>2020-09-20T03:10:38Z</time>
      </trkpt>
      <trkpt lat="45.34575" lon="1.51341">
        <ele>366</ele>
        <time>2020-09-20T03:14:30Z</time>
      </trkpt>
      <trkpt lat="45.3463" lon="1.515">
        <ele>371</ele>
        <time>2020-09-20T03:17:16Z</time>
      </trkpt>
      <trkpt lat="45.34728" lon="1.51444">
        <ele>372</ele>
        <time>2020-09-20T03:19:37Z</time>
      </trkpt>
      <trkpt lat="45.34847" lon="1.51498">
        <ele>366</ele>
        <time>2020-09-20T03:22:24Z</time>
      </trkpt>
      <trkpt lat="45.34894" lon="1.51522">
        <ele>361</ele>
        <time>2020-09-20T03:23:31Z</time>
      </trkpt>
      <trkpt lat="45.34936" lon="1.51578">
        <ele>360</ele>
        <time>2020-09-20T03:24:47Z</time>
      </trkpt>
      <trkpt lat="45.35157" lon="1.51524">
        <ele>377</ele>
        <time>2020-09-20T03:29:47Z</time>
      </trkpt>
      <trkpt lat="45.35203" lon="1.51539">
        <ele>377</ele>
        <time>2020-09-20T03:30:50Z</time>
      </trkpt>
      <trkpt lat="45.35236" lon="1.51563">
        <ele>376</ele>
        <time>2020-09-20T03:31:39Z</time>
      </trkpt>
      <trkpt lat="45.35286" lon="1.51569">
        <ele>376</ele>
        <time>2020-09-20T03:32:46Z</time>
      </trkpt>
      <trkpt lat="45.35346" lon="1.51547">
        <ele>376</ele>
        <time>2020-09-20T03:34:09Z</time>
      </trkpt>
      <trkpt lat="45.35376" lon="1.51498">
        <ele>375</ele>
        <time>2020-09-20T03:35:10Z</time>
      </trkpt>
      <trkpt lat="45.35411" lon="1.5147">
        <ele>374</ele>
        <time>2020-09-20T03:36:03Z</time>
      </trkpt>
      <trkpt lat="45.35408" lon="1.51526">
        <ele>374</ele>
        <time>2020-09-20T03:36:56Z</time>
      </trkpt>
      <trkpt lat="45.35575" lon="1.51623">
        <ele>359</ele>
        <time>2020-09-20T03:40:57Z</time>
      </trkpt>
      <trkpt lat="45.35595" lon="1.51657">
        <ele>357</ele>
        <time>2020-09-20T03:41:38Z</time>
      </trkpt>
      <trkpt lat="45.35614" lon="1.51734">
        <ele>351</ele>
        <time>2020-09-20T03:42:55Z</time>
      </trkpt>
      <trkpt lat="45.3566" lon="1.51764">
        <ele>351</ele>
        <time>2020-09-20T03:44:02Z</time>
      </trkpt>
      <trkpt lat="45.35685" lon="1.51792">
        <ele>348</ele>
        <time>2020-09-20T03:44:45Z</time>
      </trkpt>
      <trkpt lat="45.35712" lon="1.51863">
        <ele>339</ele>
        <time>2020-09-20T03:46:00Z</time>
      </trkpt>
      <trkpt lat="45.35951" lon="1.51987">
        <ele>298</ele>
        <time>2020-09-20T03:51:40Z</time>
      </trkpt>
      <trkpt lat="45.35997" lon="1.51938">
        <ele>292</ele>
        <time>2020-09-20T03:52:57Z</time>
      </trkpt>
      <trkpt lat="45.35996" lon="1.5188">
        <ele>291</ele>
        <time>2020-09-20T03:53:51Z</time>
      </trkpt>
      <trkpt lat="45.3597" lon="1.51824">
        <ele>297</ele>
        <time>2020-09-20T03:54:54Z</time>
      </trkpt>
      <trkpt lat="45.35975" lon="1.51751">
        <ele>299</ele>
        <time>2020-09-20T03:56:03Z</time>
      </trkpt>
      <trkpt lat="45.36006" lon="1.517">
        <ele>300</ele>
        <time>2020-09-20T03:57:06Z</time>
      </trkpt>
      <trkpt lat="45.3604" lon="1.51687">
        <ele>296</ele>
        <time>2020-09-20T03:57:53Z</time>
      </trkpt>
      <trkpt lat="45.36056" lon="1.51719">
        <ele>289</ele>
        <time>2020-09-20T03:58:30Z</time>
      </trkpt>
      <trkpt lat="45.36046" lon="1.51781">
        <ele>286</ele>
        <time>2020-09-20T03:59:29Z</time>
      </trkpt>
      <trkpt lat="45.36056" lon="1.51833">
        <ele>288</ele>
        <time>2020-09-20T04:00:20Z</time>
      </trkpt>
      <trkpt lat="45.361" lon="1.51867">
        <ele>292</ele>
        <time>2020-09-20T04:01:27Z</time>
      </trkpt>
      <trkpt lat="45.36116" lon="1.51895">
        <ele>297</ele>
        <time>2020-09-20T04:02:01Z</time>
      </trkpt>
      <trkpt lat="45.36121" lon="1.51981">
        <ele>303</ele>
        <time>2020-09-20T04:03:22Z</time>
      </trkpt>
      <trkpt lat="45.36119" lon="1.5217">
        <ele>303</ele>
        <time>2020-09-20T04:06:19Z</time>
      </trkpt>
      <trkpt lat="45.36142" lon="1.5217">
        <ele>308</ele>
        <time>2020-09-20T04:06:49Z</time>
      </trkpt>
      <trkpt lat="45.36211" lon="1.52198">
        <ele>319</ele>
        <time>2020-09-20T04:08:25Z</time>
      </trkpt>
      <trkpt lat="45.36288" lon="1.52234">
        <ele>330</ele>
        <time>2020-09-20T04:10:13Z</time>
      </trkpt>
      <trkpt lat="45.36361" lon="1.52311">
        <ele>333</ele>
        <time>2020-09-20T04:12:15Z</time>
      </trkpt>
      <trkpt lat="45.36415" lon="1.52275">
        <ele>341</ele>
        <time>2020-09-20T04:13:34Z</time>
      </trkpt>
      <trkpt lat="45.36466" lon="1.52268">
        <ele>343</ele>
        <time>2020-09-20T04:14:43Z</time>
      </trkpt>
      <trkpt lat="45.3665" lon="1.52228">
        <ele>354</ele>
        <time>2020-09-20T04:18:51Z</time>
      </trkpt>
      <trkpt lat="45.36695" lon="1.52247">
        <ele>356</ele>
        <time>2020-09-20T04:19:54Z</time>
      </trkpt>
      <trkpt lat="45.3676" lon="1.52258">
        <ele>359</ele>
        <time>2020-09-20T04:21:21Z</time>
      </trkpt>
      <trkpt lat="45.36842" lon="1.52268">
        <ele>361</ele>
        <time>2020-09-20T04:23:11Z</time>
      </trkpt>
      <trkpt lat="45.36902" lon="1.52266">
        <ele>365</ele>
        <time>2020-09-20T04:24:31Z</time>
      </trkpt>
      <trkpt lat="45.36985" lon="1.52335">
        <ele>368</ele>
        <time>2020-09-20T04:26:39Z</time>
      </trkpt>
      <trkpt lat="45.3705" lon="1.52329">
        <ele>369</ele>
        <time>2020-09-20T04:28:06Z</time>
      </trkpt>
      <trkpt lat="45.37134" lon="1.52438">
        <ele>373</ele>
        <time>2020-09-20T04:30:38Z</time>
      </trkpt>
      <trkpt lat="45.37223" lon="1.52494">
        <ele>370</ele>
        <time>2020-09-20T04:32:48Z</time>
      </trkpt>
      <trkpt lat="45.3735" lon="1.52526">
        <ele>360</ele>
        <time>2020-09-20T04:35:40Z</time>
      </trkpt>
      <trkpt lat="45.37392" lon="1.52513">
        <ele>357</ele>
        <time>2020-09-20T04:36:37Z</time>
      </trkpt>
      <trkpt lat="45.37472" lon="1.525">
        <ele>352</ele>
        <time>2020-09-20T04:38:24Z</time>
      </trkpt>
      <trkpt lat="45.3742" lon="1.52427">
        <ele>356</ele>
        <time>2020-09-20T04:40:02Z</time>
      </trkpt>
      <trkpt lat="45.37401" lon="1.52337">
        <ele>358</ele>
        <time>2020-09-20T04:41:30Z</time>
      </trkpt>
      <trkpt lat="45.37353" lon="1.52232">
        <ele>359</ele>
        <time>2020-09-20T04:43:27Z</time>
      </trkpt>
      <trkpt lat="45.37341" lon="1.52163">
        <ele>357</ele>
        <time>2020-09-20T04:44:34Z</time>
      </trkpt>
      <trkpt lat="45.37336" lon="1.51942">
        <ele>350</ele>
        <time>2020-09-20T04:48:01Z</time>
      </trkpt>
      <trkpt lat="45.37354" lon="1.5179">
        <ele>341</ele>
        <time>2020-09-20T04:50:26Z</time>
      </trkpt>
      <trkpt lat="45.37369" lon="1.51702">
        <ele>334</ele>
        <time>2020-09-20T04:51:51Z</time>
      </trkpt>
      <trkpt lat="45.37436" lon="1.51743">
        <ele>333</ele>
        <time>2020-09-20T04:53:28Z</time>
      </trkpt>
      <trkpt lat="45.3749" lon="1.51758">
        <ele>329</ele>
        <time>2020-09-20T04:54:42Z</time>
      </trkpt>
      <trkpt lat="45.37576" lon="1.51674">
        <ele>328</ele>
        <time>2020-09-20T04:57:01Z</time>
      </trkpt>
      <trkpt lat="45.37672" lon="1.51569">
        <ele>320</ele>
        <time>2020-09-20T04:59:42Z</time>
      </trkpt>
      <trkpt lat="45.37754" lon="1.5153">
        <ele>310</ele>
        <time>2020-09-20T05:01:38Z</time>
      </trkpt>
      <trkpt lat="45.37778" lon="1.51466">
        <ele>306</ele>
        <time>2020-09-20T05:02:46Z</time>
      </trkpt>
      <trkpt lat="45.37826" lon="1.51449">
        <ele>302</ele>
        <time>2020-09-20T05:03:52Z</time>
      </trkpt>
      <trkpt lat="45.37852" lon="1.51472">
        <ele>303</ele>
        <time>2020-09-20T05:04:32Z</time>
      </trkpt>
      <trkpt lat="45.37877" lon="1.51526">
        <ele>306</ele>
        <time>2020-09-20T05:05:33Z</time>
      </trkpt>
      <trkpt lat="45.37912" lon="1.51502">
        <ele>307</ele>
        <time>2020-09-20T05:06:25Z</time>
      </trkpt>
      <trkpt lat="45.37965" lon="1.515">
        <ele>305</ele>
        <time>2020-09-20T05:07:36Z</time>
      </trkpt>
      <trkpt lat="45.38005" lon="1.51466">
        <ele>299</ele>
        <time>2020-09-20T05:08:38Z</time>
      </trkpt>
      <trkpt lat="45.38028" lon="1.51423">
        <ele>293</ele>
        <time>2020-09-20T05:09:29Z</time>
      </trkpt>
      <trkpt lat="45.38055" lon="1.51301">
        <ele>271</ele>
        <time>2020-09-20T05:11:28Z</time>
      </trkpt>
      <trkpt lat="45.38097" lon="1.51292">
        <ele>269</ele>
        <time>2020-09-20T05:12:25Z</time>
      </trkpt>
      <trkpt lat="45.38167" lon="1.51294">
        <ele>265</ele>
        <time>2020-09-20T05:13:59Z</time>
      </trkpt>
      <trkpt lat="45.38207" lon="1.51348">
        <ele>265</ele>
        <time>2020-09-20T05:15:12Z</time>
      </trkpt>
      <trkpt lat="45.38245" lon="1.51307">
        <ele>261</ele>
        <time>2020-09-20T05:16:16Z</time>
      </trkpt>
      <trkpt lat="45.38252" lon="1.51294">
        <ele>262</ele>
        <time>2020-09-20T05:16:31Z</time>
      </trkpt>
      <trkpt lat="45.38299" lon="1.51329">
        <ele>263</ele>
        <time>2020-09-20T05:17:42Z</time>
      </trkpt>
      <trkpt lat="45.3834" lon="1.5138">
        <ele>264</ele>
        <time>2020-09-20T05:18:54Z</time>
      </trkpt>
      <trkpt lat="45.3842" lon="1.51408">
        <ele>273</ele>
        <time>2020-09-20T05:20:44Z</time>
      </trkpt>
      <trkpt lat="45.3843" lon="1.51511">
        <ele>267</ele>
        <time>2020-09-20T05:22:22Z</time>
      </trkpt>
      <trkpt lat="45.38463" lon="1.51586">
        <ele>274</ele>
        <time>2020-09-20T05:23:45Z</time>
      </trkpt>
      <trkpt lat="45.38504" lon="1.51638">
        <ele>275</ele>
        <time>2020-09-20T05:24:58Z</time>
      </trkpt>
      <trkpt lat="45.38522" lon="1.51723">
        <ele>272</ele>
        <time>2020-09-20T05:26:21Z</time>
      </trkpt>
      <trkpt lat="45.38566" lon="1.51801">
        <ele>272</ele>
        <time>2020-09-20T05:27:55Z</time>
      </trkpt>
      <trkpt lat="45.38625" lon="1.51852">
        <ele>271</ele>
        <time>2020-09-20T05:29:27Z</time>
      </trkpt>
      <trkpt lat="45.38625" lon="1.51979">
        <ele>281</ele>
        <time>2020-09-20T05:31:26Z</time>
      </trkpt>
      <trkpt lat="45.38662" lon="1.51972">
        <ele>280</ele>
        <time>2020-09-20T05:32:16Z</time>
      </trkpt>
      <trkpt lat="45.3873" lon="1.51914">
        <ele>274</ele>
        <time>2020-09-20T05:34:02Z</time>
      </trkpt>
      <trkpt lat="45.38774" lon="1.51882">
        <ele>275</ele>
        <time>2020-09-20T05:35:08Z</time>
      </trkpt>
      <trkpt lat="45.38809" lon="1.51869">
        <ele>274</ele>
        <time>2020-09-20T05:35:56Z</time>
      </trkpt>
      <trkpt lat="45.38855" lon="1.51867">
        <ele>275</ele>
        <time>2020-09-20T05:36:57Z</time>
      </trkpt>
      <trkpt lat="45.38887" lon="1.51893">
        <ele>277</ele>
        <time>2020-09-20T05:37:47Z</time>
      </trkpt>
      <trkpt lat="45.38911" lon="1.51921">
        <ele>277</ele>
        <time>2020-09-20T05:38:28Z</time>
      </trkpt>
      <trkpt lat="45.39027" lon="1.52133">
        <ele>280</ele>
        <time>2020-09-20T05:42:40Z</time>
      </trkpt>
      <trkpt lat="45.39071" lon="1.5218">
        <ele>275</ele>
        <time>2020-09-20T05:43:53Z</time>
      </trkpt>
      <trkpt lat="45.39098" lon="1.52228">
        <ele>274</ele>
        <time>2020-09-20T05:44:51Z</time>
      </trkpt>
      <trkpt lat="45.39164" lon="1.52273">
        <ele>274</ele>
        <time>2020-09-20T05:46:29Z</time>
      </trkpt>
      <trkpt lat="45.39227" lon="1.52279">
        <ele>274</ele>
        <time>2020-09-20T05:47:53Z</time>
      </trkpt>
      <trkpt lat="45.39283" lon="1.52266">
        <ele>273</ele>
        <time>2020-09-20T05:49:09Z</time>
      </trkpt>
      <trkpt lat="45.39506" lon="1.52305">
        <ele>279</ele>
        <time>2020-09-20T05:54:08Z</time>
      </trkpt>
      <trkpt lat="45.39658" lon="1.52311">
        <ele>275</ele>
        <time>2020-09-20T05:57:31Z</time>
      </trkpt>
      <trkpt lat="45.39704" lon="1.52307">
        <ele>277</ele>
        <time>2020-09-20T05:58:33Z</time>
      </trkpt>
      <trkpt lat="45.39755" lon="1.52264">
        <ele>272</ele>
        <time>2020-09-20T05:59:52Z</time>
      </trkpt>
      <trkpt lat="45.39793" lon="1.5226">
        <ele>272</ele>
        <time>2020-09-20T06:00:43Z</time>
      </trkpt>
      <trkpt lat="45.39848" lon="1.52275">
        <ele>275</ele>
        <time>2020-09-20T06:01:57Z</time>
      </trkpt>
      <trkpt lat="45.39912" lon="1.52288">
        <ele>276</ele>
        <time>2020-09-20T06:03:24Z</time>
      </trkpt>
      <trkpt lat="45.39934" lon="1.52273">
        <ele>273</ele>
        <time>2020-09-20T06:03:56Z</time>
      </trkpt>
      <trkpt lat="45.39975" lon="1.52305">
        <ele>275</ele>
        <time>2020-09-20T06:04:59Z</time>
      </trkpt>
      <trkpt lat="45.39988" lon="1.52344">
        <ele>278</ele>
        <time>2020-09-20T06:05:39Z</time>
      </trkpt>
      <trkpt lat="45.40141" lon="1.5252">
        <ele>275</ele>
        <time>2020-09-20T06:10:02Z</time>
      </trkpt>
      <trkpt lat="45.40214" lon="1.52502">
        <ele>270</ele>
        <time>2020-09-20T06:11:40Z</time>
      </trkpt>
      <trkpt lat="45.40249" lon="1.52511">
        <ele>269</ele>
        <time>2020-09-20T06:12:28Z</time>
      </trkpt>
      <trkpt lat="45.40282" lon="1.52537">
        <ele>269</ele>
        <time>2020-09-20T06:13:18Z</time>
      </trkpt>
      <trkpt lat="45.40302" lon="1.52569">
        <ele>267</ele>
        <time>2020-09-20T06:13:58Z</time>
      </trkpt>
      <trkpt lat="45.40288" lon="1.52726">
        <ele>275</ele>
        <time>2020-09-20T06:16:27Z</time>
      </trkpt>
      <trkpt lat="45.40362" lon="1.52756">
        <ele>273</ele>
        <time>2020-09-20T06:18:09Z</time>
      </trkpt>
      <trkpt lat="45.40406" lon="1.52897">
        <ele>286</ele>
        <time>2020-09-20T06:20:34Z</time>
      </trkpt>
      <trkpt lat="45.40433" lon="1.52932">
        <ele>290</ele>
        <time>2020-09-20T06:21:23Z</time>
      </trkpt>
      <trkpt lat="45.40483" lon="1.52925">
        <ele>290</ele>
        <time>2020-09-20T06:22:30Z</time>
      </trkpt>
      <trkpt lat="45.40511" lon="1.52947">
        <ele>293</ele>
        <time>2020-09-20T06:23:12Z</time>
      </trkpt>
      <trkpt lat="45.40549" lon="1.53026">
        <ele>300</ele>
        <time>2020-09-20T06:24:42Z</time>
      </trkpt>
      <trkpt lat="45.4058" lon="1.53065">
        <ele>305</ele>
        <time>2020-09-20T06:25:37Z</time>
      </trkpt>
      <trkpt lat="45.40615" lon="1.53217">
        <ele>313</ele>
        <time>2020-09-20T06:28:07Z</time>
      </trkpt>
      <trkpt lat="45.40659" lon="1.53359">
        <ele>320</ele>
        <time>2020-09-20T06:30:33Z</time>
      </trkpt>
      <trkpt lat="45.40703" lon="1.53397">
        <ele>322</ele>
        <time>2020-09-20T06:31:41Z</time>
      </trkpt>
      <trkpt lat="45.40725" lon="1.53489">
        <ele>323</ele>
        <time>2020-09-20T06:33:12Z</time>
      </trkpt>
      <trkpt lat="45.40701" lon="1.53779">
        <ele>328</ele>
        <time>2020-09-20T06:37:46Z</time>
      </trkpt>
      <trkpt lat="45.40828" lon="1.53816">
        <ele>340</ele>
        <time>2020-09-20T06:40:39Z</time>
      </trkpt>
      <trkpt lat="45.40886" lon="1.53884">
        <ele>348</ele>
        <time>2020-09-20T06:42:19Z</time>
      </trkpt>
      <trkpt lat="45.40984" lon="1.54007">
        <ele>353</ele>
        <time>2020-09-20T06:45:13Z</time>
      </trkpt>
      <trkpt lat="45.41025" lon="1.54131">
        <ele>356</ele>
        <time>2020-09-20T06:47:22Z</time>
      </trkpt>
      <trkpt lat="45.41029" lon="1.54429">
        <ele>363</ele>
        <time>2020-09-20T06:52:01Z</time>
      </trkpt>
      <trkpt lat="45.41064" lon="1.54524">
        <ele>366</ele>
        <time>2020-09-20T06:53:41Z</time>
      </trkpt>
      <trkpt lat="45.41108" lon="1.54697">
        <ele>365</ele>
        <time>2020-09-20T06:56:34Z</time>
      </trkpt>
      <trkpt lat="45.41111" lon="1.54794">
        <ele>367</ele>
        <time>2020-09-20T06:58:05Z</time>
      </trkpt>
      <trkpt lat="45.41099" lon="1.54861">
        <ele>369</ele>
        <time>2020-09-20T06:59:10Z</time>
      </trkpt>
      <trkpt lat="45.41165" lon="1.54961">
        <ele>370</ele>
        <time>2020-09-20T07:01:18Z</time>
      </trkpt>
      <trkpt lat="45.41284" lon="1.55002">
        <ele>366</ele>
        <time>2020-09-20T07:04:02Z</time>
      </trkpt>
      <trkpt lat="45.41343" lon="1.55052">
        <ele>360</ele>
        <time>2020-09-20T07:05:33Z</time>
      </trkpt>
      <trkpt lat="45.41391" lon="1.55079">
        <ele>354</ele>
        <time>2020-09-20T07:06:42Z</time>
      </trkpt>
      <trkpt lat="45.41435" lon="1.55142">
        <ele>349</ele>
        <time>2020-09-20T07:08:05Z</time>
      </trkpt>
      <trkpt lat="45.41472" lon="1.55187">
        <ele>342</ele>
        <time>2020-09-20T07:09:10Z</time>
      </trkpt>
      <trkpt lat="45.41504" lon="1.55204">
        <ele>337</ele>
        <time>2020-09-20T07:09:56Z</time>
      </trkpt>
      <trkpt lat="45.41539" lon="1.55245">
        <ele>332</ele>
        <time>2020-09-20T07:10:56Z</time>
      </trkpt>
      <trkpt lat="45.41581" lon="1.55277">
        <ele>329</ele>
        <time>2020-09-20T07:12:00Z</time>
      </trkpt>
      <trkpt lat="45.41584" lon="1.55333">
        <ele>323</ele>
        <time>2020-09-20T07:12:52Z</time>
      </trkpt>
      <trkpt lat="45.41667" lon="1.55448">
        <ele>306</ele>
        <time>2020-09-20T07:15:27Z</time>
      </trkpt>
      <trkpt lat="45.41727" lon="1.55545">
        <ele>297</ele>
        <time>2020-09-20T07:17:28Z</time>
      </trkpt>
      <trkpt lat="45.4179" lon="1.55622">
        <ele>299</ele>
        <time>2020-09-20T07:19:19Z</time>
      </trkpt>
      <trkpt lat="45.41856" lon="1.55848">
        <ele>301</ele>
        <time>2020-09-20T07:23:08Z</time>
      </trkpt>
      <trkpt lat="45.41868" lon="1.55944">
        <ele>301</ele>
        <time>2020-09-20T07:24:39Z</time>
      </trkpt>
      <trkpt lat="45.41912" lon="1.55991">
        <ele>294</ele>
        <time>2020-09-20T07:25:53Z</time>
      </trkpt>
      <trkpt lat="45.41929" lon="1.56071">
        <ele>299</ele>
        <time>2020-09-20T07:27:11Z</time>
      </trkpt>
      <trkpt lat="45.42064" lon="1.56219">
        <ele>318</ele>
        <time>2020-09-20T07:30:58Z</time>
      </trkpt>
      <trkpt lat="45.42093" lon="1.56264">
        <ele>324</ele>
        <time>2020-09-20T07:31:56Z</time>
      </trkpt>
      <trkpt lat="45.4215" lon="1.5632">
        <ele>325</ele>
        <time>2020-09-20T07:33:28Z</time>
      </trkpt>
      <trkpt lat="45.42252" lon="1.5632">
        <ele>314</ele>
        <time>2020-09-20T07:35:44Z</time>
      </trkpt>
      <trkpt lat="45.42337" lon="1.56277">
        <ele>315</ele>
        <time>2020-09-20T07:37:45Z</time>
      </trkpt>
      <trkpt lat="45.42412" lon="1.5629">
        <ele>329</ele>
        <time>2020-09-20T07:39:25Z</time>
      </trkpt>
      <trkpt lat="45.42486" lon="1.56309">
        <ele>325</ele>
        <time>2020-09-20T07:41:06Z</time>
      </trkpt>
      <trkpt lat="45.42531" lon="1.56448">
        <ele>315</ele>
        <time>2020-09-20T07:43:29Z</time>
      </trkpt>
      <trkpt lat="45.42638" lon="1.56575">
        <ele>302</ele>
        <time>2020-09-20T07:46:35Z</time>
      </trkpt>
      <trkpt lat="45.42689" lon="1.56541">
        <ele>299</ele>
        <time>2020-09-20T07:47:50Z</time>
      </trkpt>
      <trkpt lat="45.42701" lon="1.56564">
        <ele>297</ele>
        <time>2020-09-20T07:48:17Z</time>
      </trkpt>
      <trkpt lat="45.42635" lon="1.56603">
        <ele>300</ele>
        <time>2020-09-20T07:49:52Z</time>
      </trkpt>
      <trkpt lat="45.4264" lon="1.56708">
        <ele>295</ele>
        <time>2020-09-20T07:51:31Z</time>
      </trkpt>
      <trkpt lat="45.4263" lon="1.56757">
        <ele>300</ele>
        <time>2020-09-20T07:52:19Z</time>
      </trkpt>
      <trkpt lat="45.42573" lon="1.56749">
        <ele>300</ele>
        <time>2020-09-20T07:53:35Z</time>
      </trkpt>
      <trkpt lat="45.42539" lon="1.56717">
        <ele>302</ele>
        <time>2020-09-20T07:54:29Z</time>
      </trkpt>
      <trkpt lat="45.42528" lon="1.56691">
        <ele>301</ele>
        <time>2020-09-20T07:54:58Z</time>
      </trkpt>
      <trkpt lat="45.42493" lon="1.56665">
        <ele>302</ele>
        <time>2020-09-20T07:55:50Z</time>
      </trkpt>
      <trkpt lat="45.4239" lon="1.56556">
        <ele>307</ele>
        <time>2020-09-20T07:58:42Z</time>
      </trkpt>
      <trkpt lat="45.42328" lon="1.5653">
        <ele>304</ele>
        <time>2020-09-20T08:00:08Z</time>
      </trkpt>
      <trkpt lat="45.42272" lon="1.56541">
        <ele>303</ele>
        <time>2020-09-20T08:01:23Z</time>
      </trkpt>
      <trkpt lat="45.42221" lon="1.56605">
        <ele>310</ele>
        <time>2020-09-20T08:02:54Z</time>
      </trkpt>
      <trkpt lat="45.42168" lon="1.56699">
        <ele>315</ele>
        <time>2020-09-20T08:04:47Z</time>
      </trkpt>
      <trkpt lat="45.42088" lon="1.56757">
        <ele>308</ele>
        <time>2020-09-20T08:06:47Z</time>
      </trkpt>
      <trkpt lat="45.4204" lon="1.568">
        <ele>310</ele>
        <time>2020-09-20T08:08:02Z</time>
      </trkpt>
      <trkpt lat="45.42024" lon="1.56901">
        <ele>314</ele>
        <time>2020-09-20T08:09:39Z</time>
      </trkpt>
      <trkpt lat="45.42043" lon="1.57034">
        <ele>310</ele>
        <time>2020-09-20T08:11:47Z</time>
      </trkpt>
      <trkpt lat="45.42084" lon="1.57152">
        <ele>310</ele>
        <time>2020-09-20T08:13:50Z</time>
      </trkpt>
      <trkpt lat="45.42118" lon="1.57302">
        <ele>307</ele>
        <time>2020-09-20T08:16:18Z</time>
      </trkpt>
      <trkpt lat="45.42115" lon="1.5745">
        <ele>306</ele>
        <time>2020-09-20T08:18:36Z</time>
      </trkpt>
      <trkpt lat="45.42058" lon="1.57798">
        <ele>304</ele>
        <time>2020-09-20T08:24:11Z</time>
      </trkpt>
      <trkpt lat="45.42021" lon="1.57935">
        <ele>303</ele>
        <time>2020-09-20T08:26:28Z</time>
      </trkpt>
      <trkpt lat="45.41983" lon="1.57978">
        <ele>303</ele>
        <time>2020-09-20T08:27:33Z</time>
      </trkpt>
      <trkpt lat="45.41837" lon="1.58034">
        <ele>301</ele>
        <time>2020-09-20T08:30:55Z</time>
      </trkpt>
      <trkpt lat="45.41792" lon="1.58086">
        <ele>301</ele>
        <time>2020-09-20T08:32:12Z</time>
      </trkpt>
      <trkpt lat="45.4176" lon="1.58169">
        <ele>299</ele>
        <time>2020-09-20T08:33:41Z</time>
      </trkpt>
      <trkpt lat="45.41745" lon="1.58294">
        <ele>295</ele>
        <time>2020-09-20T08:35:40Z</time>
      </trkpt>
      <trkpt lat="45.417" lon="1.5838">
        <ele>303</ele>
        <time>2020-09-20T08:37:20Z</time>
      </trkpt>
      <trkpt lat="45.41594" lon="1.58498">
        <ele>313</ele>
        <time>2020-09-20T08:40:20Z</time>
      </trkpt>
      <trkpt lat="45.41582" lon="1.58577">
        <ele>318</ele>
        <time>2020-09-20T08:41:35Z</time>
      </trkpt>
      <trkpt lat="45.41561" lon="1.58656">
        <ele>325</ele>
        <time>2020-09-20T08:42:55Z</time>
      </trkpt>
      <trkpt lat="45.41501" lon="1.58755">
        <ele>327</ele>
        <time>2020-09-20T08:44:57Z</time>
      </trkpt>
      <trkpt lat="45.4145" lon="1.58794">
        <ele>321</ele>
        <time>2020-09-20T08:46:14Z</time>
      </trkpt>
      <trkpt lat="45.41424" lon="1.58832">
        <ele>318</ele>
        <time>2020-09-20T08:47:04Z</time>
      </trkpt>
      <trkpt lat="45.41394" lon="1.59004">
        <ele>325</ele>
        <time>2020-09-20T08:49:50Z</time>
      </trkpt>
      <trkpt lat="45.4137" lon="1.59068">
        <ele>323</ele>
        <time>2020-09-20T08:50:58Z</time>
      </trkpt>
      <trkpt lat="45.41243" lon="1.59167">
        <ele>325</ele>
        <time>2020-09-20T08:54:11Z</time>
      </trkpt>
      <trkpt lat="45.41222" lon="1.5921">
        <ele>324</ele>
        <time>2020-09-20T08:55:00Z</time>
      </trkpt>
      <trkpt lat="45.41203" lon="1.59283">
        <ele>325</ele>
        <time>2020-09-20T08:56:13Z</time>
      </trkpt>
      <trkpt lat="45.41215" lon="1.59377">
        <ele>330</ele>
        <time>2020-09-20T08:57:43Z</time>
      </trkpt>
      <trkpt lat="45.41236" lon="1.5942">
        <ele>333</ele>
        <time>2020-09-20T08:58:32Z</time>
      </trkpt>
      <trkpt lat="45.41257" lon="1.59551">
        <ele>339</ele>
        <time>2020-09-20T09:00:38Z</time>
      </trkpt>
      <trkpt lat="45.41252" lon="1.59682">
        <ele>336</ele>
        <time>2020-09-20T09:02:41Z</time>
      </trkpt>
      <trkpt lat="45.41239" lon="1.59766">
        <ele>331</ele>
        <time>2020-09-20T09:04:01Z</time>
      </trkpt>
      <trkpt lat="45.41213" lon="1.60008">
        <ele>340</ele>
        <time>2020-09-20T09:07:51Z</time>
      </trkpt>
      <trkpt lat="45.41177" lon="1.60146">
        <ele>342</ele>
        <time>2020-09-20T09:10:08Z</time>
      </trkpt>
      <trkpt lat="45.41132" lon="1.60246">
        <ele>341</ele>
        <time>2020-09-20T09:12:00Z</time>
      </trkpt>
      <trkpt lat="45.41099" lon="1.60394">
        <ele>343</ele>
        <time>2020-09-20T09:14:25Z</time>
      </trkpt>
      <trkpt lat="45.40989" lon="1.60671">
        <ele>347</ele>
        <time>2020-09-20T09:19:23Z</time>
      </trkpt>
      <trkpt lat="45.40983" lon="1.60828">
        <ele>356</ele>
        <time>2020-09-20T09:21:51Z</time>
      </trkpt>
      <trkpt lat="45.41013" lon="1.60905">
        <ele>354</ele>
        <time>2020-09-20T09:23:13Z</time>
      </trkpt>
      <trkpt lat="45.41075" lon="1.61002">
        <ele>350</ele>
        <time>2020-09-20T09:25:16Z</time>
      </trkpt>
      <trkpt lat="45.41085" lon="1.61098">
        <ele>351</ele>
        <time>2020-09-20T09:26:47Z</time>
      </trkpt>
      <trkpt lat="45.41079" lon="1.61289">
        <ele>348</ele>
        <time>2020-09-20T09:29:46Z</time>
      </trkpt>
      <trkpt lat="45.41066" lon="1.61435">
        <ele>353</ele>
        <time>2020-09-20T09:32:04Z</time>
      </trkpt>
      <trkpt lat="45.41079" lon="1.61525">
        <ele>352</ele>
        <time>2020-09-20T09:33:30Z</time>
      </trkpt>
      <trkpt lat="45.41106" lon="1.61648">
        <ele>355</ele>
        <time>2020-09-20T09:35:31Z</time>
      </trkpt>
      <trkpt lat="45.41114" lon="1.61774">
        <ele>364</ele>
        <time>2020-09-20T09:37:29Z</time>
      </trkpt>
      <trkpt lat="45.41117" lon="1.61912">
        <ele>368</ele>
        <time>2020-09-20T09:39:39Z</time>
      </trkpt>
      <trkpt lat="45.41049" lon="1.62083">
        <ele>364</ele>
        <time>2020-09-20T09:42:43Z</time>
      </trkpt>
      <trkpt lat="45.41051" lon="1.62287">
        <ele>366</ele>
        <time>2020-09-20T09:45:54Z</time>
      </trkpt>
      <trkpt lat="45.4098" lon="1.62446">
        <ele>368</ele>
        <time>2020-09-20T09:48:50Z</time>
      </trkpt>
      <trkpt lat="45.4096" lon="1.62502">
        <ele>368</ele>
        <time>2020-09-20T09:49:49Z</time>
      </trkpt>
      <trkpt lat="45.4096" lon="1.62682">
        <ele>368</ele>
        <time>2020-09-20T09:52:38Z</time>
      </trkpt>
      <trkpt lat="45.40826" lon="1.62886">
        <ele>369</ele>
        <time>2020-09-20T09:57:00Z</time>
      </trkpt>
      <trkpt lat="45.40811" lon="1.62993">
        <ele>376</ele>
        <time>2020-09-20T09:58:42Z</time>
      </trkpt>
      <trkpt lat="45.40817" lon="1.63102">
        <ele>381</ele>
        <time>2020-09-20T10:00:24Z</time>
      </trkpt>
      <trkpt lat="45.40817" lon="1.6322">
        <ele>380</ele>
        <time>2020-09-20T10:02:15Z</time>
      </trkpt>
      <trkpt lat="45.40802" lon="1.63283">
        <ele>384</ele>
        <time>2020-09-20T10:03:17Z</time>
      </trkpt>
      <trkpt lat="45.40668" lon="1.63422">
        <ele>393</ele>
        <time>2020-09-20T10:06:58Z</time>
      </trkpt>
      <trkpt lat="45.40609" lon="1.63525">
        <ele>393</ele>
        <time>2020-09-20T10:09:03Z</time>
      </trkpt>
      <trkpt lat="45.40424" lon="1.6371">
        <ele>394</ele>
        <time>2020-09-20T10:14:05Z</time>
      </trkpt>
      <trkpt lat="45.40371" lon="1.63796">
        <ele>390</ele>
        <time>2020-09-20T10:15:52Z</time>
      </trkpt>
      <trkpt lat="45.40335" lon="1.64032">
        <ele>390</ele>
        <time>2020-09-20T10:19:38Z</time>
      </trkpt>
      <trkpt lat="45.40406" lon="1.64036">
        <ele>387</ele>
        <time>2020-09-20T10:21:13Z</time>
      </trkpt>
      <trkpt lat="45.40415" lon="1.64117">
        <ele>389</ele>
        <time>2020-09-20T10:22:30Z</time>
      </trkpt>
      <trkpt lat="45.40525" lon="1.6415">
        <ele>397</ele>
        <time>2020-09-20T10:25:00Z</time>
      </trkpt>
      <trkpt lat="45.40599" lon="1.64145">
        <ele>404</ele>
        <time>2020-09-20T10:26:39Z</time>
      </trkpt>
      <trkpt lat="45.40675" lon="1.64167">
        <ele>417</ele>
        <time>2020-09-20T10:28:22Z</time>
      </trkpt>
      <trkpt lat="45.40712" lon="1.64135">
        <ele>418</ele>
        <time>2020-09-20T10:29:20Z</time>
      </trkpt>
      <trkpt lat="45.40739" lon="1.64143">
        <ele>422</ele>
        <time>2020-09-20T10:29:57Z</time>
      </trkpt>
      <trkpt lat="45.40757" lon="1.64195">
        <ele>426</ele>
        <time>2020-09-20T10:30:51Z</time>
      </trkpt>
      <trkpt lat="45.40826" lon="1.64253">
        <ele>435</ele>
        <time>2020-09-20T10:32:38Z</time>
      </trkpt>
      <trkpt lat="45.40837" lon="1.64298">
        <ele>437</ele>
        <time>2020-09-20T10:33:23Z</time>
      </trkpt>
      <trkpt lat="45.40855" lon="1.6427">
        <ele>437</ele>
        <time>2020-09-20T10:33:58Z</time>
      </trkpt>
      <trkpt lat="45.40927" lon="1.64334">
        <ele>442</ele>
        <time>2020-09-20T10:35:51Z</time>
      </trkpt>
      <trkpt lat="45.41073" lon="1.64409">
        <ele>457</ele>
        <time>2020-09-20T10:39:18Z</time>
      </trkpt>
      <trkpt lat="45.41147" lon="1.64437">
        <ele>455</ele>
        <time>2020-09-20T10:41:01Z</time>
      </trkpt>
      <trkpt lat="45.41112" lon="1.64512">
        <ele>456</ele>
        <time>2020-09-20T10:42:25Z</time>
      </trkpt>
      <trkpt lat="45.4118" lon="1.64564">
        <ele>452</ele>
        <time>2020-09-20T10:44:08Z</time>
      </trkpt>
      <trkpt lat="45.41219" lon="1.64493">
        <ele>447</ele>
        <time>2020-09-20T10:45:32Z</time>
      </trkpt>
      <trkpt lat="45.4137" lon="1.64542">
        <ele>438</ele>
        <time>2020-09-20T10:48:59Z</time>
      </trkpt>
      <trkpt lat="45.41463" lon="1.64598">
        <ele>429</ele>
        <time>2020-09-20T10:51:14Z</time>
      </trkpt>
      <trkpt lat="45.41519" lon="1.64566">
        <ele>422</ele>
        <time>2020-09-20T10:52:34Z</time>
      </trkpt>
      <trkpt lat="45.416" lon="1.64463">
        <ele>409</ele>
        <time>2020-09-20T10:54:59Z</time>
      </trkpt>
      <trkpt lat="45.41727" lon="1.64465">
        <ele>392</ele>
        <time>2020-09-20T10:57:49Z</time>
      </trkpt>
      <trkpt lat="45.4176" lon="1.64429">
        <ele>386</ele>
        <time>2020-09-20T10:58:44Z</time>
      </trkpt>
      <trkpt lat="45.41799" lon="1.64422">
        <ele>381</ele>
        <time>2020-09-20T10:59:37Z</time>
      </trkpt>
      <trkpt lat="45.41835" lon="1.64441">
        <ele>378</ele>
        <time>2020-09-20T11:00:28Z</time>
      </trkpt>
      <trkpt lat="45.41883" lon="1.64439">
        <ele>374</ele>
        <time>2020-09-20T11:01:32Z</time>
      </trkpt>
      <trkpt lat="45.41903" lon="1.64482">
        <ele>371</ele>
        <time>2020-09-20T11:02:20Z</time>
      </trkpt>
      <trkpt lat="45.4195" lon="1.6442">
        <ele>366</ele>
        <time>2020-09-20T11:03:46Z</time>
      </trkpt>
      <trkpt lat="45.41972" lon="1.64448">
        <ele>362</ele>
        <time>2020-09-20T11:04:25Z</time>
      </trkpt>
      <trkpt lat="45.41971" lon="1.64489">
        <ele>361</ele>
        <time>2020-09-20T11:05:04Z</time>
      </trkpt>
      <trkpt lat="45.41954" lon="1.64544">
        <ele>361</ele>
        <time>2020-09-20T11:06:00Z</time>
      </trkpt>
      <trkpt lat="45.41962" lon="1.64645">
        <ele>360</ele>
        <time>2020-09-20T11:07:35Z</time>
      </trkpt>
      <trkpt lat="45.41911" lon="1.64718">
        <ele>358</ele>
        <time>2020-09-20T11:09:12Z</time>
      </trkpt>
      <trkpt lat="45.41923" lon="1.64738">
        <ele>358</ele>
        <time>2020-09-20T11:09:36Z</time>
      </trkpt>
      <trkpt lat="45.41972" lon="1.64768">
        <ele>362</ele>
        <time>2020-09-20T11:10:47Z</time>
      </trkpt>
      <trkpt lat="45.42043" lon="1.64774">
        <ele>369</ele>
        <time>2020-09-20T11:12:22Z</time>
      </trkpt>
      <trkpt lat="45.42123" lon="1.64744">
        <ele>377</ele>
        <time>2020-09-20T11:14:13Z</time>
      </trkpt>
      <trkpt lat="45.42177" lon="1.64697">
        <ele>381</ele>
        <time>2020-09-20T11:15:37Z</time>
      </trkpt>
      <trkpt lat="45.42209" lon="1.64701">
        <ele>385</ele>
        <time>2020-09-20T11:16:20Z</time>
      </trkpt>
      <trkpt lat="45.42245" lon="1.64759">
        <ele>389</ele>
        <time>2020-09-20T11:17:32Z</time>
      </trkpt>
      <trkpt lat="45.42307" lon="1.6481">
        <ele>389</ele>
        <time>2020-09-20T11:19:08Z</time>
      </trkpt>
      <trkpt lat="45.4228" lon="1.64896">
        <ele>382</ele>
        <time>2020-09-20T11:20:36Z</time>
      </trkpt>
      <trkpt lat="45.42278" lon="1.64937">
        <ele>379</ele>
        <time>2020-09-20T11:21:15Z</time>
      </trkpt>
      <trkpt lat="45.42254" lon="1.64986">
        <ele>375</ele>
        <time>2020-09-20T11:22:11Z</time>
      </trkpt>
      <trkpt lat="45.42219" lon="1.65014">
        <ele>370</ele>
        <time>2020-09-20T11:23:04Z</time>
      </trkpt>
      <trkpt lat="45.42185" lon="1.65059">
        <ele>366</ele>
        <time>2020-09-20T11:24:06Z</time>
      </trkpt>
      <trkpt lat="45.42152" lon="1.65192">
        <ele>358</ele>
        <time>2020-09-20T11:26:18Z</time>
      </trkpt>
      <trkpt lat="45.42097" lon="1.65304">
        <ele>364</ele>
        <time>2020-09-20T11:28:26Z</time>
      </trkpt>
      <trkpt lat="45.42106" lon="1.65448">
        <ele>371</ele>
        <time>2020-09-20T11:30:42Z</time>
      </trkpt>
      <trkpt lat="45.42124" lon="1.65527">
        <ele>375</ele>
        <time>2020-09-20T11:32:00Z</time>
      </trkpt>
      <trkpt lat="45.4212" lon="1.6575">
        <ele>394</ele>
        <time>2020-09-20T11:35:29Z</time>
      </trkpt>
      <trkpt lat="45.42054" lon="1.65755">
        <ele>396</ele>
        <time>2020-09-20T11:36:57Z</time>
      </trkpt>
      <trkpt lat="45.42076" lon="1.65864">
        <ele>409</ele>
        <time>2020-09-20T11:38:43Z</time>
      </trkpt>
      <trkpt lat="45.42028" lon="1.65954">
        <ele>418</ele>
        <time>2020-09-20T11:40:29Z</time>
      </trkpt>
      <trkpt lat="45.41974" lon="1.65973">
        <ele>417</ele>
        <time>2020-09-20T11:41:43Z</time>
      </trkpt>
      <trkpt lat="45.42018" lon="1.66055">
        <ele>424</ele>
        <time>2020-09-20T11:43:20Z</time>
      </trkpt>
      <trkpt lat="45.42018" lon="1.66184">
        <ele>429</ele>
        <time>2020-09-20T11:45:21Z</time>
      </trkpt>
      <trkpt lat="45.42033" lon="1.66203">
        <ele>430</ele>
        <time>2020-09-20T11:45:47Z</time>
      </trkpt>
      <trkpt lat="45.42013" lon="1.66235">
        <ele>430</ele>
        <time>2020-09-20T11:46:27Z</time>
      </trkpt>
      <trkpt lat="45.42004" lon="1.66265">
        <ele>430</ele>
        <time>2020-09-20T11:46:58Z</time>
      </trkpt>
      <trkpt lat="45.42036" lon="1.66355">
        <ele>427</ele>
        <time>2020-09-20T11:48:33Z</time>
      </trkpt>
      <trkpt lat="45.42025" lon="1.66443">
        <ele>423</ele>
        <time>2020-09-20T11:49:56Z</time>
      </trkpt>
      <trkpt lat="45.41986" lon="1.66576">
        <ele>419</ele>
        <time>2020-09-20T11:52:11Z</time>
      </trkpt>
      <trkpt lat="45.41986" lon="1.66639">
        <ele>416</ele>
        <time>2020-09-20T11:53:10Z</time>
      </trkpt>
      <trkpt lat="45.42013" lon="1.66731">
        <ele>415</ele>
        <time>2020-09-20T11:54:44Z</time>
      </trkpt>
      <trkpt lat="45.42112" lon="1.66712">
        <ele>414</ele>
        <time>2020-09-20T11:56:57Z</time>
      </trkpt>
      <trkpt lat="45.42171" lon="1.66664">
        <ele>409</ele>
        <time>2020-09-20T11:58:28Z</time>
      </trkpt>
      <trkpt lat="45.42249" lon="1.66692">
        <ele>403</ele>
        <time>2020-09-20T12:00:15Z</time>
      </trkpt>
      <trkpt lat="45.42305" lon="1.66763">
        <ele>404</ele>
        <time>2020-09-20T12:01:55Z</time>
      </trkpt>
      <trkpt lat="45.42377" lon="1.66772">
        <ele>401</ele>
        <time>2020-09-20T12:03:31Z</time>
      </trkpt>
      <trkpt lat="45.42504" lon="1.67014">
        <ele>399</ele>
        <time>2020-09-20T12:08:14Z</time>
      </trkpt>
      <trkpt lat="45.42507" lon="1.67085">
        <ele>404</ele>
        <time>2020-09-20T12:09:21Z</time>
      </trkpt>
      <trkpt lat="45.42493" lon="1.67201">
        <ele>407</ele>
        <time>2020-09-20T12:11:11Z</time>
      </trkpt>
      <trkpt lat="45.42444" lon="1.67458">
        <ele>403</ele>
        <time>2020-09-20T12:15:21Z</time>
      </trkpt>
      <trkpt lat="45.42463" lon="1.67497">
        <ele>396</ele>
        <time>2020-09-20T12:16:05Z</time>
      </trkpt>
      <trkpt lat="45.42539" lon="1.6751">
        <ele>387</ele>
        <time>2020-09-20T12:17:47Z</time>
      </trkpt>
      <trkpt lat="45.42608" lon="1.67587">
        <ele>384</ele>
        <time>2020-09-20T12:19:44Z</time>
      </trkpt>
      <trkpt lat="45.42618" lon="1.67808">
        <ele>395</ele>
        <time>2020-09-20T12:23:12Z</time>
      </trkpt>
      <trkpt lat="45.42635" lon="1.67847">
        <ele>391</ele>
        <time>2020-09-20T12:23:55Z</time>
      </trkpt>
      <trkpt lat="45.42665" lon="1.67789">
        <ele>382</ele>
        <time>2020-09-20T12:25:02Z</time>
      </trkpt>
      <trkpt lat="45.427" lon="1.67812">
        <ele>383</ele>
        <time>2020-09-20T12:25:54Z</time>
      </trkpt>
      <trkpt lat="45.42752" lon="1.67802">
        <ele>385</ele>
        <time>2020-09-20T12:27:04Z</time>
      </trkpt>
      <trkpt lat="45.42781" lon="1.67823">
        <ele>388</ele>
        <time>2020-09-20T12:27:47Z</time>
      </trkpt>
      <trkpt lat="45.42941" lon="1.67722">
        <ele>398</ele>
        <time>2020-09-20T12:31:41Z</time>
      </trkpt>
      <trkpt lat="45.43011" lon="1.67735">
        <ele>401</ele>
        <time>2020-09-20T12:33:15Z</time>
      </trkpt>
      <trkpt lat="45.43019" lon="1.6775">
        <ele>400</ele>
        <time>2020-09-20T12:33:32Z</time>
      </trkpt>
      <trkpt lat="45.43022" lon="1.67937">
        <ele>406</ele>
        <time>2020-09-20T12:36:28Z</time>
      </trkpt>
      <trkpt lat="45.43045" lon="1.68134">
        <ele>414</ele>
        <time>2020-09-20T12:39:35Z</time>
      </trkpt>
      <trkpt lat="45.4303" lon="1.68177">
        <ele>416</ele>
        <time>2020-09-20T12:40:20Z</time>
      </trkpt>
      <trkpt lat="45.43034" lon="1.68299">
        <ele>421</ele>
        <time>2020-09-20T12:42:14Z</time>
      </trkpt>
      <trkpt lat="45.43052" lon="1.68366">
        <ele>422</ele>
        <time>2020-09-20T12:43:21Z</time>
      </trkpt>
      <trkpt lat="45.43121" lon="1.684">
        <ele>426</ele>
        <time>2020-09-20T12:44:59Z</time>
      </trkpt>
      <trkpt lat="45.43158" lon="1.68623">
        <ele>418</ele>
        <time>2020-09-20T12:48:33Z</time>
      </trkpt>
      <trkpt lat="45.43136" lon="1.68694">
        <ele>414</ele>
        <time>2020-09-20T12:49:46Z</time>
      </trkpt>
      <trkpt lat="45.43121" lon="1.68808">
        <ele>409</ele>
        <time>2020-09-20T12:51:35Z</time>
      </trkpt>
      <trkpt lat="45.43129" lon="1.68907">
        <ele>405</ele>
        <time>2020-09-20T12:53:08Z</time>
      </trkpt>
      <trkpt lat="45.43152" lon="1.6898">
        <ele>409</ele>
        <time>2020-09-20T12:54:23Z</time>
      </trkpt>
      <trkpt lat="45.43192" lon="1.69057">
        <ele>413</ele>
        <time>2020-09-20T12:55:52Z</time>
      </trkpt>
      <trkpt lat="45.43192" lon="1.69199">
        <ele>422</ele>
        <time>2020-09-20T12:58:05Z</time>
      </trkpt>
      <trkpt lat="45.43144" lon="1.69291">
        <ele>424</ele>
        <time>2020-09-20T12:59:53Z</time>
      </trkpt>
      <trkpt lat="45.43127" lon="1.6939">
        <ele>422</ele>
        <time>2020-09-20T13:01:28Z</time>
      </trkpt>
      <trkpt lat="45.43132" lon="1.69525">
        <ele>423</ele>
        <time>2020-09-20T13:03:35Z</time>
      </trkpt>
    </trkseg>
  </trk>
</gpx>